[[{"header":{"parameterUnit":"m.s-1","parameterCategory":1,"la1":31.0,"la2":29.5877,"lo1":-88.7671,"lo2":-86.6584,"dy":0.0162,"dx":0.0185,"nx":115,"ny":88,"refTime":"2026-03-31T12:00:00:Z","depth":0,"parameterNumber":2,"parameterNumberName":"U-component_of_WINDS"},"data":[0.0,0.0,0.0,0.0,0.0,0.0,0.0,0.0,0.0,0.0,0.0,0.0,0.0,0.0,0.0,0.0,0.0,0.0,0.0,0.0,0.0,0.0,0.0,0.0,0.0,0.0,0.0,0.0,0.0,0.0,0.0,0.0,0.0,0.0,0.0,0.0,0.0,0.0,0.0,0.0,0.0,0.0,0.0,0.0,0.0,0.0,0.0,0.0,0.0,0.0,0.0,0.0,0.0,0.0,0.0,0.0,0.0,0.0,0.0,0.0,0.0,0.0,0.0,0.0,0.0,0.0,0.0,0.0,0.0,0.0,0.0,0.0,0.0,0.0,0.0,0.0,0.0,0.0,0.0,0.0,0.0,0.0,0.0,0.0,0.0,0.0,0.0,0.0,0.0,0.0,0.0,0.0,0.0,0.0,0.0,0.0,0.0,0.0,0.0,0.0,0.0,0.0,0.0,0.0,0.0,0.0,0.0,0.0,0.0,0.0,0.0,0.0,0.0,0.0,0.0,0.0,0.0,0.0,0.0,0.0,0.0,0.0,0.0,0.0,0.0,0.0,0.0,0.0,0.0,0.0,0.0,0.0,0.0,0.0,0.0,0.0,0.0,0.0,0.0,0.0,0.0,0.0,0.0,0.0,0.0,0.0,0.0,0.0,0.0,0.0,0.0,0.0,0.0,0.0,0.0,0.0,0.0,0.0,0.0,0.0,0.0,0.0,0.0,0.0,0.0,0.0,0.0,0.0,0.0,0.0,0.0,0.0,0.0,0.0,0.0,0.0,0.0,0.0,0.0,0.0,0.0,0.0,0.0,0.0,0.0,0.0,0.0,0.0,0.0,0.0,0.0,0.0,0.0,0.0,0.0,0.0,0.0,0.0,0.0,0.0,0.0,0.0,0.0,0.0,0.0,0.0,0.0,0.0,0.0,0.0,0.0,0.0,0.0,0.0,0.0,0.0,0.0,0.0,0.0,0.0,0.0,0.0,0.0,0.0,0.0,0.0,0.0,0.0,0.0,0.0,0.0,0.0,0.0,0.0,0.0,0.0,0.0,0.0,0.0,0.0,0.0,0.0,0.0,0.0,0.0,0.0,0.0,0.0,0.0,0.0,0.0,0.0,0.0,0.0,0.0,0.0,0.0,0.0,0.0,0.0,0.0,0.0,0.0,0.0,0.0,0.0,0.0,0.0,0.0,0.0,0.0,0.0,0.0,0.0,0.0,0.0,0.0,0.0,0.0,0.0,0.0,0.0,0.0,0.0,0.0,0.0,0.0,0.0,0.0,0.0,0.0,0.0,0.0,0.0,0.0,0.0,0.0,0.0,0.0,0.0,0.0,0.0,0.0,0.0,0.0,0.0,0.0,0.0,0.0,0.0,0.0,0.0,0.0,0.0,0.0,0.0,0.0,0.0,0.0,0.0,0.0,0.0,0.0,0.0,0.0,0.0,0.0,0.0,0.0,0.0,0.0,0.0,0.0,0.0,0.0,0.0,0.0,0.0,0.0,0.0,0.0,0.0,0.0,0.0,0.0,0.0,0.0,0.0,0.0,0.0,0.0,0.0,0.0,0.0,0.0,0.0,0.0,0.0,0.0,0.0,0.0,0.0,0.0,0.0,0.0,0.0,0.0,0.0,0.0,0.0,0.0,0.0,0.0,0.0,0.0,0.0,0.0,0.0,0.0,0.0,0.0,0.0,0.0,0.0,0.0,0.0,0.0,0.0,0.0,0.0,0.0,0.0,0.0,0.0,0.0,0.0,0.0,0.0,0.0,0.0,0.0,0.0,0.0,0.0,0.0,0.0,0.0,0.0,0.0,0.0,0.0,0.0,0.0,0.0,0.0,0.0,0.0,0.0,0.0,0.0,0.0,0.0,0.0,0.0,0.0,0.0,0.0,0.0,0.0,0.0,0.0,0.0,0.0,0.0,0.0,0.0,0.0,0.0,0.0,0.0,0.0,0.0,0.0,0.0,0.0,0.0,0.0,0.0,0.0,0.0,0.0,0.0,0.0,0.0,0.0,0.0,0.0,0.0,0.0,0.0,0.0,0.0,0.0,0.0,0.0,0.0,0.0,0.0,0.0,0.0,0.0,0.0,0.0,0.0,0.0,0.0,0.0,0.0,0.0,0.0,0.0,0.0,0.0,0.0,0.0,0.0,0.0,0.0,0.0,0.0,0.0,0.0,0.0,0.0,0.0,0.0,0.0,0.0,0.0,0.0,0.0,0.0,0.0,0.0,0.0,0.0,0.0,0.0,0.0,0.0,0.0,0.0,0.0,0.0,0.0,0.0,0.0,0.0,0.0,0.0,0.0,0.0,0.0,0.0,0.0,0.0,0.0,0.0,0.0,0.0,0.0,0.0,0.0,0.0,0.0,0.0,0.0,0.0,0.0,0.0,0.0,0.0,0.0,0.0,0.0,0.0,0.0,0.0,0.0,0.0,0.0,0.0,0.0,0.0,0.0,0.0,0.0,0.0,0.0,0.0,0.0,0.0,0.0,0.0,0.0,0.0,0.0,0.0,0.0,0.0,0.0,0.0,0.0,0.0,0.0,0.0,0.0,0.0,0.0,0.0,0.0,0.0,0.0,0.0,0.0,0.0,0.0,0.0,0.0,0.0,0.0,0.0,0.0,0.0,0.0,0.0,0.0,0.0,0.0,0.0,0.0,0.0,0.0,0.0,0.0,0.0,0.0,0.0,0.0,0.0,0.0,0.0,0.0,0.0,0.0,0.0,0.0,0.0,0.0,0.0,0.0,0.0,0.0,0.0,0.0,0.0,0.0,0.0,0.0,0.0,0.0,0.0,0.0,0.0,0.0,0.0,0.0,0.0,0.0,0.0,0.0,0.0,0.0,0.0,0.0,0.0,0.0,0.0,0.0,0.0,0.0,0.0,0.0,0.0,0.0,0.0,0.0,0.0,0.0,0.0,0.0,0.0,0.0,0.0,0.0,0.0,0.0,0.0,0.0,0.0,0.0,0.0,0.0,0.0,0.0,0.0,0.0,0.0,0.0,0.0,0.0,0.0,0.0,0.0,0.0,0.0,0.0,0.0,0.0,0.0,0.0,0.0,0.0,0.0,0.0,0.0,0.0,0.0,0.0,0.0,0.0,0.0,0.0,0.0,0.0,0.0,0.0,0.0,0.0,0.0,0.0,0.0,0.0,0.0,0.0,0.0,0.0,0.0,0.0,0.0,0.0,0.0,0.0,0.0,0.0,0.0,0.0,0.0,0.0,0.0,0.0,0.0,0.0,0.0,0.0,0.0,0.0,0.0,0.0,0.0,0.0,0.0,0.0,0.0,0.0,0.0,0.0,0.0,0.0,0.0,0.0,0.0,0.0,0.0,0.0,0.0,0.0,0.0,0.0,0.0,0.0,0.0,0.0,0.0,0.0,0.0,0.0,0.0,0.0,0.0,0.0,0.0,0.0,0.0,0.0,0.0,0.0,0.0,0.0,0.0,0.0,0.0,0.0,0.0,0.0,0.0,0.0,0.0,0.0,0.0,0.0,0.0,0.0,0.0,0.0,0.0,0.0,0.0,0.0,0.0,0.0,0.0,0.0,0.0,0.0,0.0,0.0,0.0,0.0,0.0,0.0,0.0,0.0,0.0,0.0,0.0,0.0,0.0,0.0,0.0,0.0,0.0,0.0,0.0,0.0,0.0,0.0,0.0,0.0,0.0,0.0,0.0,0.0,0.0,0.0,0.0,0.0,0.0,0.0,0.0,0.0,0.0,0.0,0.0,0.0,0.0,0.0,0.0,0.0,0.0,0.0,0.0,0.0,0.0,0.0,0.0,0.0,0.0,0.0,0.0,0.0,0.0,0.0,0.0,0.0,0.0,0.0,0.0,0.0,0.0,0.0,0.0,0.0,0.0,0.0,0.0,0.0,0.0,0.0,0.0,0.0,0.0,0.0,0.0,0.0,0.0,0.0,0.0,0.0,0.0,0.0,0.0,0.0,0.0,0.0,0.0,0.0,0.0,0.0,0.0,0.0,0.0,0.0,0.0,0.0,0.0,0.0,0.0,0.0,0.0,0.0,0.0,0.0,0.0,0.0,0.0,0.0,0.0,0.0,0.0,0.0,0.0,0.0,0.0,0.0,0.0,0.0,0.0,0.0,0.0,0.0,0.0,0.0,0.0,0.0,0.0,0.0,0.0,0.0,0.0,0.0,0.0,0.0,0.0,0.0,0.0,0.0,0.0,0.0,0.0,0.0,0.0,0.0,0.0,0.0,0.0,0.0,0.0,0.0,0.0,0.0,0.0,0.0,0.0,0.0,0.0,-5.4365,0.0,0.0,0.0,0.0,0.0,0.0,0.0,0.0,0.0,0.0,0.0,0.0,0.0,0.0,0.0,0.0,0.0,0.0,0.0,0.0,0.0,0.0,0.0,0.0,0.0,0.0,0.0,0.0,0.0,0.0,0.0,0.0,0.0,0.0,0.0,0.0,0.0,0.0,0.0,0.0,0.0,0.0,0.0,0.0,0.0,0.0,0.0,0.0,0.0,0.0,0.0,0.0,0.0,0.0,0.0,0.0,0.0,0.0,0.0,0.0,0.0,0.0,0.0,0.0,0.0,0.0,0.0,0.0,0.0,0.0,0.0,0.0,0.0,0.0,0.0,0.0,0.0,0.0,0.0,0.0,0.0,0.0,0.0,0.0,0.0,0.0,0.0,0.0,0.0,0.0,0.0,0.0,0.0,0.0,0.0,0.0,0.0,0.0,0.0,0.0,0.0,0.0,0.0,0.0,0.0,0.0,0.0,0.0,0.0,0.0,-5.7487,-5.6615,-5.6816,-5.5739,-5.3225,0.0,0.0,0.0,0.0,0.0,0.0,0.0,0.0,0.0,0.0,0.0,0.0,0.0,0.0,0.0,0.0,0.0,0.0,0.0,0.0,0.0,0.0,0.0,0.0,0.0,0.0,0.0,0.0,0.0,0.0,0.0,0.0,0.0,0.0,0.0,0.0,0.0,0.0,0.0,0.0,0.0,0.0,0.0,0.0,0.0,0.0,0.0,0.0,0.0,0.0,0.0,0.0,0.0,0.0,0.0,0.0,0.0,0.0,0.0,0.0,0.0,0.0,0.0,0.0,0.0,0.0,0.0,0.0,0.0,0.0,0.0,0.0,0.0,0.0,0.0,0.0,0.0,0.0,0.0,0.0,0.0,0.0,0.0,0.0,0.0,0.0,0.0,0.0,0.0,0.0,0.0,0.0,0.0,0.0,0.0,0.0,0.0,0.0,0.0,0.0,0.0,0.0,0.0,0.0,0.0,0.0,0.0,0.0,0.0,0.0,0.0,0.0,-5.6717,-5.5416,-5.2269,0.0,0.0,0.0,0.0,0.0,0.0,0.0,0.0,0.0,0.0,0.0,0.0,0.0,0.0,0.0,0.0,0.0,0.0,0.0,0.0,0.0,0.0,0.0,0.0,0.0,0.0,0.0,0.0,0.0,0.0,0.0,0.0,0.0,0.0,0.0,0.0,0.0,0.0,0.0,0.0,0.0,0.0,0.0,0.0,0.0,0.0,0.0,0.0,0.0,0.0,0.0,0.0,0.0,0.0,0.0,0.0,0.0,0.0,0.0,0.0,0.0,0.0,0.0,0.0,0.0,0.0,0.0,0.0,0.0,0.0,0.0,0.0,0.0,0.0,0.0,0.0,0.0,0.0,0.0,0.0,0.0,0.0,0.0,0.0,0.0,0.0,0.0,0.0,0.0,0.0,0.0,0.0,0.0,0.0,0.0,0.0,0.0,0.0,0.0,0.0,0.0,0.0,0.0,0.0,0.0,0.0,0.0,0.0,0.0,0.0,-5.6369,-5.8346,-5.7392,0.0,-5.2747,0.0,0.0,0.0,0.0,0.0,0.0,0.0,0.0,0.0,0.0,0.0,0.0,0.0,0.0,0.0,0.0,0.0,0.0,0.0,0.0,0.0,0.0,0.0,0.0,0.0,0.0,0.0,0.0,0.0,0.0,0.0,0.0,0.0,0.0,0.0,0.0,0.0,0.0,0.0,0.0,0.0,0.0,0.0,0.0,0.0,0.0,0.0,0.0,0.0,0.0,0.0,0.0,0.0,0.0,0.0,0.0,0.0,0.0,0.0,0.0,0.0,0.0,0.0,0.0,0.0,0.0,0.0,0.0,0.0,0.0,0.0,0.0,0.0,0.0,0.0,0.0,0.0,0.0,0.0,0.0,0.0,0.0,0.0,0.0,0.0,0.0,0.0,0.0,0.0,0.0,0.0,0.0,0.0,0.0,0.0,0.0,0.0,0.0,0.0,0.0,0.0,0.0,0.0,0.0,0.0,0.0,0.0,0.0,0.0,0.0,-5.5644,-5.6161,-5.4775,-5.3439,0.0,0.0,0.0,0.0,0.0,0.0,0.0,0.0,0.0,0.0,0.0,0.0,0.0,0.0,0.0,0.0,0.0,0.0,0.0,0.0,0.0,0.0,0.0,0.0,0.0,0.0,0.0,0.0,0.0,0.0,0.0,0.0,0.0,0.0,0.0,0.0,0.0,0.0,0.0,0.0,0.0,0.0,0.0,0.0,0.0,0.0,0.0,0.0,0.0,0.0,0.0,0.0,0.0,0.0,0.0,0.0,0.0,0.0,0.0,0.0,0.0,0.0,0.0,0.0,0.0,0.0,0.0,0.0,0.0,0.0,0.0,0.0,0.0,0.0,0.0,0.0,0.0,0.0,0.0,0.0,0.0,0.0,0.0,0.0,0.0,0.0,0.0,0.0,0.0,0.0,0.0,0.0,0.0,0.0,0.0,0.0,0.0,0.0,0.0,0.0,0.0,0.0,0.0,0.0,0.0,0.0,0.0,0.0,0.0,0.0,-5.4895,-5.5097,-5.4711,-5.3592,-5.2585,-5.1683,0.0,0.0,0.0,0.0,0.0,0.0,0.0,0.0,0.0,0.0,0.0,0.0,0.0,0.0,0.0,0.0,0.0,0.0,0.0,0.0,0.0,0.0,0.0,0.0,0.0,0.0,0.0,0.0,0.0,0.0,0.0,0.0,0.0,0.0,0.0,0.0,0.0,0.0,0.0,0.0,0.0,0.0,0.0,0.0,0.0,0.0,0.0,0.0,0.0,0.0,0.0,0.0,0.0,0.0,0.0,0.0,0.0,0.0,0.0,0.0,0.0,0.0,0.0,0.0,0.0,0.0,0.0,0.0,0.0,0.0,0.0,0.0,0.0,0.0,0.0,0.0,0.0,0.0,0.0,0.0,0.0,0.0,0.0,0.0,0.0,0.0,0.0,0.0,0.0,0.0,0.0,0.0,0.0,0.0,0.0,0.0,0.0,0.0,0.0,0.0,0.0,0.0,0.0,0.0,0.0,0.0,0.0,0.0,-5.6436,-5.5188,-5.4803,-5.55,-5.5467,-5.3977,0.0,0.0,0.0,0.0,0.0,0.0,0.0,0.0,0.0,0.0,0.0,0.0,0.0,0.0,0.0,0.0,0.0,0.0,0.0,0.0,0.0,0.0,0.0,0.0,0.0,0.0,0.0,0.0,0.0,0.0,0.0,0.0,0.0,0.0,0.0,0.0,0.0,0.0,0.0,0.0,0.0,0.0,0.0,0.0,0.0,0.0,0.0,0.0,0.0,0.0,0.0,0.0,0.0,0.0,0.0,0.0,0.0,0.0,0.0,0.0,0.0,0.0,0.0,0.0,0.0,0.0,0.0,0.0,0.0,0.0,0.0,0.0,0.0,0.0,0.0,0.0,0.0,0.0,0.0,0.0,0.0,0.0,0.0,0.0,0.0,0.0,0.0,0.0,0.0,0.0,0.0,0.0,0.0,0.0,0.0,0.0,0.0,0.0,0.0,0.0,0.0,0.0,0.0,0.0,0.0,0.0,0.0,0.0,0.0,-5.4454,-5.4436,-5.5042,-5.6253,-5.4381,-5.2768,0.0,0.0,0.0,0.0,0.0,0.0,0.0,0.0,0.0,0.0,0.0,0.0,0.0,0.0,0.0,0.0,0.0,0.0,0.0,0.0,0.0,0.0,0.0,0.0,0.0,0.0,0.0,0.0,0.0,0.0,0.0,0.0,0.0,0.0,0.0,0.0,0.0,0.0,0.0,0.0,0.0,0.0,0.0,0.0,0.0,0.0,0.0,0.0,0.0,0.0,0.0,0.0,0.0,0.0,0.0,0.0,0.0,0.0,0.0,0.0,0.0,0.0,0.0,0.0,0.0,0.0,0.0,0.0,0.0,0.0,0.0,0.0,0.0,0.0,0.0,0.0,0.0,0.0,0.0,0.0,0.0,0.0,0.0,0.0,0.0,0.0,0.0,0.0,0.0,0.0,0.0,0.0,0.0,0.0,0.0,0.0,0.0,0.0,0.0,0.0,0.0,0.0,0.0,0.0,0.0,0.0,0.0,0.0,0.0,-5.3977,0.0,-5.5574,-5.6271,-5.4051,-5.216,0.0,0.0,0.0,0.0,0.0,0.0,0.0,0.0,0.0,0.0,0.0,0.0,0.0,0.0,0.0,0.0,0.0,0.0,0.0,0.0,0.0,0.0,0.0,0.0,0.0,0.0,0.0,0.0,0.0,0.0,0.0,0.0,0.0,0.0,0.0,0.0,0.0,0.0,0.0,0.0,0.0,0.0,0.0,0.0,0.0,0.0,0.0,0.0,0.0,0.0,0.0,0.0,0.0,0.0,0.0,0.0,0.0,0.0,0.0,0.0,0.0,0.0,0.0,0.0,0.0,0.0,0.0,0.0,0.0,0.0,0.0,0.0,0.0,0.0,0.0,0.0,0.0,0.0,0.0,0.0,0.0,0.0,0.0,0.0,0.0,0.0,0.0,0.0,0.0,0.0,0.0,0.0,0.0,0.0,0.0,0.0,0.0,0.0,0.0,0.0,0.0,0.0,0.0,0.0,0.0,0.0,0.0,0.0,-5.3959,-5.5464,-5.6271,-5.6363,-5.5647,-5.4748,-5.2472,0.0,0.0,0.0,0.0,0.0,0.0,0.0,0.0,0.0,0.0,0.0,0.0,0.0,0.0,0.0,0.0,0.0,0.0,0.0,0.0,0.0,0.0,0.0,0.0,0.0,0.0,0.0,0.0,0.0,0.0,0.0,0.0,0.0,0.0,0.0,0.0,0.0,0.0,0.0,0.0,0.0,0.0,0.0,0.0,0.0,0.0,0.0,0.0,0.0,0.0,0.0,0.0,0.0,0.0,0.0,0.0,0.0,0.0,0.0,0.0,0.0,0.0,0.0,0.0,0.0,0.0,0.0,0.0,0.0,0.0,0.0,0.0,0.0,0.0,0.0,0.0,0.0,0.0,0.0,0.0,0.0,0.0,0.0,0.0,0.0,0.0,0.0,0.0,0.0,0.0,0.0,0.0,0.0,0.0,0.0,0.0,0.0,0.0,0.0,0.0,0.0,0.0,0.0,0.0,0.0,0.0,0.0,0.0,0.0,-5.3977,-5.5262,-5.6381,-5.7097,-5.4308,-5.2417,0.0,0.0,0.0,0.0,0.0,0.0,0.0,0.0,0.0,0.0,0.0,0.0,0.0,0.0,0.0,0.0,0.0,0.0,0.0,0.0,0.0,0.0,0.0,0.0,0.0,0.0,0.0,0.0,0.0,0.0,0.0,0.0,0.0,0.0,0.0,0.0,0.0,0.0,0.0,0.0,0.0,0.0,0.0,0.0,0.0,0.0,0.0,0.0,0.0,0.0,0.0,0.0,0.0,0.0,0.0,0.0,0.0,0.0,0.0,0.0,0.0,0.0,0.0,0.0,0.0,0.0,0.0,0.0,0.0,0.0,0.0,0.0,0.0,0.0,0.0,0.0,0.0,0.0,0.0,0.0,0.0,0.0,0.0,0.0,0.0,0.0,0.0,0.0,0.0,0.0,0.0,0.0,0.0,0.0,0.0,0.0,0.0,0.0,0.0,0.0,0.0,0.0,0.0,0.0,0.0,0.0,0.0,0.0,0.0,-5.462,-5.64,-5.7574,-5.7978,-5.4968,-5.2858,-5.183,0.0,0.0,0.0,0.0,0.0,0.0,0.0,0.0,0.0,0.0,0.0,0.0,0.0,0.0,0.0,0.0,0.0,0.0,0.0,0.0,0.0,0.0,0.0,0.0,0.0,0.0,0.0,0.0,0.0,0.0,0.0,0.0,0.0,0.0,0.0,0.0,0.0,0.0,0.0,0.0,0.0,0.0,0.0,0.0,0.0,0.0,0.0,0.0,0.0,0.0,0.0,0.0,0.0,0.0,0.0,0.0,0.0,0.0,0.0,0.0,0.0,0.0,0.0,0.0,0.0,0.0,0.0,0.0,0.0,0.0,0.0,0.0,0.0,0.0,0.0,0.0,0.0,0.0,0.0,0.0,0.0,0.0,0.0,0.0,0.0,0.0,0.0,0.0,0.0,0.0,0.0,0.0,0.0,0.0,0.0,0.0,0.0,0.0,0.0,0.0,0.0,0.0,0.0,0.0,0.0,0.0,0.0,0.0,-5.6932,-5.9391,-5.9924,-5.8345,-5.6528,-5.3833,0.0,0.0,0.0,0.0,0.0,0.0,0.0,0.0,0.0,0.0,0.0,0.0,0.0,0.0,0.0,0.0,0.0,0.0,0.0,0.0,0.0,0.0,0.0,0.0,0.0,0.0,0.0,0.0,0.0,0.0,0.0,0.0,0.0,0.0,0.0,0.0,0.0,0.0,0.0,0.0,0.0,0.0,0.0,0.0,0.0,0.0,0.0,0.0,0.0,0.0,0.0,0.0,0.0,0.0,0.0,0.0,0.0,0.0,0.0,0.0,0.0,0.0,0.0,0.0,0.0,0.0,0.0,0.0,0.0,0.0,0.0,0.0,0.0,0.0,0.0,0.0,0.0,0.0,0.0,0.0,0.0,0.0,0.0,0.0,0.0,0.0,0.0,0.0,0.0,0.0,0.0,0.0,0.0,0.0,0.0,0.0,0.0,0.0,0.0,0.0,0.0,0.0,0.0,0.0,0.0,0.0,0.0,0.0,0.0,-5.8579,-6.2144,-6.3246,-6.1539,-5.7685,-5.5119,0.0,0.0,0.0,0.0,0.0,0.0,0.0,0.0,0.0,0.0,0.0,0.0,0.0,0.0,0.0,0.0,0.0,0.0,0.0,0.0,0.0,0.0,0.0,0.0,0.0,0.0,0.0,0.0,0.0,0.0,0.0,0.0,0.0,0.0,0.0,0.0,0.0,0.0,0.0,0.0,0.0,0.0,0.0,0.0,0.0,0.0,0.0,0.0,0.0,0.0,0.0,0.0,0.0,0.0,0.0,0.0,0.0,0.0,0.0,0.0,0.0,0.0,0.0,0.0,0.0,0.0,0.0,0.0,0.0,0.0,0.0,0.0,0.0,0.0,0.0,0.0,0.0,0.0,0.0,0.0,0.0,0.0,0.0,0.0,0.0,0.0,0.0,0.0,0.0,0.0,0.0,0.0,0.0,0.0,0.0,0.0,0.0,0.0,0.0,0.0,0.0,0.0,0.0,0.0,0.0,0.0,0.0,0.0,-5.7255,-5.9728,-6.3683,-6.5113,-6.3783,-6.0127,-5.7134,0.0,0.0,0.0,0.0,0.0,0.0,0.0,0.0,0.0,0.0,0.0,0.0,0.0,0.0,0.0,0.0,0.0,0.0,0.0,0.0,0.0,0.0,0.0,0.0,0.0,0.0,0.0,0.0,0.0,0.0,0.0,0.0,0.0,0.0,0.0,0.0,0.0,0.0,0.0,0.0,0.0,0.0,0.0,0.0,0.0,0.0,0.0,0.0,0.0,0.0,0.0,0.0,0.0,0.0,0.0,0.0,0.0,0.0,0.0,0.0,0.0,0.0,0.0,0.0,0.0,0.0,0.0,0.0,0.0,0.0,0.0,0.0,0.0,0.0,0.0,0.0,0.0,0.0,0.0,0.0,0.0,0.0,0.0,0.0,0.0,0.0,0.0,0.0,0.0,0.0,0.0,0.0,0.0,0.0,0.0,0.0,0.0,0.0,0.0,0.0,0.0,0.0,0.0,0.0,0.0,0.0,0.0,0.0,-5.7927,-6.0457,-6.4248,-6.5887,-6.5058,-6.2591,-5.9132,0.0,0.0,0.0,0.0,0.0,0.0,0.0,0.0,0.0,0.0,0.0,0.0,0.0,0.0,0.0,0.0,0.0,0.0,0.0,0.0,0.0,0.0,0.0,0.0,0.0,0.0,0.0,0.0,0.0,0.0,0.0,0.0,0.0,0.0,0.0,0.0,0.0,0.0,0.0,0.0,0.0,0.0,0.0,0.0,0.0,0.0,0.0,0.0,0.0,0.0,0.0,0.0,0.0,0.0,0.0,0.0,0.0,0.0,0.0,0.0,0.0,0.0,0.0,0.0,0.0,0.0,0.0,0.0,0.0,0.0,0.0,0.0,0.0,0.0,0.0,0.0,0.0,0.0,0.0,0.0,0.0,0.0,0.0,0.0,0.0,0.0,0.0,0.0,0.0,0.0,0.0,0.0,0.0,0.0,0.0,0.0,0.0,0.0,0.0,0.0,0.0,0.0,0.0,0.0,0.0,0.0,0.0,0.0,-5.7952,-6.0331,-6.3608,-6.5222,-6.4995,-6.1078,-5.7775,0.0,0.0,0.0,0.0,0.0,0.0,0.0,0.0,0.0,0.0,0.0,0.0,0.0,0.0,0.0,0.0,0.0,0.0,0.0,0.0,0.0,0.0,0.0,0.0,0.0,0.0,0.0,0.0,0.0,0.0,0.0,0.0,0.0,0.0,0.0,0.0,0.0,0.0,0.0,0.0,0.0,0.0,0.0,0.0,0.0,0.0,0.0,0.0,-4.8052,0.0,0.0,0.0,0.0,0.0,0.0,0.0,0.0,0.0,0.0,0.0,0.0,0.0,0.0,0.0,0.0,0.0,0.0,0.0,0.0,0.0,0.0,0.0,0.0,0.0,0.0,0.0,0.0,0.0,0.0,0.0,0.0,0.0,0.0,0.0,0.0,0.0,0.0,0.0,0.0,0.0,0.0,0.0,0.0,0.0,0.0,0.0,0.0,0.0,0.0,0.0,0.0,0.0,0.0,0.0,0.0,0.0,0.0,0.0,-5.8045,-6.0837,-6.3183,-6.4217,-6.3743,-6.0485,-5.769,0.0,0.0,0.0,0.0,0.0,0.0,0.0,0.0,0.0,0.0,0.0,0.0,0.0,0.0,0.0,0.0,0.0,0.0,0.0,0.0,0.0,0.0,0.0,0.0,0.0,0.0,0.0,0.0,0.0,0.0,0.0,0.0,0.0,0.0,0.0,0.0,0.0,0.0,0.0,0.0,0.0,0.0,0.0,0.0,0.0,0.0,0.0,0.0,0.0,0.0,0.0,0.0,0.0,0.0,0.0,0.0,0.0,0.0,0.0,0.0,0.0,0.0,0.0,0.0,0.0,0.0,0.0,0.0,0.0,0.0,0.0,0.0,0.0,0.0,0.0,0.0,0.0,0.0,0.0,0.0,0.0,0.0,0.0,0.0,0.0,0.0,0.0,0.0,0.0,0.0,0.0,0.0,0.0,0.0,0.0,0.0,0.0,0.0,0.0,0.0,0.0,0.0,0.0,0.0,0.0,0.0,0.0,-5.473,-5.7979,-6.1343,-6.2689,-6.3052,-6.2397,-6.0203,-5.7784,-5.5279,0.0,0.0,0.0,0.0,0.0,0.0,0.0,0.0,0.0,0.0,0.0,0.0,0.0,0.0,0.0,0.0,0.0,0.0,0.0,0.0,0.0,0.0,0.0,0.0,0.0,0.0,0.0,0.0,0.0,0.0,0.0,0.0,0.0,0.0,0.0,0.0,0.0,0.0,-4.5241,-4.643,0.0,0.0,0.0,0.0,0.0,0.0,0.0,0.0,-4.7107,0.0,0.0,0.0,0.0,0.0,0.0,0.0,0.0,0.0,0.0,0.0,0.0,0.0,0.0,0.0,0.0,0.0,0.0,0.0,0.0,0.0,0.0,0.0,0.0,0.0,0.0,0.0,0.0,0.0,0.0,0.0,0.0,0.0,0.0,0.0,0.0,0.0,0.0,0.0,0.0,0.0,0.0,0.0,0.0,0.0,0.0,0.0,0.0,0.0,0.0,0.0,0.0,0.0,0.0,0.0,0.0,-5.3957,-5.4635,-5.7012,-6.121,-6.1584,-6.1613,-6.1465,-5.9307,-5.6472,-5.3045,0.0,0.0,0.0,0.0,0.0,0.0,0.0,0.0,0.0,0.0,0.0,0.0,0.0,0.0,0.0,0.0,0.0,0.0,0.0,0.0,0.0,0.0,0.0,0.0,0.0,0.0,0.0,0.0,0.0,0.0,0.0,0.0,0.0,0.0,0.0,0.0,0.0,0.0,0.0,-4.9001,-4.9898,0.0,0.0,0.0,0.0,0.0,0.0,0.0,0.0,-4.825,0.0,0.0,0.0,0.0,0.0,0.0,0.0,0.0,0.0,0.0,0.0,0.0,0.0,0.0,0.0,0.0,0.0,0.0,0.0,0.0,0.0,0.0,0.0,0.0,0.0,0.0,0.0,0.0,0.0,0.0,0.0,0.0,0.0,0.0,0.0,0.0,0.0,0.0,0.0,0.0,0.0,0.0,0.0,0.0,0.0,0.0,0.0,0.0,0.0,0.0,0.0,0.0,0.0,0.0,0.0,-5.3281,-5.5294,-5.7729,-6.0554,-6.0672,-6.0486,-6.0097,-5.7932,-5.5175,0.0,0.0,0.0,0.0,0.0,0.0,0.0,0.0,0.0,0.0,0.0,0.0,0.0,0.0,0.0,0.0,0.0,0.0,0.0,0.0,0.0,0.0,0.0,0.0,0.0,0.0,0.0,0.0,0.0,0.0,0.0,0.0,0.0,0.0,0.0,0.0,0.0,0.0,0.0,0.0,-5.0202,-5.1082,-5.2249,0.0,0.0,0.0,0.0,0.0,0.0,-4.8054,-4.7699,0.0,0.0,0.0,0.0,0.0,0.0,0.0,0.0,0.0,0.0,0.0,0.0,0.0,0.0,0.0,0.0,0.0,0.0,0.0,0.0,0.0,0.0,0.0,0.0,0.0,0.0,0.0,0.0,0.0,0.0,0.0,0.0,0.0,0.0,0.0,0.0,0.0,0.0,0.0,0.0,0.0,0.0,0.0,0.0,0.0,0.0,0.0,0.0,0.0,0.0,0.0,0.0,0.0,0.0,0.0,-5.2334,-5.5547,-5.8169,-5.9979,-5.9962,-5.9607,-5.8998,-5.6696,-5.4109,0.0,0.0,0.0,0.0,0.0,0.0,0.0,0.0,0.0,0.0,0.0,0.0,0.0,0.0,0.0,0.0,0.0,0.0,0.0,0.0,0.0,0.0,0.0,0.0,0.0,0.0,0.0,0.0,0.0,0.0,0.0,0.0,0.0,0.0,0.0,0.0,0.0,0.0,0.0,0.0,0.0,-5.1866,-5.2774,-5.1244,0.0,0.0,0.0,0.0,-4.843,-4.8325,0.0,0.0,0.0,0.0,0.0,0.0,0.0,0.0,0.0,0.0,0.0,0.0,0.0,0.0,0.0,0.0,0.0,0.0,0.0,0.0,0.0,0.0,0.0,0.0,0.0,0.0,0.0,0.0,0.0,0.0,0.0,0.0,0.0,0.0,0.0,0.0,0.0,0.0,0.0,0.0,0.0,0.0,0.0,0.0,0.0,0.0,0.0,0.0,0.0,0.0,0.0,0.0,0.0,0.0,0.0,0.0,-5.2215,-5.4059,-5.663,-5.986,-5.9471,-5.9062,-5.8964,-5.6224,-5.3636,0.0,0.0,0.0,0.0,0.0,0.0,0.0,0.0,0.0,0.0,0.0,0.0,0.0,0.0,0.0,0.0,0.0,0.0,0.0,0.0,0.0,0.0,0.0,0.0,0.0,0.0,0.0,0.0,0.0,0.0,0.0,0.0,0.0,0.0,0.0,0.0,0.0,0.0,0.0,0.0,0.0,-5.2234,-5.1166,-5.0122,-4.9199,0.0,0.0,-4.9965,-5.0727,-5.1894,0.0,0.0,0.0,0.0,0.0,0.0,0.0,0.0,0.0,0.0,0.0,0.0,0.0,0.0,0.0,0.0,0.0,0.0,0.0,0.0,0.0,0.0,0.0,0.0,0.0,0.0,0.0,0.0,0.0,0.0,0.0,0.0,0.0,0.0,0.0,0.0,0.0,0.0,0.0,0.0,0.0,0.0,0.0,0.0,0.0,0.0,0.0,0.0,0.0,0.0,0.0,0.0,0.0,0.0,0.0,-4.8378,-5.0791,-5.3542,-5.5912,-5.7813,-5.821,-5.8169,-5.7763,-5.4871,-5.2232,0.0,0.0,0.0,0.0,0.0,0.0,0.0,0.0,0.0,0.0,0.0,0.0,0.0,0.0,0.0,0.0,0.0,0.0,0.0,0.0,0.0,0.0,0.0,0.0,0.0,0.0,0.0,0.0,0.0,0.0,0.0,0.0,0.0,0.0,0.0,0.0,0.0,0.0,0.0,0.0,0.0,0.0,-5.1216,-5.1263,0.0,0.0,0.0,-4.9707,-4.9454,0.0,0.0,0.0,0.0,0.0,0.0,0.0,0.0,0.0,0.0,0.0,0.0,0.0,0.0,0.0,0.0,0.0,0.0,0.0,0.0,0.0,0.0,0.0,0.0,0.0,0.0,0.0,0.0,0.0,0.0,0.0,0.0,0.0,0.0,0.0,0.0,0.0,0.0,0.0,0.0,0.0,0.0,0.0,0.0,0.0,0.0,0.0,0.0,0.0,0.0,0.0,0.0,0.0,0.0,0.0,0.0,0.0,-4.9064,-5.2686,-5.5005,-5.5801,-5.6459,-5.6558,-5.599,-5.3115,0.0,0.0,0.0,0.0,0.0,0.0,0.0,0.0,0.0,0.0,0.0,0.0,0.0,0.0,0.0,0.0,0.0,0.0,0.0,0.0,0.0,0.0,0.0,0.0,0.0,0.0,0.0,-3.2961,0.0,0.0,0.0,0.0,0.0,0.0,0.0,0.0,0.0,0.0,0.0,0.0,0.0,0.0,-5.0723,-5.0533,-5.1369,-5.1614,0.0,0.0,-4.9519,-4.8887,-4.9742,-4.9753,0.0,0.0,0.0,0.0,0.0,0.0,0.0,0.0,0.0,0.0,0.0,0.0,0.0,0.0,0.0,0.0,0.0,0.0,0.0,0.0,0.0,0.0,0.0,0.0,0.0,0.0,0.0,0.0,0.0,0.0,0.0,0.0,0.0,0.0,0.0,0.0,0.0,0.0,0.0,0.0,0.0,0.0,0.0,0.0,0.0,0.0,0.0,0.0,0.0,0.0,0.0,0.0,0.0,0.0,0.0,-4.7517,-5.092,-5.3318,-5.4617,-5.4138,-5.3882,-5.3785,-5.1051,-4.8988,0.0,0.0,0.0,0.0,0.0,0.0,0.0,0.0,0.0,0.0,0.0,0.0,0.0,0.0,0.0,0.0,0.0,0.0,0.0,0.0,0.0,0.0,0.0,0.0,0.0,0.0,0.0,0.0,0.0,0.0,0.0,0.0,0.0,0.0,0.0,0.0,0.0,0.0,0.0,0.0,0.0,-4.8645,-4.797,-4.8991,-5.0012,0.0,0.0,-5.0329,-5.0905,-5.2771,-5.2621,-4.7949,0.0,0.0,0.0,0.0,0.0,0.0,0.0,0.0,0.0,0.0,0.0,0.0,0.0,0.0,0.0,0.0,0.0,0.0,0.0,0.0,0.0,0.0,0.0,0.0,0.0,0.0,0.0,0.0,0.0,0.0,0.0,0.0,0.0,0.0,0.0,0.0,0.0,0.0,0.0,0.0,0.0,0.0,0.0,0.0,0.0,0.0,0.0,0.0,0.0,0.0,0.0,0.0,0.0,-4.423,-4.5645,-4.9111,-5.135,-5.2303,-5.2736,-5.2765,-5.2333,-5.041,-4.8136,0.0,0.0,0.0,0.0,0.0,0.0,0.0,0.0,0.0,0.0,0.0,0.0,0.0,0.0,0.0,0.0,0.0,0.0,0.0,0.0,0.0,0.0,0.0,0.0,0.0,0.0,0.0,0.0,-3.6118,-3.6282,-3.6282,0.0,0.0,0.0,0.0,0.0,0.0,0.0,0.0,0.0,0.0,-4.744,-4.7958,-4.9659,0.0,0.0,-5.046,-5.0383,-5.0085,-5.0439,-4.9681,-4.6708,-4.6076,0.0,0.0,0.0,0.0,0.0,0.0,0.0,0.0,0.0,0.0,0.0,0.0,0.0,0.0,0.0,0.0,0.0,0.0,0.0,0.0,0.0,0.0,0.0,0.0,0.0,0.0,0.0,0.0,0.0,0.0,0.0,0.0,0.0,0.0,0.0,0.0,0.0,0.0,0.0,0.0,0.0,0.0,0.0,0.0,0.0,0.0,0.0,0.0,0.0,0.0,0.0,0.0,-4.2829,-4.4197,-4.764,-4.9766,-5.0383,-5.0991,-5.1061,-5.0517,-4.9221,-4.7126,0.0,0.0,0.0,0.0,0.0,0.0,0.0,0.0,0.0,0.0,0.0,0.0,0.0,0.0,0.0,0.0,0.0,0.0,0.0,0.0,0.0,0.0,0.0,0.0,0.0,0.0,0.0,0.0,-3.724,-3.7045,-3.6851,0.0,0.0,0.0,0.0,0.0,0.0,0.0,0.0,0.0,0.0,-4.695,-4.7863,-4.956,-5.042,-4.9734,-4.9486,-4.9202,-4.8774,-4.8297,-4.736,-4.5492,0.0,0.0,0.0,0.0,0.0,0.0,0.0,0.0,0.0,0.0,0.0,0.0,0.0,0.0,0.0,0.0,0.0,0.0,0.0,0.0,0.0,0.0,0.0,0.0,0.0,0.0,0.0,0.0,0.0,0.0,-3.9352,0.0,0.0,0.0,0.0,0.0,0.0,0.0,0.0,0.0,0.0,0.0,0.0,0.0,0.0,0.0,0.0,0.0,0.0,0.0,0.0,0.0,0.0,-4.2036,-4.3344,-4.6631,-4.864,-4.9269,-4.8715,-4.8458,-4.8339,-4.7081,-4.5772,-4.4456,0.0,0.0,0.0,0.0,0.0,0.0,0.0,0.0,0.0,0.0,0.0,0.0,0.0,0.0,0.0,0.0,0.0,0.0,0.0,0.0,0.0,0.0,0.0,0.0,0.0,0.0,-3.7404,-3.6881,-3.6282,0.0,0.0,0.0,0.0,0.0,0.0,0.0,0.0,0.0,0.0,-4.4781,-4.7264,-4.7324,-4.7936,-4.846,-4.8386,-4.7279,-4.6636,-4.7309,-4.7354,-4.6636,0.0,0.0,0.0,0.0,0.0,0.0,0.0,0.0,0.0,0.0,0.0,0.0,0.0,0.0,0.0,0.0,0.0,0.0,0.0,0.0,0.0,0.0,0.0,0.0,0.0,0.0,0.0,-3.8382,-3.8382,0.0,0.0,0.0,0.0,0.0,0.0,0.0,0.0,0.0,0.0,0.0,-3.8976,-3.8658,0.0,0.0,0.0,0.0,0.0,0.0,0.0,0.0,0.0,0.0,0.0,0.0,-4.1369,-4.2746,-4.5514,-4.7294,-4.7938,-4.7743,-4.7638,-4.7638,-4.6785,-4.5083,-4.2508,0.0,0.0,0.0,0.0,0.0,0.0,0.0,0.0,0.0,0.0,0.0,0.0,0.0,0.0,0.0,0.0,0.0,0.0,0.0,0.0,0.0,0.0,0.0,0.0,0.0,-3.7883,0.0,0.0,0.0,0.0,0.0,0.0,0.0,0.0,0.0,0.0,0.0,-3.8517,-4.0589,-4.2777,-4.4771,-4.6388,-4.7204,-4.7938,0.0,0.0,0.0,0.0,0.0,0.0,0.0,0.0,0.0,0.0,0.0,0.0,0.0,0.0,-4.3864,-4.2048,-4.2093,-4.2366,-4.2157,0.0,0.0,0.0,0.0,0.0,0.0,0.0,0.0,0.0,0.0,0.0,0.0,0.0,0.0,-3.8855,0.0,-3.8431,0.0,0.0,0.0,0.0,0.0,0.0,0.0,0.0,-3.9266,-3.9727,-3.9575,-3.9342,-3.913,0.0,-3.752,-3.6356,0.0,0.0,0.0,0.0,0.0,0.0,0.0,0.0,-4.1232,-4.2268,-4.4914,-4.6636,-4.7264,-4.7309,-4.7309,-4.7294,-4.6666,-4.5095,-4.2491,-4.0748,-3.9065,0.0,0.0,0.0,0.0,0.0,0.0,0.0,0.0,0.0,0.0,0.0,0.0,0.0,0.0,0.0,0.0,0.0,0.0,0.0,0.0,0.0,0.0,0.0,-3.739,0.0,0.0,0.0,0.0,0.0,0.0,0.0,0.0,0.0,-3.6085,-3.6964,-3.8353,-4.0364,-4.1966,-4.3383,-4.4574,0.0,0.0,0.0,0.0,0.0,0.0,0.0,-4.5005,-4.4152,-4.3853,-4.3808,-4.3973,-4.4721,-4.508,-4.4436,0.0,0.0,-4.3252,-4.3361,-4.3713,-4.3698,-4.4136,-4.4506,-4.4452,-4.4853,-4.5234,0.0,0.0,0.0,0.0,0.0,0.0,0.0,0.0,-4.0355,-4.0568,0.0,-3.9376,0.0,0.0,0.0,0.0,0.0,-3.7914,0.0,0.0,-3.9765,-3.9672,-3.8278,-3.8743,-3.8693,-3.8078,-3.7536,-3.6922,-3.6245,-3.6031,0.0,0.0,0.0,0.0,0.0,0.0,-4.144,-4.184,-4.4617,-4.6435,-4.7091,-4.7149,-4.7164,-4.7091,-4.648,-4.5511,-4.424,-4.2887,-4.136,-3.9384,-3.7506,0.0,0.0,0.0,0.0,0.0,0.0,0.0,0.0,0.0,0.0,0.0,0.0,0.0,0.0,0.0,0.0,0.0,0.0,0.0,0.0,-3.6315,0.0,0.0,0.0,0.0,0.0,0.0,0.0,0.0,0.0,0.0,-3.6702,-3.7949,-3.9273,-4.0446,0.0,0.0,0.0,0.0,-4.289,-4.3601,-4.3056,-4.3296,-4.5072,-4.5227,-4.5195,-4.5221,0.0,0.0,-4.5439,-4.5364,-4.5244,-4.4556,-4.5529,-4.6142,-4.5451,-4.5397,-4.5534,-4.5573,-4.569,-4.5889,-4.5909,-4.5918,-4.5995,-4.3835,0.0,0.0,0.0,0.0,-4.1039,-4.1032,-4.1679,-4.0424,-3.978,-3.9522,-3.9046,0.0,0.0,0.0,0.0,0.0,0.0,-3.8214,-3.8723,-4.0291,-4.0786,-4.0348,-4.0498,-4.0337,-3.976,-3.8843,-3.8276,-3.8051,-3.7202,-3.6405,-3.5589,0.0,0.0,0.0,0.0,-3.9223,-4.0963,-4.2324,-4.352,-4.4581,-4.4595,-4.4595,-4.4595,-4.3955,-4.3248,-4.2487,-4.1637,-4.0308,-3.8432,-3.7352,0.0,0.0,0.0,0.0,0.0,0.0,0.0,0.0,0.0,0.0,0.0,0.0,0.0,0.0,0.0,0.0,0.0,0.0,0.0,-3.4938,-3.3927,-3.3405,0.0,0.0,0.0,0.0,0.0,0.0,0.0,0.0,0.0,-3.6496,-3.6883,-3.7547,0.0,0.0,-3.9883,-4.0407,-4.1221,-4.227,-4.3347,-4.3259,0.0,0.0,-4.4043,-4.3499,-4.437,-4.5915,-4.68,-4.6142,-4.68,-4.7204,-4.6546,-4.6756,-4.6965,-4.6741,-4.6341,-4.6128,-4.6109,-4.6148,-4.6341,-4.6767,-4.6874,-4.713,-4.4835,-4.4468,-4.3302,-4.2809,-4.2708,-4.1904,-4.1957,-4.2511,-4.1489,-4.0814,-4.045,-3.981,-3.8843,-3.7687,-3.6784,0.0,0.0,0.0,-3.8894,-3.9898,-4.1091,-4.1555,-4.1288,-4.1275,-4.1,-4.0435,-3.9609,-3.9082,-3.8856,-3.7726,-3.6683,-3.5645,0.0,0.0,-3.621,-3.7277,-3.8553,-4.006,-4.115,-4.2288,-4.3462,-4.349,-4.349,-4.349,-4.3097,-4.2628,-4.2021,-4.1414,-4.0462,-3.9052,-3.7923,-3.659,0.0,0.0,0.0,0.0,0.0,0.0,0.0,0.0,0.0,0.0,0.0,-3.2973,-3.1889,0.0,0.0,0.0,-3.2977,-3.3584,-3.3807,-3.2999,0.0,0.0,0.0,0.0,0.0,0.0,0.0,-3.4701,-3.5767,-3.6601,-3.6691,-3.6872,-3.7362,-3.8269,-3.839,-3.8582,-3.9077,0.0,-4.0909,-4.2242,-4.2351,-4.2772,-4.4221,-4.3512,-4.3078,-4.3758,-4.4934,-4.5842,-4.5976,-4.6639,-4.7155,-4.7268,-4.7309,-4.7309,-4.7309,-4.698,-4.6668,-4.6711,-4.6711,-4.686,-4.7249,-4.7309,-4.7495,-4.5547,-4.5384,-4.3213,-4.2379,-4.2464,-4.2954,-4.313,-4.3049,-4.3037,-4.2986,-4.2798,-4.1197,-4.0062,-3.9322,-3.7307,0.0,-3.8726,-3.8789,-3.9519,-4.1014,-4.1676,-4.1693,-4.1114,-4.1184,-4.0937,-4.0425,-3.9936,-3.9433,-3.8957,-3.7801,-3.6973,-3.6455,-3.6826,-3.6708,-3.6284,-3.7763,-3.8702,-3.8886,-4.0435,-4.186,-4.3026,-4.3067,-4.3081,-4.3088,-4.3149,-4.2827,-4.2232,-4.169,-4.1087,-4.0429,-3.8726,-3.7235,-3.6006,0.0,0.0,0.0,0.0,0.0,0.0,0.0,0.0,0.0,0.0,0.0,0.0,0.0,0.0,0.0,-3.3113,0.0,-3.323,-3.3131,0.0,0.0,0.0,-3.2428,-3.2478,-3.389,-3.4901,-3.4851,0.0,0.0,-3.7262,-3.7726,-3.8291,-3.8856,-3.8856,-3.8605,-3.8078,-3.8617,-3.941,-4.0648,-4.0834,-4.1449,-4.3023,-4.3252,-4.3245,-4.3272,-4.3456,-4.4022,-4.4949,-4.5238,-4.5734,-4.6638,-4.7062,-4.7121,-4.7149,-4.7134,-4.7309,-4.7279,-4.7279,-4.7294,-4.7309,-4.7309,-4.7309,-4.6112,-4.5942,-4.4146,-4.3629,-4.4053,-4.4179,-4.3991,-4.3614,-4.3601,-4.3124,-4.2266,-4.0647,-3.8986,-3.7276,-3.6817,-3.6782,-3.715,-3.7585,-3.7953,-3.8412,-3.976,-4.005,-3.952,-4.0277,-4.0425,-3.991,-3.976,-3.9622,-3.9446,-3.8354,-3.7538,-3.696,-3.624,-3.5605,-3.513,-3.5488,-3.6134,-3.7028,-3.745,-3.8196,-3.9277,-3.9329,-3.9561,-3.9999,-4.0011,-3.9947,-3.9756,-3.9203,-3.8624,-3.8058,-3.7201,-3.6238,-3.5076,-3.2883,0.0,0.0,0.0,0.0,0.0,0.0,0.0,0.0,0.0,-3.1244,-2.9127,0.0,-3.047,0.0,-3.172,-3.3035,-3.4186,-3.3571,0.0,0.0,-3.4211,-3.4254,-3.4668,-3.5843,-3.6433,-3.6019,-3.7048,-3.7814,-3.7814,-3.8316,-3.8868,-3.9396,-3.8755,-3.8165,-3.804,-3.8868,-3.9586,-3.9982,-4.063,-4.1331,-4.1737,-4.2287,-4.2515,-4.2088,-4.2821,-4.3585,-4.3882,-4.3975,-4.4069,-4.4396,-4.5207,-4.5779,-4.5869,-4.6594,-4.7222,-4.7309,-4.7309,-4.7309,-4.7309,-4.7309,-4.7309,-4.4003,-4.3929,-4.2958,-4.27,-4.2759,-4.2759,-4.2449,-4.1958,-4.1778,-4.1215,-4.0323,-3.9218,-3.8091,-3.6965,-3.6673,-3.6753,-3.6987,-3.7244,-3.7549,-3.7798,-3.8458,-3.8503,-3.7914,-3.8335,-3.8269,-3.7767,-3.7767,-3.7755,-3.7707,-3.6625,-3.6271,-3.6541,-3.5501,-3.5011,-3.5056,-3.4839,-3.5152,-3.5994,-3.6496,-3.7197,-3.7965,-3.8002,-3.804,-3.8115,-3.8128,-3.8052,-3.7813,-3.7211,-3.6724,-3.6458,-3.5931,-3.524,-3.4387,-3.2704,-3.1386,0.0,0.0,0.0,0.0,0.0,0.0,0.0,0.0,0.0,0.0,0.0,-3.0821,-3.1562,-3.2441,-3.3445,-3.4613,-3.4399,-3.4525,-3.5366,-3.568,-3.6031,-3.6523,-3.7412,-3.7863,-3.7574,-3.8228,-3.8755,-3.8768,-3.9032,-3.9346,-3.9647,-3.9145,-3.8755,-3.8806,-3.9333,-3.9697,-3.9722,-4.0212,-4.0601,-4.0614,-4.0938,-4.1105,-4.0871,-4.1319,-4.1972,-4.2544,-4.2655,-4.2834,-4.3409,-4.4069,-4.4549,-4.4595,-4.5598,-4.6447,-4.6535,-4.6916,-4.7266,-4.7309,-4.7309,-4.7309,-4.1181,-4.1181,-4.0988,-4.0604,-4.0204,-3.9881,-3.9652,-3.9478,-3.9113,-3.8522,-3.7803,-3.7388,-3.7056,-3.6846,-3.637,-3.6425,-3.6857,-3.6813,-3.707,-3.7482,-3.7211,-3.6849,-3.6347,-3.6095,-3.577,-3.53,-3.5288,-3.5288,-3.5266,-3.4291,-3.4364,-3.5357,-3.448,-3.4414,-3.5105,-3.4666,-3.4769,-3.5395,-3.6458,-3.7211,-3.7676,-3.7626,-3.74,-3.6998,-3.6973,-3.6832,-3.6417,-3.583,-3.5495,-3.5483,-3.4981,-3.4537,-3.411,-3.298,-3.2139,0.0,-3.0633,0.0,0.0,0.0,0.0,0.0,0.0,0.0,0.0,-3.1625,-3.2353,-3.3872,-3.406,-3.4361,-3.4977,-3.542,-3.5968,-3.6568,-3.7073,-3.76,-3.8078,-3.863,-3.8969,-3.9032,-3.9396,-3.9697,-3.9659,-3.9697,-3.9697,-3.9697,-3.9647,-3.9584,-3.9659,-3.9672,-3.9697,-3.9697,-3.9697,-3.9823,-3.9798,-3.9799,-3.9761,-3.9749,-3.9839,-4.007,-4.1182,-4.1369,-4.1703,-4.2641,-4.3074,-4.3266,-4.3266,-4.4303,-4.5101,-4.5161,-4.6121,-4.6975,-4.7266,-4.7309,-4.7309,-4.1181,-4.1052,-3.9703,-3.9006,-3.8792,-3.6701,-3.6908,-3.8649,-3.8559,-3.7471,-3.5823,-3.5969,-3.5384,-3.419,-3.4057,-3.4057,-3.4117,-3.3828,-3.3718,-3.3829,-3.4233,-3.4365,-3.4306,-3.51,-3.5389,-3.53,-3.5288,-3.5288,-3.5277,-3.4291,-3.3713,-3.3503,-3.2542,-3.2427,-3.3204,0.0,0.0,0.0,-3.5483,-3.5859,-3.5947,-3.5567,-3.5516,-3.5784,-3.5809,0.0,-3.6367,-3.5843,-3.5495,-3.5483,-3.4969,0.0,0.0,0.0,0.0,0.0,0.0,0.0,0.0,0.0,0.0,0.0,-3.2102,-3.1725,-3.2051,-3.2893,-3.3746,-3.45,-3.4931,-3.5596,-3.6621,-3.681,-3.7086,-3.7638,-3.8216,-3.8642,-3.8718,-3.9195,-3.9534,-3.9534,-3.9634,-3.9697,-3.9697,-3.9697,-3.9697,-3.9697,-3.9697,-3.9697,-3.9697,-3.9697,-3.9697,-3.9697,-3.9697,-3.9697,-3.9697,-3.9697,-3.9697,-3.9697,-3.9697,-3.9788,-4.007,-4.0134,-4.0083,-4.0554,-4.1269,-4.1985,-4.1985,-4.2965,-4.3882,-4.3834,-4.4886,-4.6062,-4.7062,-4.7309,-4.7309,-3.8608,0.0,-3.7698,-3.7185,0.0,-3.5366,-3.5134,-3.5918,-3.5939,-3.5323,-3.4298,-3.4521,-3.4143,-3.3408,-3.3203,-3.2998,-3.2783,-3.2363,-3.2158,-3.219,-3.2283,-3.2423,-3.2626,-3.2976,-3.3088,-3.3155,-3.3155,-3.3029,-3.2756,-3.2083,-3.1827,-3.1991,-3.1265,-3.1451,-3.2483,-3.2471,-3.3339,-3.5094,-3.5357,-3.5621,-3.5931,-3.568,-3.5529,-3.5495,0.0,0.0,0.0,0.0,0.0,0.0,0.0,0.0,0.0,0.0,0.0,-3.4274,-3.3508,-3.3031,-3.3043,-3.3282,-3.3408,-3.3289,-3.2652,-3.2572,-3.3364,-3.3864,-3.4267,-3.4548,-3.4817,-3.5294,-3.6101,-3.7009,-3.7826,-3.8379,-3.8944,-3.9334,-3.9308,-3.9509,-3.9697,-3.9697,-3.9697,-3.9697,-3.9697,-3.9697,-3.9697,-3.9697,-3.9697,-3.9697,-3.9697,-3.9697,-3.9697,-3.9697,-3.9697,-3.9697,-3.9697,-3.9697,-3.9697,-3.9697,-3.9697,-3.9697,-3.9697,-3.9697,-3.9697,-3.9749,-4.0275,-4.0655,-4.0743,-4.169,-4.2544,-4.2689,-4.3598,-4.4698,-4.5712,-4.6606,-4.7309,-3.6025,-3.6025,-3.6025,-3.5781,-3.5361,-3.4892,-3.4209,-3.3418,0.0,0.0,0.0,-3.3389,-3.3418,-3.3335,-3.3057,-3.2676,-3.2256,-3.1836,-3.1592,-3.1494,-3.1084,-3.1074,-3.1387,-3.1055,-3.0898,-3.0898,-3.0898,-3.0644,-3.0195,-2.9766,-2.9933,-3.0541,-3.0192,-3.0607,-3.1876,-3.2191,-3.3183,-3.4826,-3.5102,-3.5369,-3.5886,-3.6025,-3.5855,-3.5357,-3.5357,-3.5144,-3.4705,-3.468,-3.468,-3.468,-3.468,-3.4627,-3.452,-3.4475,-3.4537,-3.4624,-3.4624,-3.4636,-3.4636,-3.5046,-3.4707,-3.3371,-3.2704,-3.2848,-3.42,-3.4126,-3.403,-3.403,-3.403,-3.4254,-3.4881,-3.6313,-3.754,-3.8181,-3.865,-3.8868,-3.8921,-3.8933,-3.8752,-3.8921,-3.9037,-3.9297,-3.9245,-3.953,-3.9697,-3.9697,-3.9697,-3.9697,-3.9697,-3.9697,-3.9697,-3.9697,-3.9697,-3.9697,-3.9697,-3.9697,-3.9697,-3.9697,-3.9697,-3.9697,-3.9697,-3.9697,-3.9697,-3.9697,-3.9697,-3.9749,-3.9788,-4.0605,-4.1219,-4.1269,-4.2221,-4.3166,-4.3754,-4.5287,-4.6544,-3.6025,-3.6025,-3.6025,-3.5781,-3.5361,-3.4892,-3.4219,-3.3408,-3.3047,-3.2881,-3.29,-3.3262,-3.3418,-3.3418,-3.3359,-3.3105,-3.2685,-3.2266,-3.1875,0.0,-3.1084,-3.0918,-3.0976,-3.0918,-3.0898,-3.0898,-3.0889,-3.0654,-3.0195,-2.9766,-2.9512,-2.9179,-2.8755,-2.926,-3.0566,-3.1724,-3.2459,-3.278,-3.3442,-3.3803,-3.3911,-3.4613,-3.4914,-3.4839,-3.4773,-3.4813,-3.4693,-3.4693,-3.468,-3.468,-3.468,-3.44,-3.3719,-3.366,-3.3875,-3.4414,-3.4462,-3.4462,-3.445,-3.4534,-3.3962,-3.2642,-3.2348,-3.2414,-3.2601,-3.2603,-3.2593,-3.2593,-3.2593,-3.2977,-3.3876,-3.4289,-3.4973,-3.5737,-3.5899,-3.5945,-3.6065,-3.6108,-3.612,-3.6174,-3.7091,-3.7808,-3.8031,-3.8908,-3.9581,-3.9697,-3.9697,-3.9697,-3.9697,-3.9697,-3.9697,-3.9697,-3.9697,-3.9697,-3.9697,-3.9697,-3.9697,-3.9697,-3.9697,-3.9697,-3.9697,-3.9697,-3.9697,-3.9697,-3.9697,-3.9697,-3.9697,-3.9788,-4.0032,-4.0084,-4.0728,-4.1234,-4.145,-4.2859,-4.4398,-3.6025,-3.6025,-3.6025,-3.5771,-3.5342,-3.4648,-3.4004,-3.3428,-3.3223,-3.3135,-3.3154,-3.334,-3.3418,-3.3408,-3.3184,-3.2725,-3.208,-3.167,-3.124,-3.0801,-3.0605,-3.0644,-3.0879,-3.0898,-3.0898,-3.0879,-3.0635,-3.0283,-2.9844,-2.9424,-2.8994,-2.8594,-2.8379,-2.8591,-2.9207,-2.9807,-3.012,-3.0162,-3.1918,-3.2848,-3.2837,-3.3213,-3.3385,-3.3385,-3.3385,-3.3397,-3.3397,-3.3397,-3.3397,-3.3385,-3.3385,-3.3238,-3.2874,-3.2848,-3.3001,-3.3231,-3.3254,-3.3254,-3.3254,-3.2605,-3.1887,-3.1265,-3.0514,-3.011,-3.012,-3.0824,-3.1214,-3.1224,-3.1224,-3.1614,-3.2651,-3.3334,-3.4213,-3.5187,-3.5288,-3.5288,-3.5288,-3.5288,-3.5288,-3.5343,-3.589,-3.6595,-3.7412,-3.8072,-3.8908,-3.9478,-3.9697,-3.9697,-3.9697,-3.9697,-3.9697,-3.9697,-3.9697,-3.9697,-3.9697,-3.9697,-3.9697,-3.9697,-3.9697,-3.9697,-3.9697,-3.9697,-3.9697,-3.9697,-3.9697,-3.9697,-3.9685,-3.9433,-3.9295,-3.9233,-3.917,-3.9401,-3.9802,-4.0781,-4.2253,-3.6025,-3.6016,-3.5918,-3.5576,-3.5039,-3.4258,-3.373,-3.3428,-3.3418,-3.3418,-3.3418,-3.3418,-3.3418,-3.3389,-3.3076,-3.2471,-3.1699,-3.1328,-3.0889,-3.0391,-3.0351,-3.0547,-3.0859,-3.0898,-3.0898,-3.084,-3.041,-2.999,-2.956,-2.9141,-2.8701,-2.834,-2.8301,-2.8301,-2.8301,-2.8301,-2.8301,-2.8451,-3.0369,-3.152,-3.1825,-3.2129,-3.228,-3.228,-3.2331,-3.228,-3.228,-3.228,-3.228,-3.228,-3.228,-3.2129,-3.1876,-3.1836,-3.1876,-3.1825,-3.1876,-3.1825,-3.1774,-3.0628,-2.9869,-2.9817,-2.89,-2.8291,-2.8398,-2.926,-2.9869,-2.9869,-2.99,-3.0355,-3.1231,-3.2242,-3.3367,-3.4183,-3.4303,-3.4146,-3.4303,-3.4314,-3.4314,-3.4314,-3.4581,-3.5288,-3.6217,-3.6811,-3.7583,-3.8804,-3.9193,-3.9297,-3.9581,-3.9697,-3.9697,-3.9697,-3.9697,-3.9697,-3.9697,-3.9697,-3.9697,-3.9697,-3.9697,-3.9697,-3.9697,-3.9697,-3.9697,-3.9697,-3.9697,-3.9609,-3.9509,-3.9195,-3.8881,-3.8756,-3.8364,-3.8077,-3.8673,-3.9167,-4.0456,-3.6016,-3.5957,-3.5605,-3.4961,-3.4199,-3.3701,-3.3467,-3.3428,-3.3418,-3.3418,-3.3418,-3.3418,-3.3418,-3.3418,-3.3359,-3.2871,-3.2109,-3.206,-3.1582,-3.0869,-3.083,-3.085,-3.0889,-3.0898,-3.0898,-3.084,-3.042,-2.998,-2.956,-2.9111,-2.8691,-2.834,-2.8301,-2.8301,-2.8301,-2.8301,-2.8301,-2.8301,-2.8548,-2.926,-3.0473,-3.1673,-3.228,-3.228,-3.228,-3.228,-3.2129,-3.228,-3.228,-3.228,-3.223,-3.1724,-3.068,-3.0473,-3.0463,-3.0463,-3.0473,-3.0473,-3.0421,-2.926,-2.8548,-2.8495,-2.8408,-2.832,-2.832,-2.8417,-2.8504,-2.8637,-2.8869,-2.9352,-2.9734,-3.038,-3.1014,-3.1629,-3.1614,-3.1276,-3.1498,-3.1334,-3.1276,-3.1334,-3.2597,-3.3406,-3.3845,-3.4891,-3.6162,-3.7743,-3.7967,-3.8413,-3.9465,-3.9697,-3.9697,-3.9697,-3.9697,-3.9697,-3.9697,-3.9697,-3.9697,-3.9697,-3.9697,-3.9697,-3.9697,-3.9697,-3.9697,-3.9697,-3.9634,-3.9471,-3.9157,-3.8919,-3.863,-3.814,-3.7748,-3.7457,-3.8018,-3.8206,-3.9237,-3.5654,-3.5605,-3.5166,-3.4639,-3.4053,-3.3603,-3.3418,-3.3418,-3.3418,-3.3418,-3.3418,-3.3418,-3.3418,-3.3398,-3.3174,-3.2725,-3.2229,-3.1894,-3.1465,-3.0918,-3.0898,-3.0898,-3.0898,-3.0898,-3.0898,-3.085,-3.042,-2.999,-2.9521,-2.8887,-2.8457,-2.831,-2.8301,-2.8301,-2.8301,-2.8301,-2.8301,-2.8301,-2.8301,-2.8591,-2.9112,-2.966,-2.9964,-2.9911,-2.9964,-2.9911,-2.9911,-2.9911,-2.9911,-2.9964,-2.9922,-2.9713,-2.9154,-2.9102,-2.9102,-2.9102,-2.9102,-2.9102,-2.9102,-2.8591,-2.8301,-2.8301,-2.8525,-2.8662,-2.8682,-2.8896,-2.9098,-2.9098,-2.8984,-2.9092,-2.9531,-2.9951,-3.0381,-3.0791,-3.0898,-3.0898,-3.0898,-3.0898,-3.0898,-3.0947,-3.1383,-3.2207,-3.3077,-3.4414,-3.5836,-3.7133,-3.7518,-3.8019,-3.9413,-3.9697,-3.9697,-3.9697,-3.9697,-3.9697,-3.9697,-3.9697,-3.9697,-3.9697,-3.9697,-3.9697,-3.9697,-3.9697,-3.9697,-3.9685,-3.9433,-3.9207,-3.8956,-3.8241,-3.7751,-3.7437,-3.7098,-3.6833,-3.7062,-3.7116,-3.7848,-3.5205,-3.5127,-3.4717,-3.4287,-3.3867,-3.3555,-3.3418,-3.3418,-3.3418,-3.3418,-3.3418,-3.3418,-3.3418,-3.3359,-3.2988,-3.2568,-3.2209,-3.1719,-3.1289,-3.0928,-3.0898,-3.0898,-3.0898,-3.0898,-3.0898,-3.082,-3.042,-2.9922,-2.9375,-2.8672,-2.8301,-2.8301,-2.8301,-2.8301,-2.8301,-2.8301,-2.8301,-2.8301,-2.8301,-2.8301,-2.8291,-2.8301,-2.8301,-2.8301,-2.8301,-2.8301,-2.8301,-2.8301,-2.8301,-2.8291,-2.8301,-2.8301,-2.8301,-2.8301,-2.8301,-2.8301,-2.8301,-2.8301,-2.8301,-2.8301,-2.835,-2.8467,-2.876,-2.8965,-2.9121,-2.9385,-2.956,-2.9587,-2.9385,-2.9443,-2.9707,-3.0137,-3.0527,-3.085,-3.0898,-3.0898,-3.0898,-3.0898,-3.0898,-3.0898,-3.1005,-3.1276,-3.2416,-3.3754,-3.5123,-3.6487,-3.6865,-3.7701,-3.9077,-3.9401,-3.9129,-3.9581,-3.9697,-3.9697,-3.9697,-3.9697,-3.9697,-3.9697,-3.9697,-3.9697,-3.9697,-3.9697,-3.9534,-3.9383,-3.9057,-3.8642,-3.8253,-3.755,-3.7098,-3.6923,-3.6707,-3.643,-3.6546,-3.6452,-3.693,-3.4736,-3.4658,-3.4277,-3.3857,-3.3447,-3.3428,-3.3418,-3.3418,-3.3418,-3.3418,-3.3418,-3.3418,-3.3418,-3.3379,-3.2959,-3.2559,-3.2139,-3.1689,-3.1279,-3.0908,-3.0898,-3.0898,-3.0898,-3.0898,-3.0898,-3.0859,-3.0478,-2.9824,-2.9023,-2.8516,-2.8301,-2.8301,-2.8301,-2.8301,-2.8301,-2.8301,-2.8301,-2.8301,-2.8301,-2.8301,-2.8301,-2.8301,-2.8301,-2.8301,-2.8301,-2.8301,-2.8301,-2.8301,-2.8301,-2.8301,-2.8301,-2.8301,-2.8301,-2.8301,-2.8301,-2.8301,-2.8301,-2.8301,-2.8301,-2.8301,-2.8457,-2.8809,-2.8926,-2.9111,-2.9502,-2.9639,-2.9763,-2.96,-2.9941,-3.0127,-3.0195,-3.0527,-3.081,-3.0879,-3.0898,-3.0898,-3.0898,-3.0898,-3.0898,-3.0898,-3.0898,-3.0995,-3.117,-3.2254,-3.3744,-3.4958,-3.5409,-3.6391,-3.8635,-3.8465,-3.8413,-3.9297,-3.9697,-3.9697,-3.9697,-3.9697,-3.9697,-3.9697,-3.9697,-3.9659,-3.9685,-3.9647,-3.9358,-3.9057,-3.8755,-3.8266,-3.755,-3.7111,-3.6933,-3.6744,-3.6581,-3.6417,-3.6417,-3.6417,-3.6769,-3.4131,-3.3867,-3.3721,-3.3564,-3.3428,-3.3418,-3.3418,-3.3418,-3.3418,-3.3418,-3.3418,-3.3418,-3.3418,-3.3389,-3.2695,-3.2314,-3.217,-3.1445,-3.1035,-3.0898,-3.0898,-3.0898,-3.0898,-3.0898,-3.0898,-3.0869,-3.0723,-3.0185,-2.9336,-2.8643,-2.8301,-2.8301,-2.8301,-2.8301,-2.8301,-2.8301,-2.8301,-2.8301,-2.8301,-2.8301,-2.8301,-2.8301,-2.8301,-2.8301,-2.8301,-2.8301,-2.8301,-2.8301,-2.8301,-2.8301,-2.8301,-2.8301,-2.8301,-2.8301,-2.8301,-2.8301,-2.8301,-2.8301,-2.8301,-2.8301,-2.8476,-2.8877,-2.9189,-2.9502,-2.9922,-3.0234,-3.042,-3.0439,-3.0518,-3.0635,-3.0664,-3.0801,-3.0898,-3.0898,-3.0898,-3.0898,-3.0898,-3.0898,-3.0898,-3.0898,-3.0898,-3.0898,-3.1005,-3.1383,-3.2264,-3.3575,-3.3912,-3.5277,-3.7358,-3.7755,-3.7849,-3.9193,-3.9697,-3.9697,-3.9697,-3.9697,-3.9697,-3.9697,-3.9659,-3.9433,-3.9358,-3.9207,-3.8944,-3.8429,-3.8191,-3.7901,-3.7136,-3.6883,-3.6669,-3.6581,-3.6417,-3.6417,-3.6417,-3.6417,-3.6593,-3.3691,-3.3437,-3.3418,-3.3418,-3.3418,-3.3418,-3.3418,-3.3418,-3.3418,-3.3418,-3.3418,-3.3418,-3.335,-3.3125,-3.248,-3.208,-3.1894,-3.1211,-3.0898,-3.0898,-3.0898,-3.0898,-3.0898,-3.0898,-3.0898,-3.0859,-3.0732,-3.0332,-2.9746,-2.8906,-2.8516,-2.8496,-2.8379,-2.8301,-2.8301,-2.8301,-2.8301,-2.8301,-2.8301,-2.8301,-2.8301,-2.8301,-2.8301,-2.8301,-2.8301,-2.8301,-2.8301,-2.8301,-2.8301,-2.8301,-2.8301,-2.8301,-2.8301,-2.8301,-2.8301,-2.8301,-2.8301,-2.8301,-2.8301,-2.8301,-2.8535,-2.9072,-2.9404,-2.9795,-3.0351,-3.0713,-3.0869,-3.0898,-3.0898,-3.0898,-3.0898,-3.0889,-3.0898,-3.0898,-3.0898,-3.0898,-3.0898,-3.0898,-3.0898,-3.0898,-3.0898,-3.0898,-3.1005,-3.1383,-3.2092,-3.3021,-3.3145,-3.417,-3.6151,-3.6368,-3.6584,-3.7991,-3.8582,-3.8804,-3.9025,-3.9193,-3.9645,-3.9697,-3.9484,-3.9284,-3.9057,-3.8806,-3.8429,-3.7889,-3.7487,-3.7186,-3.6933,-3.6631,-3.6493,-3.643,-3.6417,-3.6417,-3.6417,-3.6417,-3.6546,-3.3428,-3.3418,-3.3418,-3.3418,-3.3418,-3.3418,-3.3418,-3.3418,-3.3418,-3.3418,-3.3418,-3.3418,-3.3213,-3.2803,-3.2373,-3.1953,-3.1543,-3.1094,-3.0898,-3.0898,-3.0898,-3.0898,-3.0898,-3.0898,-3.0898,-3.0869,-3.043,-3.0225,-3.0098,-2.9336,-2.8916,-2.8818,-2.8516,-2.835,-2.8301,-2.8301,-2.8301,-2.8301,-2.8301,-2.8301,-2.8301,-2.8301,-2.8301,-2.8301,-2.8301,-2.8301,-2.8301,-2.8301,-2.8301,-2.8301,-2.8301,-2.8301,-2.8301,-2.8301,-2.8301,-2.8301,-2.8301,-2.8301,-2.8301,-2.8301,-2.8652,-2.9336,-2.956,-2.9922,-3.0644,-3.0859,-3.0898,-3.0898,-3.0898,-3.0898,-3.0898,-3.0898,-3.0898,-3.0898,-3.0898,-3.0898,-3.0898,-3.0898,-3.0898,-3.0898,-3.0898,-3.0898,-3.116,-3.1767,-3.254,-3.2701,-3.2861,-3.335,-3.4847,-3.4448,-3.4125,-3.5508,-3.7091,-3.8072,-3.836,-3.8699,-3.9258,-3.9647,-3.9346,-3.912,-3.8843,-3.8617,-3.8078,-3.755,-3.7174,-3.6933,-3.6732,-3.6468,-3.6455,-3.6417,-3.6417,-3.643,-3.6417,-3.6417,-3.6417,-3.3418,-3.3418,-3.3418,-3.3418,-3.3418,-3.3418,-3.3418,-3.3418,-3.3418,-3.3418,-3.3418,-3.3418,-3.3193,-3.2773,-3.2353,-3.1934,-3.1504,-3.1094,-3.0898,-3.0898,-3.0898,-3.0898,-3.0898,-3.0898,-3.0898,-3.082,-3.042,-3.0205,-3.0107,-2.9648,-2.9228,-2.8945,-2.8809,-2.8574,-2.833,-2.8301,-2.8301,-2.8301,-2.8301,-2.8301,-2.8301,-2.8301,-2.8301,-2.8301,-2.8301,-2.8301,-2.8301,-2.8301,-2.8301,-2.8301,-2.8301,-2.8301,-2.8301,-2.8301,-2.8301,-2.8301,-2.8301,-2.8301,-2.8301,-2.833,-2.8672,-2.9421,-2.9636,-3.0,-3.0732,-3.0898,-3.0898,-3.0898,-3.0898,-3.0898,-3.0898,-3.0898,-3.0898,-3.0898,-3.0898,-3.0898,-3.0898,-3.0898,-3.0898,-3.0898,-3.0898,-3.0898,-3.0947,-3.1556,-3.172,-3.171,-3.171,-3.2264,-3.3247,-3.336,-3.4236,-3.6325,-3.7198,-3.769,-3.836,-3.8921,-3.9413,-3.9622,-3.9358,-3.9044,-3.8781,-3.8391,-3.7839,-3.745,-3.7109,-3.6845,-3.6619,-3.6543,-3.6631,-3.6518,-3.6531,-3.6505,-3.643,-3.6417,-3.6417,-3.3418,-3.3418,-3.3418,-3.3418,-3.3418,-3.3418,-3.3418,-3.3418,-3.3418,-3.3418,-3.3418,-3.3418,-3.3096,-3.2598,-3.2285,-3.1836,-3.1289,-3.0996,-3.0898,-3.0898,-3.0898,-3.0898,-3.0898,-3.0898,-3.0898,-3.085,-3.0586,-3.0449,-3.043,-3.0019,-2.9658,-2.9434,-2.9238,-2.8945,-2.8564,-2.8516,-2.8467,-2.833,-2.8301,-2.8301,-2.8301,-2.8301,-2.8301,-2.8301,-2.8301,-2.8301,-2.8301,-2.8301,-2.8301,-2.8301,-2.8301,-2.8301,-2.8301,-2.8301,-2.8301,-2.8301,-2.831,-2.835,-2.8486,-2.8564,-2.8896,-2.9609,-2.9805,-3.0117,-3.0723,-3.0898,-3.0898,-3.0898,-3.0898,-3.0898,-3.0898,-3.0898,-3.0898,-3.0898,-3.0898,-3.0898,-3.0898,-3.0898,-3.0898,-3.0898,-3.0898,-3.0898,-3.0898,-3.0898,-3.0898,-3.0898,-3.0947,-3.1054,-3.2035,-3.2264,-3.3912,-3.5387,-3.6042,-3.6984,-3.8477,-3.9141,-3.9594,-3.9584,-3.9408,-3.912,-3.8843,-3.8379,-3.7852,-3.7751,-3.745,-3.7437,-3.7249,-3.7186,-3.7186,-3.6948,-3.6772,-3.6795,-3.6795,-3.6493,-3.643,-3.3418,-3.3418,-3.3418,-3.3418,-3.3418,-3.3418,-3.3418,-3.3418,-3.3418,-3.3418,-3.3418,-3.3418,-3.2969,-3.2324,-3.2238,-3.1738,-3.1016,-3.0918,-3.0898,-3.0898,-3.0898,-3.0898,-3.0898,-3.0898,-3.0898,-3.0889,-3.0859,-3.085,-3.0791,-3.043,-3.0215,-3.0068,-2.9736,-2.9394,-2.9033,-2.8945,-2.8769,-2.8437,-2.8369,-2.8359,-2.831,-2.8301,-2.8301,-2.8301,-2.8301,-2.8301,-2.8301,-2.8301,-2.8301,-2.8301,-2.8301,-2.8301,-2.8301,-2.8301,-2.8301,-2.8359,-2.834,-2.8594,-2.8848,-2.8955,-2.9287,-3.001,-3.0146,-3.0391,-3.0801,-3.0898,-3.0898,-3.0898,-3.0898,-3.0898,-3.0898,-3.0898,-3.0898,-3.0898,-3.0898,-3.0898,-3.0898,-3.0898,-3.0898,-3.0898,-3.0898,-3.0898,-3.0898,-3.0898,-3.0898,-3.0898,-3.0898,-3.1064,-3.117,-3.1604,-3.1988,-3.3417,-3.5442,-3.6984,-3.8699,-3.9297,-3.9697,-3.9647,-3.9521,-3.932,-3.9032,-3.8567,-3.8052,-3.7952,-3.7939,-3.7952,-3.7877,-3.7713,-3.7676,-3.76,-3.7437,-3.7299,-3.7123,-3.6958,-3.6832,-3.3418,-3.3418,-3.3418,-3.3418,-3.3418,-3.3418,-3.3418,-3.3418,-3.3418,-3.3418,-3.3418,-3.3418,-3.2959,-3.2226,-3.2229,-3.1709,-3.1084,-3.0898,-3.0898,-3.0898,-3.0898,-3.0898,-3.0898,-3.0898,-3.0898,-3.0898,-3.0898,-3.0898,-3.0879,-3.0742,-3.0518,-3.0205,-3.0107,-2.9824,-2.9463,-2.9404,-2.918,-2.8818,-2.875,-2.8574,-2.834,-2.8301,-2.8301,-2.8301,-2.8301,-2.8301,-2.8301,-2.8301,-2.8301,-2.8301,-2.8301,-2.8301,-2.832,-2.834,-2.8476,-2.8701,-2.8769,-2.8955,-2.9297,-2.9394,-2.9668,-3.0107,-3.0254,-3.0391,-3.084,-3.0898,-3.0898,-3.0898,-3.0898,-3.0898,-3.0898,-3.0898,-3.0898,-3.0898,-3.0898,-3.0898,-3.0898,-3.0898,-3.0898,-3.0898,-3.0898,-3.0898,-3.0898,-3.0898,-3.0898,-3.0898,-3.0898,-3.0898,-3.1005,-3.1662,-3.2311,-3.4292,-3.6162,-3.7583,-3.8739,-3.9349,-3.9685,-3.9697,-3.9647,-3.9622,-3.9346,-3.9032,-3.8504,-3.8115,-3.8266,-3.8316,-3.8128,-3.7939,-3.8015,-3.8253,-3.799,-3.7814,-3.7789,-3.7651,-3.7575,-3.3418,-3.3418,-3.3418,-3.3418,-3.3418,-3.3418,-3.3418,-3.3418,-3.3418,-3.3418,-3.3418,-3.3418,-3.3047,-3.2451,-3.2246,-3.1807,-3.1191,-3.0967,-3.0898,-3.0898,-3.0898,-3.0898,-3.0898,-3.0898,-3.0898,-3.0898,-3.0898,-3.0898,-3.0889,-3.0898,-3.0732,-3.0557,-3.0488,-3.0254,-2.9863,-2.9814,-2.9629,-2.9248,-2.9033,-2.8779,-2.8574,-2.8379,-2.8301,-2.8301,-2.8301,-2.835,-2.8516,-2.8564,-2.8486,-2.8389,-2.8457,-2.8555,-2.8574,-2.874,-2.8935,-2.9189,-2.9189,-2.9385,-2.9726,-2.9834,-3.0049,-3.0391,-3.0488,-3.0625,-3.083,-3.0898,-3.0898,-3.0898,-3.0898,-3.0898,-3.0898,-3.0898,-3.0898,-3.0898,-3.0898,-3.0898,-3.0898,-3.0898,-3.0898,-3.0898,-3.0898,-3.0898,-3.0898,-3.0898,-3.0898,-3.0898,-3.0898,-3.0898,-3.1005,-3.1883,-3.2804,-3.4348,-3.5277,-3.6217,-3.7317,-3.8031,-3.8687,-3.8856,-3.9697,-3.9697,-3.9584,-3.9371,-3.9132,-3.8768,-3.873,-3.868,-3.858,-3.8592,-3.8818,-3.8881,-3.8567,-3.8379,-3.8366,-3.8266,-3.8216,-3.3418,-3.3418,-3.3418,-3.3418,-3.3418,-3.3418,-3.3418,-3.3418,-3.3418,-3.3418,-3.3418,-3.3418,-3.3154,-3.2783,-3.2334,-3.1924,-3.1475,-3.1064,-3.0918,-3.0898,-3.0898,-3.0898,-3.0898,-3.0898,-3.0898,-3.0898,-3.0898,-3.0898,-3.0898,-3.0898,-3.0898,-3.082,-3.084,-3.0664,-3.0342,-3.0264,-3.0039,-2.9658,-2.9355,-2.9141,-2.8984,-2.874,-2.8613,-2.8594,-2.8584,-2.8711,-2.8916,-2.8975,-2.8838,-2.8457,-2.8789,-2.8965,-2.9043,-2.9375,-2.956,-2.9619,-2.9648,-2.9814,-3.0176,-3.0283,-3.042,-3.0752,-3.084,-3.0898,-3.0898,-3.0898,-3.0898,-3.0898,-3.0898,-3.0898,-3.0898,-3.0898,-3.0898,-3.0898,-3.0898,-3.0898,-3.0898,-3.0898,-3.0898,-3.0898,-3.0898,-3.0898,-3.0898,-3.0898,-3.0898,-3.0898,-3.0898,-3.0898,-3.1112,-3.1825,-3.2473,-3.3293,-3.3901,-3.4236,-3.5387,-3.6487,-3.7198,-3.7808,-3.9193,-3.9685,-3.9697,-3.9597,-3.9647,-3.9534,-3.9258,-3.9245,-3.9371,-3.9471,-3.9534,-3.9446,-3.9094,-3.8994,-3.8931,-3.8768,-3.8668,-3.3418,-3.3418,-3.3418,-3.3418,-3.3418,-3.3418,-3.3418,-3.3418,-3.3418,-3.3418,-3.3418,-3.3418,-3.3184,-3.2793,-3.2393,-3.1924,-3.1562,-3.1152,-3.0898,-3.0898,-3.0898,-3.0898,-3.0898,-3.0898,-3.0898,-3.0898,-3.0898,-3.0898,-3.0898,-3.0898,-3.0898,-3.0898,-3.0889,-3.085,-3.0742,-3.0664,-3.0508,-3.0127,-2.9932,-2.9697,-2.9453,-2.9316,-2.9219,-2.9219,-2.9238,-2.9307,-2.9394,-2.9434,-2.9385,-2.9346,-2.9385,-2.9482,-2.9473,-2.956,-2.9775,-3.001,-3.0078,-3.0264,-3.0625,-3.0713,-3.0771,-3.0859,-3.0898,-3.0898,-3.0898,-3.0898,-3.0898,-3.0898,-3.0898,-3.0898,-3.0898,-3.0898,-3.0898,-3.0898,-3.0898,-3.0898,-3.0898,-3.0898,-3.0898,-3.0898,-3.0898,-3.0898,-3.0898,-3.0898,-3.0898,-3.0898,-3.0898,-3.0898,-3.1276,-3.171,-3.215,-3.2587,-3.3088,-3.3473,-3.3968,-3.5123,-3.5988,-3.6918,-3.8307,-3.9245,-3.9245,-3.9697,-3.9697,-3.9697,-3.9647,-3.9697,-3.9697,-3.9697,-3.9622,-3.9609,-3.9584,-3.9459,-3.932,-3.9195,-3.9107,-3.3418,-3.3418,-3.3418,-3.3418,-3.3418,-3.3418,-3.3418,-3.3418,-3.3418,-3.3418,-3.3418,-3.3418,-3.3291,-3.3066,-3.2656,-3.2324,-3.2012,-3.1455,-3.1191,-3.1143,-3.1016,-3.0898,-3.0898,-3.0898,-3.0898,-3.0898,-3.0898,-3.0898,-3.0898,-3.0898,-3.0898,-3.0898,-3.0898,-3.0889,-3.0898,-3.0898,-3.0771,-3.0518,-3.0293,-3.0078,-2.9883,-2.9668,-2.958,-2.958,-2.959,-2.9639,-2.9834,-2.9863,-2.999,-3.0127,-3.0176,-3.0068,-2.9951,-3.0068,-3.0303,-3.0469,-3.0527,-3.0605,-3.084,-3.0898,-3.0879,-3.0898,-3.0898,-3.0898,-3.0898,-3.0898,-3.0898,-3.0898,-3.0898,-3.0898,-3.0898,-3.0898,-3.0898,-3.0898,-3.0898,-3.0898,-3.0898,-3.0898,-3.0898,-3.0898,-3.0898,-3.0898,-3.0898,-3.0898,-3.0898,-3.0898,-3.0898,-3.0898,-3.0898,-3.1334,-3.1488,-3.193,-3.2493,-3.2882,-3.2995,-3.3754,-3.4847,-3.5988,-3.7358,-3.8072,-3.836,-3.9025,-3.9697,-3.9697,-3.9697,-3.9697,-3.9697,-3.9697,-3.9697,-3.9672,-3.9659,-3.9685,-3.9647,-3.9471,-3.9433,-3.3418,-3.3418,-3.3418,-3.3418,-3.3418,-3.3418,-3.3418,-3.3418,-3.3418,-3.3418,-3.3418,-3.3418,-3.3398,-3.331,-3.2949,-3.2754,-3.2363,-3.1894,-3.1426,-3.125,-3.1016,-3.0908,-3.0898,-3.0898,-3.0898,-3.0898,-3.0898,-3.0898,-3.0898,-3.0898,-3.0898,-3.0898,-3.0898,-3.0898,-3.0898,-3.0898,-3.0869,-3.0781,-3.0527,-3.0361,-3.0283,-3.0019,-2.9893,-2.9893,-2.9902,-3.0029,-3.0254,-3.0332,-3.0469,-3.0859,-3.0898,-3.0684,-3.0527,-3.0625,-3.0898,-3.0879,-3.084,-3.085,-3.0869,-3.0898,-3.0898,-3.0898,-3.0898,-3.0898,-3.0898,-3.0898,-3.0898,-3.0898,-3.0898,-3.0898,-3.0898,-3.0898,-3.0898,-3.0898,-3.0898,-3.0898,-3.0908,-3.0928,-3.1006,-3.0898,-3.0898,-3.0898,-3.0898,-3.0898,-3.0898,-3.0898,-3.0898,-3.0898,-3.0898,-3.0947,-3.117,-3.1276,-3.1777,-3.1998,-3.2113,-3.3006,-3.3989,-3.4792,-3.6208,-3.6804,-3.7287,-3.8137,-3.8856,-3.9581,-3.9697,-3.9697,-3.9697,-3.9697,-3.9697,-3.9697,-3.9697,-3.9697,-3.9697,-3.9697,-3.9697,-3.3418,-3.3418,-3.3418,-3.3418,-3.3418,-3.3418,-3.3418,-3.3418,-3.3418,-3.3418,-3.3418,-3.3418,-3.3418,-3.332,-3.2988,-3.2461,-3.206,-3.1719,-3.1416,-3.1172,-3.0967,-3.0898,-3.0898,-3.0898,-3.0898,-3.0898,-3.0898,-3.0898,-3.0898,-3.0898,-3.0898,-3.0898,-3.0898,-3.0898,-3.0898,-3.0898,-3.0898,-3.0898,-3.0762,-3.0703,-3.0664,-3.0615,-3.0537,-3.0537,-3.0508,-3.0596,-3.0693,-3.0762,-3.082,-3.0889,-3.0898,-3.084,-3.0771,-3.084,-3.0889,-3.0898,-3.0898,-3.0898,-3.0898,-3.0898,-3.0898,-3.0898,-3.0898,-3.0898,-3.0898,-3.0898,-3.0898,-3.0898,-3.0898,-3.0898,-3.0898,-3.0898,-3.0898,-3.0898,-3.0937,-3.0967,-3.1016,-3.1191,-3.1299,-3.1133,-3.1025,-3.0957,-3.1016,-3.1055,-3.1055,-3.1045,-3.1006,-3.0947,-3.0898,-3.0898,-3.1005,-3.1005,-3.1005,-3.1122,-3.1112,-3.2295,-3.331,-3.3678,-3.4668,-3.5467,-3.6157,-3.7049,-3.7861,-3.8372,-3.9206,-3.9697,-3.9697,-3.9697,-3.9697,-3.9697,-3.9697,-3.9697,-3.9697,-3.9697,-3.9697,-3.3418,-3.3418,-3.3418,-3.3418,-3.3418,-3.3418,-3.3418,-3.3418,-3.3418,-3.3418,-3.3418,-3.3418,-3.3418,-3.3359,-3.3242,-3.2851,-3.25,-3.1992,-3.1758,-3.1514,-3.1143,-3.0898,-3.0898,-3.0898,-3.0898,-3.0898,-3.0898,-3.0898,-3.0898,-3.0898,-3.0898,-3.0898,-3.0898,-3.0898,-3.0898,-3.0898,-3.0898,-3.0898,-3.0898,-3.0898,-3.0898,-3.0898,-3.0898,-3.0898,-3.0898,-3.0898,-3.0898,-3.0898,-3.0889,-3.0898,-3.0898,-3.0898,-3.0898,-3.0898,-3.0898,-3.0898,-3.0898,-3.0898,-3.0898,-3.0898,-3.0898,-3.0898,-3.0898,-3.0898,-3.0898,-3.0898,-3.0898,-3.0898,-3.0898,-3.0898,-3.0898,-3.0908,-3.0996,-3.1172,-3.1221,-3.1318,-3.1514,-3.1728,-3.168,-3.1553,-3.165,-3.1582,-3.1309,-3.1318,-3.1269,-3.1201,-3.1143,-3.1074,-3.1006,-3.1016,-3.1074,-3.1055,-3.1094,-3.1162,-3.1182,-3.1886,-3.2649,-3.2969,-3.3393,-3.4197,-3.4888,-3.5812,-3.6366,-3.6804,-3.7844,-3.9223,-3.9645,-3.9581,-3.9645,-3.9645,-3.9697,-3.9697,-3.9697,-3.9697,-3.9697,-3.3418,-3.3418,-3.3418,-3.3418,-3.3418,-3.3418,-3.3418,-3.3418,-3.3418,-3.3418,-3.3418,-3.3418,-3.3418,-3.3408,-3.3398,-3.334,-3.3262,-3.251,-3.2197,-3.1807,-3.1357,-3.1016,-3.0908,-3.0898,-3.0898,-3.0898,-3.0898,-3.0898,-3.0898,-3.0898,-3.0898,-3.0898,-3.0898,-3.0898,-3.0898,-3.0898,-3.0898,-3.0898,-3.0898,-3.0898,-3.0898,-3.0898,-3.0898,-3.0898,-3.0898,-3.0898,-3.0898,-3.0898,-3.0898,-3.0898,-3.0898,-3.0898,-3.0898,-3.0898,-3.0898,-3.0898,-3.0898,-3.0898,-3.0898,-3.0898,-3.0898,-3.0898,-3.0898,-3.0898,-3.0898,-3.0898,-3.0898,-3.0898,-3.0898,-3.0976,-3.1055,-3.1035,-3.125,-3.1533,-3.167,-3.1758,-3.1992,-3.2168,-3.2266,-3.2246,-3.2353,-3.2168,-3.1846,-3.1709,-3.1689,-3.165,-3.1582,-3.1562,-3.1494,-3.1406,-3.1406,-3.1328,-3.1357,-3.1475,-3.1553,-3.165,-3.2157,-3.2335,-3.279,-3.3437,-3.3922,-3.4522,-3.4995,-3.5647,-3.713,-3.8401,-3.8925,-3.9154,-3.8908,-3.8908,-3.9362,-3.9645,-3.9697,-3.9697,-3.9697,-3.3418,-3.3418,-3.3418,-3.3418,-3.3418,-3.3418,-3.3418,-3.3418,-3.3418,-3.3418,-3.3418,-3.3418,-3.3418,-3.3418,-3.3418,-3.3213,-3.2949,-3.2734,-3.2344,-3.1875,-3.1562,-3.126,-3.0957,-3.0898,-3.0918,-3.0908,-3.0898,-3.0898,-3.0898,-3.0898,-3.0898,-3.0898,-3.0898,-3.0898,-3.0898,-3.0898,-3.0898,-3.0898,-3.0898,-3.0898,-3.0898,-3.0898,-3.0898,-3.0898,-3.0898,-3.0898,-3.0898,-3.0898,-3.0898,-3.0898,-3.0898,-3.0898,-3.0898,-3.0898,-3.0898,-3.0898,-3.0898,-3.0898,-3.0898,-3.0898,-3.0898,-3.0898,-3.0898,-3.0898,-3.0898,-3.0898,-3.0898,-3.0898,-3.0918,-3.1074,-3.1309,-3.1426,-3.168,-3.1904,-3.21,-3.2129,-3.2285,-3.2617,-3.2705,-3.2773,-3.2832,-3.2598,-3.2305,-3.2207,-3.218,-3.2141,-3.2041,-3.2012,-3.1924,-3.1797,-3.1748,-3.1689,-3.1759,-3.1807,-3.1982,-3.207,-3.209,-3.209,-3.2501,-3.2864,-3.3122,-3.362,-3.4066,-3.4937,-3.6261,-3.6657,-3.6416,-3.6691,-3.7411,-3.82,-3.8761,-3.9284,-3.971,-3.9735,-3.9923,-3.3418,-3.3418,-3.3418,-3.3418,-3.3418,-3.3418,-3.3418,-3.3418,-3.3418,-3.3418,-3.3418,-3.3418,-3.3418,-3.3418,-3.3418,-3.333,-3.3125,-3.291,-3.2637,-3.2217,-3.1973,-3.165,-3.1348,-3.123,-3.1172,-3.0947,-3.0898,-3.0898,-3.0898,-3.0898,-3.0898,-3.0898,-3.0898,-3.0898,-3.0898,-3.0898,-3.0898,-3.0898,-3.0898,-3.0898,-3.0898,-3.0898,-3.0898,-3.0898,-3.0898,-3.0898,-3.0898,-3.0898,-3.0898,-3.0898,-3.0898,-3.0898,-3.0898,-3.0898,-3.0898,-3.0898,-3.0898,-3.0898,-3.0898,-3.0898,-3.0908,-3.0908,-3.0908,-3.0898,-3.0898,-3.0928,-3.0928,-3.0898,-3.1123,-3.1338,-3.1562,-3.1748,-3.21,-3.2353,-3.2519,-3.2666,-3.2764,-3.2959,-3.3154,-3.3232,-3.3252,-3.2988,-3.2793,-3.2783,-3.2588,-3.2334,-3.2353,-3.2383,-3.2236,-3.2041,-3.2031,-3.206,-3.216,-3.2238,-3.2373,-3.2519,-3.2519,-3.2578,-3.2842,-3.2991,-3.2568,-3.2854,-3.3467,-3.3447,-3.3829,-3.3983,-3.3817,-3.5168,-3.6721,-3.7531,-3.8205,-3.8737,-3.9361,-4.047,-4.0621,-3.3418,-3.3418,-3.3418,-3.3418,-3.3418,-3.3418,-3.3418,-3.3418,-3.3418,-3.3418,-3.3418,-3.3418,-3.3418,-3.3418,-3.3418,-3.3398,-3.3389,-3.3086,-3.29,-3.2715,-3.2471,-3.209,-3.1748,-3.1582,-3.1338,-3.1045,-3.0928,-3.0908,-3.0898,-3.0898,-3.0898,-3.0898,-3.0898,-3.0898,-3.0898,-3.0898,-3.0898,-3.0908,-3.1035,-3.1025,-3.0918,-3.0898,-3.0898,-3.0898,-3.0898,-3.0898,-3.0898,-3.0898,-3.0898,-3.0898,-3.0898,-3.0898,-3.0898,-3.0898,-3.0898,-3.0898,-3.0898,-3.0976,-3.0996,-3.1006,-3.0967,-3.1045,-3.1182,-3.1338,-3.1289,-3.1201,-3.1221,-3.1318,-3.1494,-3.1699,-3.1875,-3.2178,-3.249,-3.2773,-3.2959,-3.3164,-3.332,-3.331,-3.332,-3.333,-3.335,-3.3369,-3.3262,-3.333,-3.3115,-3.2685,-3.2627,-3.2734,-3.2627,-3.2432,-3.25,-3.2588,-3.2637,-3.2695,-3.2803,-3.2939,-3.2949,-3.2978,-3.3252,-3.3252,-3.2884,-3.2777,-3.3194,-3.2841,-3.2432,-3.2828,-3.3569,-3.4916,-3.6101,-3.6383,-3.6895,-3.8111,-3.9081,-4.0287,-4.1251,-3.3418,-3.3418,-3.3418,-3.3418,-3.3418,-3.3418,-3.3418,-3.3418,-3.3418,-3.3418,-3.3418,-3.3418,-3.3418,-3.3418,-3.3418,-3.3418,-3.3408,-3.3389,-3.3154,-3.292,-3.2725,-3.25,-3.2168,-3.1836,-3.1572,-3.1426,-3.126,-3.1064,-3.0957,-3.1123,-3.1006,-3.0898,-3.0947,-3.0918,-3.0898,-3.0898,-3.0898,-3.0957,-3.1143,-3.1143,-3.0976,-3.0898,-3.0898,-3.0898,-3.0898,-3.0898,-3.0898,-3.0898,-3.0898,-3.0898,-3.0898,-3.0898,-3.0898,-3.0898,-3.0898,-3.0986,-3.0996,-3.1152,-3.1328,-3.1201,-3.1162,-3.1455,-3.1738,-3.1894,-3.1846,-3.1992,-3.2051,-3.1953,-3.2021,-3.2256,-3.249,-3.2773,-3.2949,-3.3086,-3.3213,-3.3271,-3.3379,-3.3379,-3.3389,-3.3408,-3.3418,-3.3418,-3.3418,-3.3418,-3.3418,-3.3018,-3.2988,-3.3086,-3.3144,-3.3037,-3.3125,-3.3203,-3.3232,-3.3271,-3.3281,-3.3301,-3.3203,-3.3184,-3.334,-3.3398,-3.3271,-3.3271,-3.3174,-3.3164,-3.2988,-3.3164,-3.3328,-3.4248,-3.489,-3.496,-3.5656,-3.7174,-3.8512,-3.9642,-4.0826,-3.3418,-3.3418,-3.3418,-3.3418,-3.3418,-3.3418,-3.3418,-3.3418,-3.3418,-3.3418,-3.3418,-3.3418,-3.3418,-3.3418,-3.3418,-3.3418,-3.3418,-3.3418,-3.3291,-3.3242,-3.3125,-3.292,-3.2598,-3.2353,-3.2187,-3.1934,-3.1728,-3.1689,-3.1709,-3.1592,-3.166,-3.1582,-3.1191,-3.0937,-3.0898,-3.0996,-3.0957,-3.0947,-3.1055,-3.1025,-3.0967,-3.0898,-3.0898,-3.0898,-3.0898,-3.0898,-3.0898,-3.0898,-3.0898,-3.0898,-3.0908,-3.0898,-3.0918,-3.0908,-3.1035,-3.1211,-3.125,-3.1504,-3.1758,-3.1572,-3.1494,-3.1816,-3.207,-3.2197,-3.2266,-3.2197,-3.2178,-3.2217,-3.2432,-3.2685,-3.2734,-3.3008,-3.3262,-3.3369,-3.3418,-3.3418,-3.3418,-3.3418,-3.3418,-3.3418,-3.3418,-3.3418,-3.3418,-3.3418,-3.3418,-3.3369,-3.3398,-3.3418,-3.3418,-3.3418,-3.3418,-3.3418,-3.3418,-3.3418,-3.3418,-3.3418,-3.3418,-3.3418,-3.3418,-3.3418,-3.3418,-3.3408,-3.334,-3.3408,-3.3418,-3.3369,-3.3387,-3.3575,-3.387,-3.4177,-3.5166,-3.6584,-3.7862,-3.8965,-3.9941,-3.3418,-3.3418,-3.3418,-3.3418,-3.3418,-3.3418,-3.3418,-3.3418,-3.3418,-3.3418,-3.3418,-3.3418,-3.3418,-3.3418,-3.3418,-3.3418,-3.3418,-3.3418,-3.3418,-3.3389,-3.334,-3.3232,-3.3027,-3.2793,-3.2549,-3.2363,-3.2197,-3.218,-3.2141,-3.2209,-3.209,-3.1904,-3.1621,-3.1387,-3.1357,-3.1387,-3.1338,-3.1143,-3.1221,-3.1152,-3.1143,-3.1103,-3.124,-3.1279,-3.1357,-3.1357,-3.1309,-3.126,-3.1133,-3.1074,-3.0996,-3.0908,-3.0937,-3.1035,-3.123,-3.1455,-3.1689,-3.1914,-3.2129,-3.2158,-3.2041,-3.2314,-3.2549,-3.2588,-3.2539,-3.2539,-3.2666,-3.2646,-3.2851,-3.2978,-3.2978,-3.3232,-3.3359,-3.3418,-3.3418,-3.3418,-3.3418,-3.3418,-3.3418,-3.3418,-3.3418,-3.3418,-3.3418,-3.3418,-3.3418,-3.3418,-3.3418,-3.3418,-3.3418,-3.3418,-3.3418,-3.3418,-3.3418,-3.3418,-3.3418,-3.3418,-3.3418,-3.3418,-3.3418,-3.3418,-3.3418,-3.3418,-3.3418,-3.3418,-3.3418,-3.3418,-3.3466,-3.3536,-3.346,-3.3466,-3.4769,-3.6185,-3.6899,-3.7969,-3.8765,-3.3418,-3.3418,-3.3418,-3.3418,-3.3418,-3.3418,-3.3418,-3.3418,-3.3418,-3.3418,-3.3418,-3.3418,-3.3418,-3.3418,-3.3418,-3.3418,-3.3418,-3.3418,-3.3418,-3.3418,-3.3418,-3.3389,-3.3252,-3.3037,-3.2881,-3.2705,-3.2549,-3.2393,-3.2285,-3.2383,-3.2334,-3.2314,-3.2226,-3.206,-3.2158,-3.251,-3.2275,-3.168,-3.1904,-3.1768,-3.1592,-3.1514,-3.1689,-3.1846,-3.1974,-3.1885,-3.1826,-3.1641,-3.1523,-3.1475,-3.124,-3.1143,-3.1123,-3.1377,-3.1562,-3.167,-3.1992,-3.2344,-3.2715,-3.2744,-3.2754,-3.2793,-3.2978,-3.3144,-3.3281,-3.332,-3.3232,-3.3096,-3.3271,-3.334,-3.3379,-3.3408,-3.3408,-3.3418,-3.3418,-3.3418,-3.3418,-3.3418,-3.3418,-3.3418,-3.3418,-3.3418,-3.3418,-3.3418,-3.3418,-3.3418,-3.3418,-3.3418,-3.3418,-3.3418,-3.3418,-3.3418,-3.3418,-3.3418,-3.3418,-3.3418,-3.3418,-3.3418,-3.3418,-3.3418,-3.3418,-3.3418,-3.3418,-3.3418,-3.3418,-3.3418,-3.3418,-3.3398,-3.3418,-3.3471,-3.4497,-3.5662,-3.6234,-3.666,-3.7254,-3.3418,-3.3418,-3.3418,-3.3418,-3.3418,-3.3418,-3.3418,-3.3418,-3.3418,-3.3418,-3.3418,-3.3418,-3.3418,-3.3418,-3.3418,-3.3418,-3.3418,-3.3418,-3.3418,-3.3418,-3.3418,-3.3418,-3.334,-3.3271,-3.3184,-3.3174,-3.3018,-3.293,-3.3037,-3.291,-3.2959,-3.2998,-3.2842,-3.2666,-3.2334,-3.2334,-3.2139,-3.2002,-3.208,-3.208,-3.1963,-3.1963,-3.2031,-3.2207,-3.2236,-3.2246,-3.2246,-3.2051,-3.1963,-3.1934,-3.1689,-3.165,-3.166,-3.1904,-3.206,-3.2256,-3.2578,-3.2773,-3.3086,-3.3213,-3.3213,-3.3252,-3.3291,-3.3418,-3.3418,-3.3418,-3.3418,-3.3418,-3.3418,-3.3418,-3.3408,-3.3408,-3.3418,-3.3418,-3.3418,-3.3418,-3.3418,-3.3418,-3.3418,-3.3418,-3.3418,-3.3418,-3.3418,-3.3418,-3.3418,-3.3467,-3.3486,-3.3437,-3.3428,-3.3418,-3.3418,-3.3418,-3.3418,-3.3418,-3.3418,-3.3418,-3.3418,-3.3418,-3.3418,-3.3418,-3.3418,-3.3486,-3.3476,-3.3516,-3.3467,-3.3418,-3.3418,-3.3418,-3.3418,-3.3713,-3.4463,-3.461,-3.4736,-3.4912,-3.5098,-3.3418,-3.3418,-3.3418,-3.3418,-3.3418,-3.3418,-3.3418,-3.3418,-3.3418,-3.3418,-3.3418,-3.3418,-3.3418,-3.3418,-3.3418,-3.3418,-3.3418,-3.3418,-3.3418,-3.3418,-3.3418,-3.3418,-3.3418,-3.3418,-3.3359,-3.3418,-3.3418,-3.3389,-3.333,-3.3389,-3.3359,-3.334,-3.3408,-3.3105,-3.2773,-3.2685,-3.2578,-3.248,-3.2441,-3.2422,-3.2383,-3.2402,-3.2471,-3.2607,-3.2656,-3.2637,-3.2578,-3.249,-3.2393,-3.2363,-3.2275,-3.2197,-3.2207,-3.2353,-3.25,-3.2734,-3.2988,-3.3135,-3.333,-3.3389,-3.3369,-3.3389,-3.3418,-3.3418,-3.3418,-3.3418,-3.3418,-3.3418,-3.3418,-3.3418,-3.3418,-3.3418,-3.3418,-3.3418,-3.3418,-3.3418,-3.3418,-3.3418,-3.3418,-3.3418,-3.3457,-3.3447,-3.3457,-3.3418,-3.3418,-3.3486,-3.3555,-3.3525,-3.3506,-3.3476,-3.3486,-3.3476,-3.3467,-3.3467,-3.3447,-3.3418,-3.3418,-3.3418,-3.3476,-3.3555,-3.3662,-3.3769,-3.3691,-3.3643,-3.3711,-3.3691,-3.3476,-3.3428,-3.3535,-3.3633,-3.3902,-3.3877,-3.3457,-3.3719,-3.4084,-3.3418,-3.3418,-3.3418,-3.3418,-3.3418,-3.3418,-3.3418,-3.3418,-3.3418,-3.3418,-3.3418,-3.3418,-3.3418,-3.3418,-3.3418,-3.3418,-3.3418,-3.3418,-3.3418,-3.3418,-3.3418,-3.3418,-3.3418,-3.3418,-3.3418,-3.3418,-3.3418,-3.3418,-3.3418,-3.3418,-3.3418,-3.3418,-3.3418,-3.3301,-3.3242,-3.3174,-3.3047,-3.2881,-3.2822,-3.2812,-3.2812,-3.2812,-3.2959,-3.3096,-3.3193,-3.3193,-3.3125,-3.2988,-3.2861,-3.2715,-3.25,-3.2344,-3.2363,-3.2598,-3.2744,-3.293,-3.3223,-3.334,-3.3408,-3.3418,-3.3418,-3.3418,-3.3418,-3.3418,-3.3418,-3.3418,-3.3418,-3.3418,-3.3418,-3.3418,-3.3418,-3.3418,-3.3418,-3.3418,-3.3418,-3.3418,-3.3418,-3.3418,-3.3418,-3.3447,-3.3516,-3.3545,-3.3603,-3.3574,-3.375,-3.3848,-3.3955,-3.3926,-3.3857,-3.3633,-3.3623,-3.3603,-3.3584,-3.3545,-3.3555,-3.3721,-3.3779,-3.3906,-3.3799,-3.3838,-3.3955,-3.4082,-3.4082,-3.4082,-3.4092,-3.4023,-3.3916,-3.3818,-3.3779,-3.3887,-3.4062,-3.4014,-3.3906,-3.3799,-3.401,-3.3418,-3.3418,-3.3418,-3.3418,-3.3418,-3.3418,-3.3418,-3.3418,-3.3418,-3.3418,-3.3418,-3.3418,-3.3418,-3.3418,-3.3418,-3.3418,-3.3418,-3.3418,-3.3418,-3.3418,-3.3418,-3.3418,-3.3418,-3.3418,-3.3418,-3.3418,-3.3418,-3.3418,-3.3418,-3.3418,-3.3418,-3.3418,-3.3418,-3.3418,-3.3418,-3.3418,-3.331,-3.3242,-3.3184,-3.3184,-3.3193,-3.3174,-3.332,-3.3379,-3.3418,-3.3418,-3.334,-3.3291,-3.3193,-3.3144,-3.3105,-3.3047,-3.3076,-3.3174,-3.3242,-3.3252,-3.3369,-3.3418,-3.3418,-3.3418,-3.3418,-3.3418,-3.3418,-3.3418,-3.3418,-3.3418,-3.3418,-3.3418,-3.3418,-3.3418,-3.3418,-3.3418,-3.3418,-3.3418,-3.3418,-3.3418,-3.3418,-3.3418,-3.3428,-3.3594,-3.3652,-3.3877,-3.3906,-3.4092,-3.4267,-3.4346,-3.4375,-3.4346,-3.4228,-3.4004,-3.3896,-3.3887,-3.3896,-3.3916,-3.416,-3.4346,-3.4365,-3.4375,-3.4238,-3.4209,-3.4424,-3.4531,-3.4521,-3.4492,-3.4453,-3.4453,-3.4434,-3.4326,-3.418,-3.4346,-3.4512,-3.4443,-3.4355,-3.4248,-3.4228,-3.3418,-3.3418,-3.3418,-3.3418,-3.3418,-3.3418,-3.3418,-3.3418,-3.3418,-3.3418,-3.3418,-3.3418,-3.3418,-3.3418,-3.3418,-3.3418,-3.3418,-3.3418,-3.3418,-3.3418,-3.3418,-3.3418,-3.3418,-3.3418,-3.3418,-3.3418,-3.3418,-3.3418,-3.3418,-3.3418,-3.3418,-3.3418,-3.3418,-3.3418,-3.3418,-3.3418,-3.3418,-3.3398,-3.3398,-3.3418,-3.3418,-3.3418,-3.3418,-3.3418,-3.3418,-3.3418,-3.3418,-3.3418,-3.3418,-3.3418,-3.3418,-3.3408,-3.3398,-3.3408,-3.3408,-3.3389,-3.3398,-3.3418,-3.3418,-3.3418,-3.3418,-3.3418,-3.3418,-3.3418,-3.3418,-3.3418,-3.3418,-3.3418,-3.3418,-3.3418,-3.3418,-3.3418,-3.3418,-3.3418,-3.3418,-3.3418,-3.3418,-3.3418,-3.3555,-3.374,-3.3965,-3.4228,-3.4424,-3.4619,-3.4707,-3.4668,-3.4697,-3.4756,-3.4629,-3.4414,-3.4336,-3.4316,-3.4336,-3.4365,-3.4639,-3.4814,-3.4736,-3.4668,-3.4551,-3.459,-3.4853,-3.498,-3.498,-3.4892,-3.4785,-3.4775,-3.4746,-3.4687,-3.4609,-3.4814,-3.5,-3.5029,-3.4922,-3.4717,-3.4756,-3.3418,-3.3418,-3.3418,-3.3418,-3.3418,-3.3418,-3.3418,-3.3418,-3.3418,-3.3418,-3.3418,-3.3418,-3.3418,-3.3418,-3.3418,-3.3418,-3.3418,-3.3418,-3.3418,-3.3418,-3.3418,-3.3418,-3.3418,-3.3418,-3.3418,-3.3418,-3.3418,-3.3418,-3.3418,-3.3418,-3.3418,-3.3418,-3.3418,-3.3418,-3.3418,-3.3418,-3.3418,-3.3418,-3.3418,-3.3418,-3.3418,-3.3418,-3.3418,-3.3418,-3.3418,-3.3418,-3.3418,-3.3418,-3.3418,-3.3418,-3.3418,-3.3418,-3.3418,-3.3418,-3.3418,-3.3418,-3.3418,-3.3418,-3.3418,-3.3418,-3.3418,-3.3418,-3.3418,-3.3418,-3.3418,-3.3418,-3.3418,-3.3418,-3.3418,-3.3418,-3.3418,-3.3418,-3.3418,-3.3418,-3.3418,-3.3418,-3.3418,-3.3545,-3.3818,-3.4072,-3.4473,-3.4707,-3.4824,-3.5019,-3.5225,-3.5078,-3.5088,-3.5205,-3.5117,-3.4912,-3.4805,-3.4785,-3.4775,-3.4834,-3.5019,-3.5137,-3.5019,-3.4922,-3.4902,-3.5039,-3.5351,-3.543,-3.5439,-3.5361,-3.5273,-3.5078,-3.5,-3.5049,-3.5176,-3.5312,-3.5488,-3.5625,-3.5508,-3.5234,-3.5244,-3.3418,-3.3418,-3.3418,-3.3418,-3.3418,-3.3418,-3.3418,-3.3418,-3.3418,-3.3418,-3.3418,-3.3418,-3.3418,-3.3418,-3.3418,-3.3418,-3.3418,-3.3418,-3.3418,-3.3418,-3.3418,-3.3418,-3.3418,-3.3418,-3.3418,-3.3418,-3.3418,-3.3418,-3.3418,-3.3418,-3.3418,-3.3418,-3.3418,-3.3418,-3.3418,-3.3418,-3.3418,-3.3418,-3.3418,-3.3418,-3.3418,-3.3418,-3.3418,-3.3428,-3.3437,-3.3418,-3.3418,-3.3418,-3.3418,-3.3418,-3.3418,-3.3418,-3.3418,-3.3418,-3.3418,-3.3418,-3.3418,-3.3418,-3.3418,-3.3418,-3.3418,-3.3418,-3.3418,-3.3418,-3.3418,-3.3418,-3.3418,-3.3418,-3.3418,-3.3418,-3.3418,-3.3418,-3.3418,-3.3418,-3.3428,-3.3428,-3.3447,-3.3789,-3.4111,-3.4512,-3.4951,-3.5146,-3.5264,-3.541,-3.5635,-3.5732,-3.5771,-3.581,-3.5742,-3.5586,-3.5351,-3.5303,-3.5234,-3.5303,-3.5459,-3.5508,-3.542,-3.5488,-3.5537,-3.5693,-3.583,-3.5781,-3.5732,-3.582,-3.5781,-3.5547,-3.5488,-3.5703,-3.582,-3.5801,-3.5791,-3.585,-3.5889,-3.5684,-3.5752,-3.3418,-3.3418,-3.3418,-3.3418,-3.3418,-3.3418,-3.3418,-3.3418,-3.3418,-3.3418,-3.3418,-3.3418,-3.3418,-3.3418,-3.3418,-3.3418,-3.3418,-3.3418,-3.3418,-3.3418,-3.3418,-3.3418,-3.3418,-3.3418,-3.3418,-3.3418,-3.3418,-3.3418,-3.3418,-3.3418,-3.3418,-3.3418,-3.3418,-3.3418,-3.3418,-3.3418,-3.3418,-3.3418,-3.3418,-3.3428,-3.3428,-3.3428,-3.3564,-3.3594,-3.3545,-3.3476,-3.3418,-3.3418,-3.3418,-3.3418,-3.3418,-3.3418,-3.3418,-3.3418,-3.3418,-3.3418,-3.3418,-3.3418,-3.3418,-3.3418,-3.3418,-3.3418,-3.3418,-3.3418,-3.3418,-3.3418,-3.3418,-3.3418,-3.3418,-3.3418,-3.3418,-3.3418,-3.3418,-3.3418,-3.3457,-3.3486,-3.3877,-3.4375,-3.4668,-3.498,-3.5351,-3.5615,-3.5693,-3.5703,-3.5889,-3.5889,-3.6006,-3.6016,-3.6025,-3.6025,-3.5859,-3.5742,-3.5625,-3.5654,-3.5781,-3.585,-3.5859,-3.5976,-3.6025,-3.5986,-3.5937,-3.5976,-3.6016,-3.5996,-3.5986,-3.5957,-3.5976,-3.6025,-3.6025,-3.5937,-3.5957,-3.5996,-3.6025,-3.6025,-3.5996,-3.3418,-3.3418,-3.3418,-3.3418,-3.3418,-3.3418,-3.3418,-3.3418,-3.3418,-3.3418,-3.3418,-3.3418,-3.3418,-3.3418,-3.3418,-3.3418,-3.3418,-3.3418,-3.3418,-3.3418,-3.3418,-3.3418,-3.3418,-3.3418,-3.3418,-3.3418,-3.3418,-3.3418,-3.3418,-3.3418,-3.3418,-3.3418,-3.3418,-3.3418,-3.3418,-3.3418,-3.3418,-3.3418,-3.3428,-3.3476,-3.3467,-3.3437,-3.3623,-3.3691,-3.3652,-3.3437,-3.3418,-3.3418,-3.3418,-3.3418,-3.3418,-3.3418,-3.3418,-3.3418,-3.3418,-3.3418,-3.3418,-3.3418,-3.3418,-3.3418,-3.3418,-3.3418,-3.3418,-3.3418,-3.3418,-3.3418,-3.3418,-3.3418,-3.3418,-3.3418,-3.3418,-3.3418,-3.3418,-3.3486,-3.3545,-3.3779,-3.4365,-3.4892,-3.5146,-3.541,-3.5674,-3.5957,-3.5986,-3.6006,-3.6016,-3.6025,-3.6025,-3.6025,-3.6025,-3.6025,-3.5947,-3.5908,-3.5869,-3.5937,-3.6025,-3.6025,-3.6025,-3.6025,-3.6025,-3.6025,-3.6025,-3.6025,-3.6025,-3.6025,-3.6025,-3.6025,-3.6025,-3.6025,-3.6025,-3.6025,-3.6025,-3.6025,-3.6025,-3.6025,-3.6025,-3.3418,-3.3418,-3.3418,-3.3418,-3.3418,-3.3418,-3.3418,-3.3418,-3.3418,-3.3418,-3.3418,-3.3418,-3.3418,-3.3418,-3.3418,-3.3418,-3.3418,-3.3418,-3.3418,-3.3418,-3.3418,-3.3418,-3.3418,-3.3418,-3.3418,-3.3418,-3.3418,-3.3418,-3.3418,-3.3418,-3.3418,-3.3418,-3.3418,-3.3418,-3.3418,-3.3418,-3.3418,-3.3418,-3.3457,-3.3516,-3.3711,-3.3643,-3.3467,-3.3486,-3.3476,-3.3418,-3.3418,-3.3418,-3.3418,-3.3418,-3.3418,-3.3418,-3.3418,-3.3418,-3.3418,-3.3418,-3.3418,-3.3418,-3.3418,-3.3418,-3.3418,-3.3418,-3.3418,-3.3418,-3.3418,-3.3418,-3.3418,-3.3418,-3.3418,-3.3418,-3.3418,-3.3418,-3.3428,-3.3633,-3.375,-3.4355,-3.4971,-3.5244,-3.5469,-3.5684,-3.5889,-3.6016,-3.6016,-3.6025,-3.6025,-3.6025,-3.6025,-3.6025,-3.6025,-3.6025,-3.6025,-3.6025,-3.6025,-3.6025,-3.6025,-3.6025,-3.6025,-3.6025,-3.6025,-3.6025,-3.6025,-3.6025,-3.6025,-3.6025,-3.6025,-3.6025,-3.6025,-3.6025,-3.6025,-3.6025,-3.6025,-3.6025,-3.6025,-3.6025,-3.6025]},{"header":{"parameterUnit":"m.s-1","parameterCategory":1,"la1":31.0,"la2":29.5877,"lo1":-88.7671,"lo2":-86.6584,"dy":0.0162,"dx":0.0185,"nx":115,"ny":88,"refTime":"2026-03-31T12:00:00:Z","depth":0,"parameterNumber":3,"parameterNumberName":"V-component_of_WINDS"},"data":[0.0,0.0,0.0,0.0,0.0,0.0,0.0,0.0,0.0,0.0,0.0,0.0,0.0,0.0,0.0,0.0,0.0,0.0,0.0,0.0,0.0,0.0,0.0,0.0,0.0,0.0,0.0,0.0,0.0,0.0,0.0,0.0,0.0,0.0,0.0,0.0,0.0,0.0,0.0,0.0,0.0,0.0,0.0,0.0,0.0,0.0,0.0,0.0,0.0,0.0,0.0,0.0,0.0,0.0,0.0,0.0,0.0,0.0,0.0,0.0,0.0,0.0,0.0,0.0,0.0,0.0,0.0,0.0,0.0,0.0,0.0,0.0,0.0,0.0,0.0,0.0,0.0,0.0,0.0,0.0,0.0,0.0,0.0,0.0,0.0,0.0,0.0,0.0,0.0,0.0,0.0,0.0,0.0,0.0,0.0,0.0,0.0,0.0,0.0,0.0,0.0,0.0,0.0,0.0,0.0,0.0,0.0,0.0,0.0,0.0,0.0,0.0,0.0,0.0,0.0,0.0,0.0,0.0,0.0,0.0,0.0,0.0,0.0,0.0,0.0,0.0,0.0,0.0,0.0,0.0,0.0,0.0,0.0,0.0,0.0,0.0,0.0,0.0,0.0,0.0,0.0,0.0,0.0,0.0,0.0,0.0,0.0,0.0,0.0,0.0,0.0,0.0,0.0,0.0,0.0,0.0,0.0,0.0,0.0,0.0,0.0,0.0,0.0,0.0,0.0,0.0,0.0,0.0,0.0,0.0,0.0,0.0,0.0,0.0,0.0,0.0,0.0,0.0,0.0,0.0,0.0,0.0,0.0,0.0,0.0,0.0,0.0,0.0,0.0,0.0,0.0,0.0,0.0,0.0,0.0,0.0,0.0,0.0,0.0,0.0,0.0,0.0,0.0,0.0,0.0,0.0,0.0,0.0,0.0,0.0,0.0,0.0,0.0,0.0,0.0,0.0,0.0,0.0,0.0,0.0,0.0,0.0,0.0,0.0,0.0,0.0,0.0,0.0,0.0,0.0,0.0,0.0,0.0,0.0,0.0,0.0,0.0,0.0,0.0,0.0,0.0,0.0,0.0,0.0,0.0,0.0,0.0,0.0,0.0,0.0,0.0,0.0,0.0,0.0,0.0,0.0,0.0,0.0,0.0,0.0,0.0,0.0,0.0,0.0,0.0,0.0,0.0,0.0,0.0,0.0,0.0,0.0,0.0,0.0,0.0,0.0,0.0,0.0,0.0,0.0,0.0,0.0,0.0,0.0,0.0,0.0,0.0,0.0,0.0,0.0,0.0,0.0,0.0,0.0,0.0,0.0,0.0,0.0,0.0,0.0,0.0,0.0,0.0,0.0,0.0,0.0,0.0,0.0,0.0,0.0,0.0,0.0,0.0,0.0,0.0,0.0,0.0,0.0,0.0,0.0,0.0,0.0,0.0,0.0,0.0,0.0,0.0,0.0,0.0,0.0,0.0,0.0,0.0,0.0,0.0,0.0,0.0,0.0,0.0,0.0,0.0,0.0,0.0,0.0,0.0,0.0,0.0,0.0,0.0,0.0,0.0,0.0,0.0,0.0,0.0,0.0,0.0,0.0,0.0,0.0,0.0,0.0,0.0,0.0,0.0,0.0,0.0,0.0,0.0,0.0,0.0,0.0,0.0,0.0,0.0,0.0,0.0,0.0,0.0,0.0,0.0,0.0,0.0,0.0,0.0,0.0,0.0,0.0,0.0,0.0,0.0,0.0,0.0,0.0,0.0,0.0,0.0,0.0,0.0,0.0,0.0,0.0,0.0,0.0,0.0,0.0,0.0,0.0,0.0,0.0,0.0,0.0,0.0,0.0,0.0,0.0,0.0,0.0,0.0,0.0,0.0,0.0,0.0,0.0,0.0,0.0,0.0,0.0,0.0,0.0,0.0,0.0,0.0,0.0,0.0,0.0,0.0,0.0,0.0,0.0,0.0,0.0,0.0,0.0,0.0,0.0,0.0,0.0,0.0,0.0,0.0,0.0,0.0,0.0,0.0,0.0,0.0,0.0,0.0,0.0,0.0,0.0,0.0,0.0,0.0,0.0,0.0,0.0,0.0,0.0,0.0,0.0,0.0,0.0,0.0,0.0,0.0,0.0,0.0,0.0,0.0,0.0,0.0,0.0,0.0,0.0,0.0,0.0,0.0,0.0,0.0,0.0,0.0,0.0,0.0,0.0,0.0,0.0,0.0,0.0,0.0,0.0,0.0,0.0,0.0,0.0,0.0,0.0,0.0,0.0,0.0,0.0,0.0,0.0,0.0,0.0,0.0,0.0,0.0,0.0,0.0,0.0,0.0,0.0,0.0,0.0,0.0,0.0,0.0,0.0,0.0,0.0,0.0,0.0,0.0,0.0,0.0,0.0,0.0,0.0,0.0,0.0,0.0,0.0,0.0,0.0,0.0,0.0,0.0,0.0,0.0,0.0,0.0,0.0,0.0,0.0,0.0,0.0,0.0,0.0,0.0,0.0,0.0,0.0,0.0,0.0,0.0,0.0,0.0,0.0,0.0,0.0,0.0,0.0,0.0,0.0,0.0,0.0,0.0,0.0,0.0,0.0,0.0,0.0,0.0,0.0,0.0,0.0,0.0,0.0,0.0,0.0,0.0,0.0,0.0,0.0,0.0,0.0,0.0,0.0,0.0,0.0,0.0,0.0,0.0,0.0,0.0,0.0,0.0,0.0,0.0,0.0,0.0,0.0,0.0,0.0,0.0,0.0,0.0,0.0,0.0,0.0,0.0,0.0,0.0,0.0,0.0,0.0,0.0,0.0,0.0,0.0,0.0,0.0,0.0,0.0,0.0,0.0,0.0,0.0,0.0,0.0,0.0,0.0,0.0,0.0,0.0,0.0,0.0,0.0,0.0,0.0,0.0,0.0,0.0,0.0,0.0,0.0,0.0,0.0,0.0,0.0,0.0,0.0,0.0,0.0,0.0,0.0,0.0,0.0,0.0,0.0,0.0,0.0,0.0,0.0,0.0,0.0,0.0,0.0,0.0,0.0,0.0,0.0,0.0,0.0,0.0,0.0,0.0,0.0,0.0,0.0,0.0,0.0,0.0,0.0,0.0,0.0,0.0,0.0,0.0,0.0,0.0,0.0,0.0,0.0,0.0,0.0,0.0,0.0,0.0,0.0,0.0,0.0,0.0,0.0,0.0,0.0,0.0,0.0,0.0,0.0,0.0,0.0,0.0,0.0,0.0,0.0,0.0,0.0,0.0,0.0,0.0,0.0,0.0,0.0,0.0,0.0,0.0,0.0,0.0,0.0,0.0,0.0,0.0,0.0,0.0,0.0,0.0,0.0,0.0,0.0,0.0,0.0,0.0,0.0,0.0,0.0,0.0,0.0,0.0,0.0,0.0,0.0,0.0,0.0,0.0,0.0,0.0,0.0,0.0,0.0,0.0,0.0,0.0,0.0,0.0,0.0,0.0,0.0,0.0,0.0,0.0,0.0,0.0,0.0,0.0,0.0,0.0,0.0,0.0,0.0,0.0,0.0,0.0,0.0,0.0,0.0,0.0,0.0,0.0,0.0,0.0,0.0,0.0,0.0,0.0,0.0,0.0,0.0,0.0,0.0,0.0,0.0,0.0,0.0,0.0,0.0,0.0,0.0,0.0,0.0,0.0,0.0,0.0,0.0,0.0,0.0,0.0,0.0,0.0,0.0,0.0,0.0,0.0,0.0,0.0,0.0,0.0,0.0,0.0,0.0,0.0,0.0,0.0,0.0,0.0,0.0,0.0,0.0,0.0,0.0,0.0,0.0,0.0,0.0,0.0,0.0,0.0,0.0,0.0,0.0,0.0,0.0,0.0,0.0,0.0,0.0,0.0,0.0,0.0,0.0,0.0,0.0,0.0,0.0,0.0,0.0,0.0,0.0,0.0,0.0,0.0,0.0,0.0,0.0,0.0,0.0,0.0,0.0,0.0,0.0,0.0,0.0,0.0,0.0,0.0,0.0,0.0,0.0,0.0,0.0,0.0,0.0,0.0,0.0,0.0,0.0,0.0,0.0,0.0,0.0,0.0,0.0,0.0,0.0,0.0,0.0,0.0,0.0,0.0,0.0,0.0,0.0,0.0,0.0,0.0,0.0,0.0,0.0,0.0,0.0,0.0,0.0,0.0,0.0,0.0,0.0,0.0,0.0,0.0,0.0,0.0,0.0,0.0,0.0,0.0,0.0,0.0,0.0,0.0,0.0,0.0,0.0,0.0,0.0,0.0,0.0,0.0,0.0,0.0,0.0,0.0,0.0,0.0,0.0,0.9647,0.0,0.0,0.0,0.0,0.0,0.0,0.0,0.0,0.0,0.0,0.0,0.0,0.0,0.0,0.0,0.0,0.0,0.0,0.0,0.0,0.0,0.0,0.0,0.0,0.0,0.0,0.0,0.0,0.0,0.0,0.0,0.0,0.0,0.0,0.0,0.0,0.0,0.0,0.0,0.0,0.0,0.0,0.0,0.0,0.0,0.0,0.0,0.0,0.0,0.0,0.0,0.0,0.0,0.0,0.0,0.0,0.0,0.0,0.0,0.0,0.0,0.0,0.0,0.0,0.0,0.0,0.0,0.0,0.0,0.0,0.0,0.0,0.0,0.0,0.0,0.0,0.0,0.0,0.0,0.0,0.0,0.0,0.0,0.0,0.0,0.0,0.0,0.0,0.0,0.0,0.0,0.0,0.0,0.0,0.0,0.0,0.0,0.0,0.0,0.0,0.0,0.0,0.0,0.0,0.0,0.0,0.0,0.0,0.0,0.0,1.4134,1.3919,1.3248,1.2612,1.2043,0.0,0.0,0.0,0.0,0.0,0.0,0.0,0.0,0.0,0.0,0.0,0.0,0.0,0.0,0.0,0.0,0.0,0.0,0.0,0.0,0.0,0.0,0.0,0.0,0.0,0.0,0.0,0.0,0.0,0.0,0.0,0.0,0.0,0.0,0.0,0.0,0.0,0.0,0.0,0.0,0.0,0.0,0.0,0.0,0.0,0.0,0.0,0.0,0.0,0.0,0.0,0.0,0.0,0.0,0.0,0.0,0.0,0.0,0.0,0.0,0.0,0.0,0.0,0.0,0.0,0.0,0.0,0.0,0.0,0.0,0.0,0.0,0.0,0.0,0.0,0.0,0.0,0.0,0.0,0.0,0.0,0.0,0.0,0.0,0.0,0.0,0.0,0.0,0.0,0.0,0.0,0.0,0.0,0.0,0.0,0.0,0.0,0.0,0.0,0.0,0.0,0.0,0.0,0.0,0.0,0.0,0.0,0.0,0.0,0.0,0.0,0.0,1.5396,1.5043,1.4557,0.0,0.0,0.0,0.0,0.0,0.0,0.0,0.0,0.0,0.0,0.0,0.0,0.0,0.0,0.0,0.0,0.0,0.0,0.0,0.0,0.0,0.0,0.0,0.0,0.0,0.0,0.0,0.0,0.0,0.0,0.0,0.0,0.0,0.0,0.0,0.0,0.0,0.0,0.0,0.0,0.0,0.0,0.0,0.0,0.0,0.0,0.0,0.0,0.0,0.0,0.0,0.0,0.0,0.0,0.0,0.0,0.0,0.0,0.0,0.0,0.0,0.0,0.0,0.0,0.0,0.0,0.0,0.0,0.0,0.0,0.0,0.0,0.0,0.0,0.0,0.0,0.0,0.0,0.0,0.0,0.0,0.0,0.0,0.0,0.0,0.0,0.0,0.0,0.0,0.0,0.0,0.0,0.0,0.0,0.0,0.0,0.0,0.0,0.0,0.0,0.0,0.0,0.0,0.0,0.0,0.0,0.0,0.0,0.0,0.0,1.7368,1.8117,1.6322,0.0,1.6189,0.0,0.0,0.0,0.0,0.0,0.0,0.0,0.0,0.0,0.0,0.0,0.0,0.0,0.0,0.0,0.0,0.0,0.0,0.0,0.0,0.0,0.0,0.0,0.0,0.0,0.0,0.0,0.0,0.0,0.0,0.0,0.0,0.0,0.0,0.0,0.0,0.0,0.0,0.0,0.0,0.0,0.0,0.0,0.0,0.0,0.0,0.0,0.0,0.0,0.0,0.0,0.0,0.0,0.0,0.0,0.0,0.0,0.0,0.0,0.0,0.0,0.0,0.0,0.0,0.0,0.0,0.0,0.0,0.0,0.0,0.0,0.0,0.0,0.0,0.0,0.0,0.0,0.0,0.0,0.0,0.0,0.0,0.0,0.0,0.0,0.0,0.0,0.0,0.0,0.0,0.0,0.0,0.0,0.0,0.0,0.0,0.0,0.0,0.0,0.0,0.0,0.0,0.0,0.0,0.0,0.0,0.0,0.0,0.0,0.0,1.9092,1.9269,1.8062,1.7622,0.0,0.0,0.0,0.0,0.0,0.0,0.0,0.0,0.0,0.0,0.0,0.0,0.0,0.0,0.0,0.0,0.0,0.0,0.0,0.0,0.0,0.0,0.0,0.0,0.0,0.0,0.0,0.0,0.0,0.0,0.0,0.0,0.0,0.0,0.0,0.0,0.0,0.0,0.0,0.0,0.0,0.0,0.0,0.0,0.0,0.0,0.0,0.0,0.0,0.0,0.0,0.0,0.0,0.0,0.0,0.0,0.0,0.0,0.0,0.0,0.0,0.0,0.0,0.0,0.0,0.0,0.0,0.0,0.0,0.0,0.0,0.0,0.0,0.0,0.0,0.0,0.0,0.0,0.0,0.0,0.0,0.0,0.0,0.0,0.0,0.0,0.0,0.0,0.0,0.0,0.0,0.0,0.0,0.0,0.0,0.0,0.0,0.0,0.0,0.0,0.0,0.0,0.0,0.0,0.0,0.0,0.0,0.0,0.0,0.0,1.998,2.0054,1.9913,1.9506,1.9074,1.8811,0.0,0.0,0.0,0.0,0.0,0.0,0.0,0.0,0.0,0.0,0.0,0.0,0.0,0.0,0.0,0.0,0.0,0.0,0.0,0.0,0.0,0.0,0.0,0.0,0.0,0.0,0.0,0.0,0.0,0.0,0.0,0.0,0.0,0.0,0.0,0.0,0.0,0.0,0.0,0.0,0.0,0.0,0.0,0.0,0.0,0.0,0.0,0.0,0.0,0.0,0.0,0.0,0.0,0.0,0.0,0.0,0.0,0.0,0.0,0.0,0.0,0.0,0.0,0.0,0.0,0.0,0.0,0.0,0.0,0.0,0.0,0.0,0.0,0.0,0.0,0.0,0.0,0.0,0.0,0.0,0.0,0.0,0.0,0.0,0.0,0.0,0.0,0.0,0.0,0.0,0.0,0.0,0.0,0.0,0.0,0.0,0.0,0.0,0.0,0.0,0.0,0.0,0.0,0.0,0.0,0.0,0.0,0.0,2.0541,2.0087,1.9947,2.0201,2.012,1.9646,0.0,0.0,0.0,0.0,0.0,0.0,0.0,0.0,0.0,0.0,0.0,0.0,0.0,0.0,0.0,0.0,0.0,0.0,0.0,0.0,0.0,0.0,0.0,0.0,0.0,0.0,0.0,0.0,0.0,0.0,0.0,0.0,0.0,0.0,0.0,0.0,0.0,0.0,0.0,0.0,0.0,0.0,0.0,0.0,0.0,0.0,0.0,0.0,0.0,0.0,0.0,0.0,0.0,0.0,0.0,0.0,0.0,0.0,0.0,0.0,0.0,0.0,0.0,0.0,0.0,0.0,0.0,0.0,0.0,0.0,0.0,0.0,0.0,0.0,0.0,0.0,0.0,0.0,0.0,0.0,0.0,0.0,0.0,0.0,0.0,0.0,0.0,0.0,0.0,0.0,0.0,0.0,0.0,0.0,0.0,0.0,0.0,0.0,0.0,0.0,0.0,0.0,0.0,0.0,0.0,0.0,0.0,0.0,0.0,1.982,1.9813,2.0034,2.0474,1.9793,1.9141,0.0,0.0,0.0,0.0,0.0,0.0,0.0,0.0,0.0,0.0,0.0,0.0,0.0,0.0,0.0,0.0,0.0,0.0,0.0,0.0,0.0,0.0,0.0,0.0,0.0,0.0,0.0,0.0,0.0,0.0,0.0,0.0,0.0,0.0,0.0,0.0,0.0,0.0,0.0,0.0,0.0,0.0,0.0,0.0,0.0,0.0,0.0,0.0,0.0,0.0,0.0,0.0,0.0,0.0,0.0,0.0,0.0,0.0,0.0,0.0,0.0,0.0,0.0,0.0,0.0,0.0,0.0,0.0,0.0,0.0,0.0,0.0,0.0,0.0,0.0,0.0,0.0,0.0,0.0,0.0,0.0,0.0,0.0,0.0,0.0,0.0,0.0,0.0,0.0,0.0,0.0,0.0,0.0,0.0,0.0,0.0,0.0,0.0,0.0,0.0,0.0,0.0,0.0,0.0,0.0,0.0,0.0,0.0,0.0,1.9646,0.0,2.0227,2.0481,1.9673,1.8985,0.0,0.0,0.0,0.0,0.0,0.0,0.0,0.0,0.0,0.0,0.0,0.0,0.0,0.0,0.0,0.0,0.0,0.0,0.0,0.0,0.0,0.0,0.0,0.0,0.0,0.0,0.0,0.0,0.0,0.0,0.0,0.0,0.0,0.0,0.0,0.0,0.0,0.0,0.0,0.0,0.0,0.0,0.0,0.0,0.0,0.0,0.0,0.0,0.0,0.0,0.0,0.0,0.0,0.0,0.0,0.0,0.0,0.0,0.0,0.0,0.0,0.0,0.0,0.0,0.0,0.0,0.0,0.0,0.0,0.0,0.0,0.0,0.0,0.0,0.0,0.0,0.0,0.0,0.0,0.0,0.0,0.0,0.0,0.0,0.0,0.0,0.0,0.0,0.0,0.0,0.0,0.0,0.0,0.0,0.0,0.0,0.0,0.0,0.0,0.0,0.0,0.0,0.0,0.0,0.0,0.0,0.0,0.0,1.9639,2.0187,2.0481,2.0514,2.0254,1.9927,1.9098,0.0,0.0,0.0,0.0,0.0,0.0,0.0,0.0,0.0,0.0,0.0,0.0,0.0,0.0,0.0,0.0,0.0,0.0,0.0,0.0,0.0,0.0,0.0,0.0,0.0,0.0,0.0,0.0,0.0,0.0,0.0,0.0,0.0,0.0,0.0,0.0,0.0,0.0,0.0,0.0,0.0,0.0,0.0,0.0,0.0,0.0,0.0,0.0,0.0,0.0,0.0,0.0,0.0,0.0,0.0,0.0,0.0,0.0,0.0,0.0,0.0,0.0,0.0,0.0,0.0,0.0,0.0,0.0,0.0,0.0,0.0,0.0,0.0,0.0,0.0,0.0,0.0,0.0,0.0,0.0,0.0,0.0,0.0,0.0,0.0,0.0,0.0,0.0,0.0,0.0,0.0,0.0,0.0,0.0,0.0,0.0,0.0,0.0,0.0,0.0,0.0,0.0,0.0,0.0,0.0,0.0,0.0,0.0,0.0,1.9646,2.0114,2.0521,2.0782,1.9766,1.9078,0.0,0.0,0.0,0.0,0.0,0.0,0.0,0.0,0.0,0.0,0.0,0.0,0.0,0.0,0.0,0.0,0.0,0.0,0.0,0.0,0.0,0.0,0.0,0.0,0.0,0.0,0.0,0.0,0.0,0.0,0.0,0.0,0.0,0.0,0.0,0.0,0.0,0.0,0.0,0.0,0.0,0.0,0.0,0.0,0.0,0.0,0.0,0.0,0.0,0.0,0.0,0.0,0.0,0.0,0.0,0.0,0.0,0.0,0.0,0.0,0.0,0.0,0.0,0.0,0.0,0.0,0.0,0.0,0.0,0.0,0.0,0.0,0.0,0.0,0.0,0.0,0.0,0.0,0.0,0.0,0.0,0.0,0.0,0.0,0.0,0.0,0.0,0.0,0.0,0.0,0.0,0.0,0.0,0.0,0.0,0.0,0.0,0.0,0.0,0.0,0.0,0.0,0.0,0.0,0.0,0.0,0.0,0.0,0.0,1.988,2.0528,2.0955,2.1102,2.0007,1.9239,1.8865,0.0,0.0,0.0,0.0,0.0,0.0,0.0,0.0,0.0,0.0,0.0,0.0,0.0,0.0,0.0,0.0,0.0,0.0,0.0,0.0,0.0,0.0,0.0,0.0,0.0,0.0,0.0,0.0,0.0,0.0,0.0,0.0,0.0,0.0,0.0,0.0,0.0,0.0,0.0,0.0,0.0,0.0,0.0,0.0,0.0,0.0,0.0,0.0,0.0,0.0,0.0,0.0,0.0,0.0,0.0,0.0,0.0,0.0,0.0,0.0,0.0,0.0,0.0,0.0,0.0,0.0,0.0,0.0,0.0,0.0,0.0,0.0,0.0,0.0,0.0,0.0,0.0,0.0,0.0,0.0,0.0,0.0,0.0,0.0,0.0,0.0,0.0,0.0,0.0,0.0,0.0,0.0,0.0,0.0,0.0,0.0,0.0,0.0,0.0,0.0,0.0,0.0,0.0,0.0,0.0,0.0,0.0,0.0,2.0722,2.1617,2.181,2.1236,2.0575,1.9527,0.0,0.0,0.0,0.0,0.0,0.0,0.0,0.0,0.0,0.0,0.0,0.0,0.0,0.0,0.0,0.0,0.0,0.0,0.0,0.0,0.0,0.0,0.0,0.0,0.0,0.0,0.0,0.0,0.0,0.0,0.0,0.0,0.0,0.0,0.0,0.0,0.0,0.0,0.0,0.0,0.0,0.0,0.0,0.0,0.0,0.0,0.0,0.0,0.0,0.0,0.0,0.0,0.0,0.0,0.0,0.0,0.0,0.0,0.0,0.0,0.0,0.0,0.0,0.0,0.0,0.0,0.0,0.0,0.0,0.0,0.0,0.0,0.0,0.0,0.0,0.0,0.0,0.0,0.0,0.0,0.0,0.0,0.0,0.0,0.0,0.0,0.0,0.0,0.0,0.0,0.0,0.0,0.0,0.0,0.0,0.0,0.0,0.0,0.0,0.0,0.0,0.0,0.0,0.0,0.0,0.0,0.0,0.0,0.0,2.1393,2.2619,2.302,2.2398,2.0995,1.9993,0.0,0.0,0.0,0.0,0.0,0.0,0.0,0.0,0.0,0.0,0.0,0.0,0.0,0.0,0.0,0.0,0.0,0.0,0.0,0.0,0.0,0.0,0.0,0.0,0.0,0.0,0.0,0.0,0.0,0.0,0.0,0.0,0.0,0.0,0.0,0.0,0.0,0.0,0.0,0.0,0.0,0.0,0.0,0.0,0.0,0.0,0.0,0.0,0.0,0.0,0.0,0.0,0.0,0.0,0.0,0.0,0.0,0.0,0.0,0.0,0.0,0.0,0.0,0.0,0.0,0.0,0.0,0.0,0.0,0.0,0.0,0.0,0.0,0.0,0.0,0.0,0.0,0.0,0.0,0.0,0.0,0.0,0.0,0.0,0.0,0.0,0.0,0.0,0.0,0.0,0.0,0.0,0.0,0.0,0.0,0.0,0.0,0.0,0.0,0.0,0.0,0.0,0.0,0.0,0.0,0.0,0.0,0.0,2.2193,2.3002,2.4525,2.5158,2.4644,2.2331,2.0795,0.0,0.0,0.0,0.0,0.0,0.0,0.0,0.0,0.0,0.0,0.0,0.0,0.0,0.0,0.0,0.0,0.0,0.0,0.0,0.0,0.0,0.0,0.0,0.0,0.0,0.0,0.0,0.0,0.0,0.0,0.0,0.0,0.0,0.0,0.0,0.0,0.0,0.0,0.0,0.0,0.0,0.0,0.0,0.0,0.0,0.0,0.0,0.0,0.0,0.0,0.0,0.0,0.0,0.0,0.0,0.0,0.0,0.0,0.0,0.0,0.0,0.0,0.0,0.0,0.0,0.0,0.0,0.0,0.0,0.0,0.0,0.0,0.0,0.0,0.0,0.0,0.0,0.0,0.0,0.0,0.0,0.0,0.0,0.0,0.0,0.0,0.0,0.0,0.0,0.0,0.0,0.0,0.0,0.0,0.0,0.0,0.0,0.0,0.0,0.0,0.0,0.0,0.0,0.0,0.0,0.0,0.0,0.0,2.4589,2.5274,2.6941,2.7629,2.7281,2.4262,2.1815,0.0,0.0,0.0,0.0,0.0,0.0,0.0,0.0,0.0,0.0,0.0,0.0,0.0,0.0,0.0,0.0,0.0,0.0,0.0,0.0,0.0,0.0,0.0,0.0,0.0,0.0,0.0,0.0,0.0,0.0,0.0,0.0,0.0,0.0,0.0,0.0,0.0,0.0,0.0,0.0,0.0,0.0,0.0,0.0,0.0,0.0,0.0,0.0,0.0,0.0,0.0,0.0,0.0,0.0,0.0,0.0,0.0,0.0,0.0,0.0,0.0,0.0,0.0,0.0,0.0,0.0,0.0,0.0,0.0,0.0,0.0,0.0,0.0,0.0,0.0,0.0,0.0,0.0,0.0,0.0,0.0,0.0,0.0,0.0,0.0,0.0,0.0,0.0,0.0,0.0,0.0,0.0,0.0,0.0,0.0,0.0,0.0,0.0,0.0,0.0,0.0,0.0,0.0,0.0,0.0,0.0,0.0,0.0,2.6563,2.7654,2.8988,2.9638,2.962,2.5612,2.3269,0.0,0.0,0.0,0.0,0.0,0.0,0.0,0.0,0.0,0.0,0.0,0.0,0.0,0.0,0.0,0.0,0.0,0.0,0.0,0.0,0.0,0.0,0.0,0.0,0.0,0.0,0.0,0.0,0.0,0.0,0.0,0.0,0.0,0.0,0.0,0.0,0.0,0.0,0.0,0.0,0.0,0.0,0.0,0.0,0.0,0.0,0.0,0.0,2.2791,0.0,0.0,0.0,0.0,0.0,0.0,0.0,0.0,0.0,0.0,0.0,0.0,0.0,0.0,0.0,0.0,0.0,0.0,0.0,0.0,0.0,0.0,0.0,0.0,0.0,0.0,0.0,0.0,0.0,0.0,0.0,0.0,0.0,0.0,0.0,0.0,0.0,0.0,0.0,0.0,0.0,0.0,0.0,0.0,0.0,0.0,0.0,0.0,0.0,0.0,0.0,0.0,0.0,0.0,0.0,0.0,0.0,0.0,0.0,2.8861,3.0001,3.1073,3.1581,3.1262,2.8527,2.6291,0.0,0.0,0.0,0.0,0.0,0.0,0.0,0.0,0.0,0.0,0.0,0.0,0.0,0.0,0.0,0.0,0.0,0.0,0.0,0.0,0.0,0.0,0.0,0.0,0.0,0.0,0.0,0.0,0.0,0.0,0.0,0.0,0.0,0.0,0.0,0.0,0.0,0.0,0.0,0.0,0.0,0.0,0.0,0.0,0.0,0.0,0.0,0.0,0.0,0.0,0.0,0.0,0.0,0.0,0.0,0.0,0.0,0.0,0.0,0.0,0.0,0.0,0.0,0.0,0.0,0.0,0.0,0.0,0.0,0.0,0.0,0.0,0.0,0.0,0.0,0.0,0.0,0.0,0.0,0.0,0.0,0.0,0.0,0.0,0.0,0.0,0.0,0.0,0.0,0.0,0.0,0.0,0.0,0.0,0.0,0.0,0.0,0.0,0.0,0.0,0.0,0.0,0.0,0.0,0.0,0.0,0.0,3.0181,3.0991,3.236,3.3157,3.3349,3.2916,3.1674,2.9681,2.6738,0.0,0.0,0.0,0.0,0.0,0.0,0.0,0.0,0.0,0.0,0.0,0.0,0.0,0.0,0.0,0.0,0.0,0.0,0.0,0.0,0.0,0.0,0.0,0.0,0.0,0.0,0.0,0.0,0.0,0.0,0.0,0.0,0.0,0.0,0.0,0.0,0.0,0.0,2.6054,2.6807,0.0,0.0,0.0,0.0,0.0,0.0,0.0,0.0,2.7197,0.0,0.0,0.0,0.0,0.0,0.0,0.0,0.0,0.0,0.0,0.0,0.0,0.0,0.0,0.0,0.0,0.0,0.0,0.0,0.0,0.0,0.0,0.0,0.0,0.0,0.0,0.0,0.0,0.0,0.0,0.0,0.0,0.0,0.0,0.0,0.0,0.0,0.0,0.0,0.0,0.0,0.0,0.0,0.0,0.0,0.0,0.0,0.0,0.0,0.0,0.0,0.0,0.0,0.0,0.0,0.0,3.1152,3.1227,3.242,3.4719,3.4931,3.5037,3.4864,3.364,3.1869,2.9555,0.0,0.0,0.0,0.0,0.0,0.0,0.0,0.0,0.0,0.0,0.0,0.0,0.0,0.0,0.0,0.0,0.0,0.0,0.0,0.0,0.0,0.0,0.0,0.0,0.0,0.0,0.0,0.0,0.0,0.0,0.0,0.0,0.0,0.0,0.0,0.0,0.0,0.0,0.0,2.8291,2.8809,0.0,0.0,0.0,0.0,0.0,0.0,0.0,0.0,2.7717,0.0,0.0,0.0,0.0,0.0,0.0,0.0,0.0,0.0,0.0,0.0,0.0,0.0,0.0,0.0,0.0,0.0,0.0,0.0,0.0,0.0,0.0,0.0,0.0,0.0,0.0,0.0,0.0,0.0,0.0,0.0,0.0,0.0,0.0,0.0,0.0,0.0,0.0,0.0,0.0,0.0,0.0,0.0,0.0,0.0,0.0,0.0,0.0,0.0,0.0,0.0,0.0,0.0,0.0,0.0,3.0762,3.1924,3.333,3.4961,3.5029,3.4922,3.4697,3.3447,3.1855,0.0,0.0,0.0,0.0,0.0,0.0,0.0,0.0,0.0,0.0,0.0,0.0,0.0,0.0,0.0,0.0,0.0,0.0,0.0,0.0,0.0,0.0,0.0,0.0,0.0,0.0,0.0,0.0,0.0,0.0,0.0,0.0,0.0,0.0,0.0,0.0,0.0,0.0,0.0,0.0,2.8984,2.9492,3.0166,0.0,0.0,0.0,0.0,0.0,0.0,2.7744,2.7539,0.0,0.0,0.0,0.0,0.0,0.0,0.0,0.0,0.0,0.0,0.0,0.0,0.0,0.0,0.0,0.0,0.0,0.0,0.0,0.0,0.0,0.0,0.0,0.0,0.0,0.0,0.0,0.0,0.0,0.0,0.0,0.0,0.0,0.0,0.0,0.0,0.0,0.0,0.0,0.0,0.0,0.0,0.0,0.0,0.0,0.0,0.0,0.0,0.0,0.0,0.0,0.0,0.0,0.0,0.0,3.0215,3.207,3.3584,3.4629,3.4619,3.4414,3.4062,3.2816,3.1319,0.0,0.0,0.0,0.0,0.0,0.0,0.0,0.0,0.0,0.0,0.0,0.0,0.0,0.0,0.0,0.0,0.0,0.0,0.0,0.0,0.0,0.0,0.0,0.0,0.0,0.0,0.0,0.0,0.0,0.0,0.0,0.0,0.0,0.0,0.0,0.0,0.0,0.0,0.0,0.0,0.0,3.0704,3.1164,3.026,0.0,0.0,0.0,0.0,2.8031,2.79,0.0,0.0,0.0,0.0,0.0,0.0,0.0,0.0,0.0,0.0,0.0,0.0,0.0,0.0,0.0,0.0,0.0,0.0,0.0,0.0,0.0,0.0,0.0,0.0,0.0,0.0,0.0,0.0,0.0,0.0,0.0,0.0,0.0,0.0,0.0,0.0,0.0,0.0,0.0,0.0,0.0,0.0,0.0,0.0,0.0,0.0,0.0,0.0,0.0,0.0,0.0,0.0,0.0,0.0,0.0,0.0,3.0146,3.1211,3.2695,3.456,3.4336,3.4185,3.4043,3.2461,3.0967,0.0,0.0,0.0,0.0,0.0,0.0,0.0,0.0,0.0,0.0,0.0,0.0,0.0,0.0,0.0,0.0,0.0,0.0,0.0,0.0,0.0,0.0,0.0,0.0,0.0,0.0,0.0,0.0,0.0,0.0,0.0,0.0,0.0,0.0,0.0,0.0,0.0,0.0,0.0,0.0,0.0,3.3277,3.2518,3.2085,3.157,0.0,0.0,2.8848,2.9287,2.9961,0.0,0.0,0.0,0.0,0.0,0.0,0.0,0.0,0.0,0.0,0.0,0.0,0.0,0.0,0.0,0.0,0.0,0.0,0.0,0.0,0.0,0.0,0.0,0.0,0.0,0.0,0.0,0.0,0.0,0.0,0.0,0.0,0.0,0.0,0.0,0.0,0.0,0.0,0.0,0.0,0.0,0.0,0.0,0.0,0.0,0.0,0.0,0.0,0.0,0.0,0.0,0.0,0.0,0.0,0.0,2.9719,3.1201,3.273,3.4096,3.5255,3.4288,3.3584,3.335,3.168,3.0156,0.0,0.0,0.0,0.0,0.0,0.0,0.0,0.0,0.0,0.0,0.0,0.0,0.0,0.0,0.0,0.0,0.0,0.0,0.0,0.0,0.0,0.0,0.0,0.0,0.0,0.0,0.0,0.0,0.0,0.0,0.0,0.0,0.0,0.0,0.0,0.0,0.0,0.0,0.0,0.0,0.0,0.0,3.4545,3.377,0.0,0.0,0.0,3.106,3.2039,0.0,0.0,0.0,0.0,0.0,0.0,0.0,0.0,0.0,0.0,0.0,0.0,0.0,0.0,0.0,0.0,0.0,0.0,0.0,0.0,0.0,0.0,0.0,0.0,0.0,0.0,0.0,0.0,0.0,0.0,0.0,0.0,0.0,0.0,0.0,0.0,0.0,0.0,0.0,0.0,0.0,0.0,0.0,0.0,0.0,0.0,0.0,0.0,0.0,0.0,0.0,0.0,0.0,0.0,0.0,0.0,0.0,3.2244,3.4378,3.5721,3.6324,3.5108,3.4236,3.3892,3.2231,0.0,0.0,0.0,0.0,0.0,0.0,0.0,0.0,0.0,0.0,0.0,0.0,0.0,0.0,0.0,0.0,0.0,0.0,0.0,0.0,0.0,0.0,0.0,0.0,0.0,0.0,0.0,2.7657,0.0,0.0,0.0,0.0,0.0,0.0,0.0,0.0,0.0,0.0,0.0,0.0,0.0,0.0,3.6348,3.6211,3.5636,3.5556,0.0,0.0,3.3323,3.455,3.5235,3.4676,0.0,0.0,0.0,0.0,0.0,0.0,0.0,0.0,0.0,0.0,0.0,0.0,0.0,0.0,0.0,0.0,0.0,0.0,0.0,0.0,0.0,0.0,0.0,0.0,0.0,0.0,0.0,0.0,0.0,0.0,0.0,0.0,0.0,0.0,0.0,0.0,0.0,0.0,0.0,0.0,0.0,0.0,0.0,0.0,0.0,0.0,0.0,0.0,0.0,0.0,0.0,0.0,0.0,0.0,0.0,3.2964,3.5324,3.7074,3.7978,3.7469,3.7118,3.7052,3.5168,3.2888,0.0,0.0,0.0,0.0,0.0,0.0,0.0,0.0,0.0,0.0,0.0,0.0,0.0,0.0,0.0,0.0,0.0,0.0,0.0,0.0,0.0,0.0,0.0,0.0,0.0,0.0,0.0,0.0,0.0,0.0,0.0,0.0,0.0,0.0,0.0,0.0,0.0,0.0,0.0,0.0,0.0,3.7411,3.6975,3.7762,3.8549,0.0,0.0,3.5487,3.6059,3.7209,3.6845,3.3574,0.0,0.0,0.0,0.0,0.0,0.0,0.0,0.0,0.0,0.0,0.0,0.0,0.0,0.0,0.0,0.0,0.0,0.0,0.0,0.0,0.0,0.0,0.0,0.0,0.0,0.0,0.0,0.0,0.0,0.0,0.0,0.0,0.0,0.0,0.0,0.0,0.0,0.0,0.0,0.0,0.0,0.0,0.0,0.0,0.0,0.0,0.0,0.0,0.0,0.0,0.0,0.0,0.0,3.2953,3.393,3.634,3.791,3.8526,3.7529,3.6775,3.6474,3.5134,3.3238,0.0,0.0,0.0,0.0,0.0,0.0,0.0,0.0,0.0,0.0,0.0,0.0,0.0,0.0,0.0,0.0,0.0,0.0,0.0,0.0,0.0,0.0,0.0,0.0,0.0,0.0,0.0,0.0,3.0306,3.0444,3.0444,0.0,0.0,0.0,0.0,0.0,0.0,0.0,0.0,0.0,0.0,3.8588,3.9096,3.9412,0.0,0.0,3.9247,3.8225,3.9219,3.9496,3.8467,3.5118,3.3707,0.0,0.0,0.0,0.0,0.0,0.0,0.0,0.0,0.0,0.0,0.0,0.0,0.0,0.0,0.0,0.0,0.0,0.0,0.0,0.0,0.0,0.0,0.0,0.0,0.0,0.0,0.0,0.0,0.0,0.0,0.0,0.0,0.0,0.0,0.0,0.0,0.0,0.0,0.0,0.0,0.0,0.0,0.0,0.0,0.0,0.0,0.0,0.0,0.0,0.0,0.0,0.0,3.4068,3.5078,3.7557,3.9056,3.963,3.8424,3.7611,3.7296,3.6256,3.4555,0.0,0.0,0.0,0.0,0.0,0.0,0.0,0.0,0.0,0.0,0.0,0.0,0.0,0.0,0.0,0.0,0.0,0.0,0.0,0.0,0.0,0.0,0.0,0.0,0.0,0.0,0.0,0.0,3.1248,3.1085,3.0922,0.0,0.0,0.0,0.0,0.0,0.0,0.0,0.0,0.0,0.0,3.9396,4.0162,4.0222,4.0557,4.1547,4.0252,3.9577,4.0655,4.0526,3.9301,3.643,0.0,0.0,0.0,0.0,0.0,0.0,0.0,0.0,0.0,0.0,0.0,0.0,0.0,0.0,0.0,0.0,0.0,0.0,0.0,0.0,0.0,0.0,0.0,0.0,0.0,0.0,0.0,0.0,0.0,0.0,3.3167,0.0,0.0,0.0,0.0,0.0,0.0,0.0,0.0,0.0,0.0,0.0,0.0,0.0,0.0,0.0,0.0,0.0,0.0,0.0,0.0,0.0,0.0,3.5194,3.637,3.8955,4.0633,4.1159,4.0696,4.0302,4.0292,3.9331,3.7481,3.4655,0.0,0.0,0.0,0.0,0.0,0.0,0.0,0.0,0.0,0.0,0.0,0.0,0.0,0.0,0.0,0.0,0.0,0.0,0.0,0.0,0.0,0.0,0.0,0.0,0.0,0.0,3.1386,3.0947,3.0444,0.0,0.0,0.0,0.0,0.0,0.0,0.0,0.0,0.0,0.0,3.7575,3.9659,3.971,4.0134,4.0483,4.0601,3.9672,3.9132,3.9697,3.9735,3.9132,0.0,0.0,0.0,0.0,0.0,0.0,0.0,0.0,0.0,0.0,0.0,0.0,0.0,0.0,0.0,0.0,0.0,0.0,0.0,0.0,0.0,0.0,0.0,0.0,0.0,0.0,0.0,3.6503,3.6503,0.0,0.0,0.0,0.0,0.0,0.0,0.0,0.0,0.0,0.0,0.0,3.9576,3.9424,0.0,0.0,0.0,0.0,0.0,0.0,0.0,0.0,0.0,0.0,0.0,0.0,3.4713,3.5868,3.8191,3.9685,4.0224,4.0061,3.9973,3.9973,3.9258,3.7579,3.4808,0.0,0.0,0.0,0.0,0.0,0.0,0.0,0.0,0.0,0.0,0.0,0.0,0.0,0.0,0.0,0.0,0.0,0.0,0.0,0.0,0.0,0.0,0.0,0.0,0.0,3.1788,0.0,0.0,0.0,0.0,0.0,0.0,0.0,0.0,0.0,0.0,0.0,3.6075,3.6387,3.8013,3.9177,3.9184,3.9609,4.0224,0.0,0.0,0.0,0.0,0.0,0.0,0.0,0.0,0.0,0.0,0.0,0.0,0.0,0.0,3.427,3.048,2.9611,2.939,2.9246,0.0,0.0,0.0,0.0,0.0,0.0,0.0,0.0,0.0,0.0,0.0,0.0,0.0,0.0,3.9367,0.0,3.8852,0.0,0.0,0.0,0.0,0.0,0.0,0.0,0.0,4.1924,4.2883,4.2625,4.2467,4.2238,0.0,4.0588,3.8145,0.0,0.0,0.0,0.0,0.0,0.0,0.0,0.0,3.4906,3.634,3.8023,3.9132,3.9659,3.9697,3.9697,3.9685,3.9157,3.7839,3.5655,3.4116,3.278,0.0,0.0,0.0,0.0,0.0,0.0,0.0,0.0,0.0,0.0,0.0,0.0,0.0,0.0,0.0,0.0,0.0,0.0,0.0,0.0,0.0,0.0,0.0,3.3372,0.0,0.0,0.0,0.0,0.0,0.0,0.0,0.0,0.0,3.4695,3.6563,3.8103,3.8472,3.965,4.0279,3.9871,0.0,0.0,0.0,0.0,0.0,0.0,0.0,3.7764,3.7048,3.6797,3.6759,3.6897,3.7525,3.7826,3.7287,0.0,0.0,3.3338,3.2453,3.2273,3.2261,3.1993,3.1746,3.1854,3.2067,3.1968,0.0,0.0,0.0,0.0,0.0,0.0,0.0,0.0,4.1425,4.1735,0.0,4.0333,0.0,0.0,0.0,0.0,0.0,4.0836,0.0,0.0,4.6252,4.7279,4.5517,4.607,4.601,4.5379,4.4635,4.285,4.0166,3.7969,0.0,0.0,0.0,0.0,0.0,0.0,3.5865,3.8004,3.87,3.931,3.9865,3.9826,3.9839,3.9865,3.9348,3.8528,3.7369,3.6307,3.4936,3.3341,3.1751,0.0,0.0,0.0,0.0,0.0,0.0,0.0,0.0,0.0,0.0,0.0,0.0,0.0,0.0,0.0,0.0,0.0,0.0,0.0,0.0,3.53,0.0,0.0,0.0,0.0,0.0,0.0,0.0,0.0,0.0,0.0,3.7758,3.8533,3.9531,4.0623,0.0,0.0,0.0,0.0,4.1873,4.0216,3.9453,3.8898,3.841,3.8288,3.8175,3.8114,0.0,0.0,3.8128,3.8065,3.7965,3.7387,3.8203,3.8718,3.8053,3.6517,3.5495,3.5445,3.4196,3.3035,3.2974,3.3361,3.3188,4.7942,0.0,0.0,0.0,0.0,4.334,4.4097,4.4989,4.539,4.536,4.5066,4.4523,0.0,0.0,0.0,0.0,0.0,0.0,4.4546,4.5139,4.7805,4.8715,4.8191,4.8371,4.8072,4.7384,4.6292,4.5314,4.4454,4.2891,3.9729,3.5203,0.0,0.0,0.0,0.0,3.763,3.9905,4.0605,4.1389,4.2398,4.2412,4.2412,4.2412,4.1895,4.1221,4.0406,3.9685,3.8502,3.6791,3.5913,0.0,0.0,0.0,0.0,0.0,0.0,0.0,0.0,0.0,0.0,0.0,0.0,0.0,0.0,0.0,0.0,0.0,0.0,0.0,3.4334,3.498,3.5048,0.0,0.0,0.0,0.0,0.0,0.0,0.0,0.0,0.0,4.1433,4.1873,4.1884,0.0,0.0,4.1663,4.0495,4.1311,4.2086,4.2412,4.2418,0.0,0.0,4.2255,4.1099,4.0215,3.9737,3.927,3.8718,3.927,3.9609,3.9057,3.9233,3.9408,3.922,3.8541,3.794,3.784,3.7453,3.7276,3.7619,3.7704,3.7321,5.1577,4.8422,4.6946,4.6311,4.6404,4.6949,4.7633,4.8368,4.8684,4.8641,4.8207,4.7444,4.6292,4.4814,4.3838,0.0,0.0,0.0,4.6352,4.7549,4.897,4.9523,4.9314,4.9299,4.897,4.8296,4.7204,4.6576,4.6307,4.496,4.2385,3.873,0.0,0.0,3.7743,3.7851,3.9061,4.1303,4.1602,4.2288,4.3462,4.349,4.349,4.349,4.3191,4.2721,4.2113,4.1505,4.0551,3.9309,3.8256,3.6992,0.0,0.0,0.0,0.0,0.0,0.0,0.0,0.0,0.0,0.0,0.0,3.1703,3.1612,0.0,0.0,0.0,3.3778,3.539,3.6413,3.6649,0.0,0.0,0.0,0.0,0.0,0.0,0.0,3.9136,4.0695,4.2197,4.3534,4.3943,4.3939,4.3541,4.3487,4.3133,4.2181,0.0,4.3678,4.3839,4.3951,4.4195,4.4608,4.3798,4.2797,4.2072,4.1537,4.0915,4.0143,4.0542,4.0632,3.9927,3.9697,3.9697,3.9697,3.9421,3.9246,3.9195,3.9195,3.932,3.9647,3.9697,3.9413,5.4281,5.4087,5.1727,5.0617,5.0495,5.1078,5.1287,5.1304,5.1289,5.1229,5.1005,4.9314,4.8276,4.7596,4.5157,0.0,4.6771,4.6846,4.794,4.9644,5.011,5.0019,4.9434,4.9299,4.8895,4.8177,4.7593,4.6995,4.6324,4.505,4.4062,4.3349,4.1715,4.059,3.9946,3.9448,4.0252,4.2437,4.2054,4.2411,4.3593,4.3634,4.3648,4.3751,4.3718,4.3487,4.2976,4.2332,4.1719,4.1051,3.9494,3.8056,3.68,0.0,0.0,0.0,0.0,0.0,0.0,0.0,0.0,0.0,0.0,0.0,0.0,0.0,0.0,0.0,3.5432,0.0,3.9427,3.9484,0.0,0.0,0.0,3.8646,3.8706,4.0479,4.1594,4.1534,0.0,0.0,4.4407,4.496,4.5633,4.6307,4.6307,4.6007,4.5379,4.5819,4.5939,4.4848,4.4758,4.4643,4.4551,4.411,4.3815,4.3651,4.3551,4.2978,4.2008,4.1726,4.1269,4.0364,3.9929,3.989,3.9826,3.9814,3.9697,3.9672,3.9672,3.9685,3.9697,3.9697,3.9697,5.4955,5.4995,5.5252,5.424,5.2501,5.265,5.2426,5.1977,5.1962,5.1394,5.0482,5.0873,5.1153,5.1306,5.0674,5.0627,5.1132,5.1613,5.2118,5.2508,5.1816,5.1146,5.047,4.9187,4.8177,4.7563,4.7384,4.7219,4.701,4.5708,4.4736,4.4047,4.2713,4.1689,4.1041,4.0914,4.1568,4.3068,4.2986,4.3554,4.4787,4.4846,4.511,4.561,4.5624,4.5551,4.5433,4.4801,4.4139,4.3492,4.2607,4.1504,4.0262,3.7744,0.0,0.0,0.0,0.0,0.0,0.0,0.0,0.0,0.0,3.4022,3.314,0.0,3.482,0.0,3.6813,3.885,4.0741,4.0008,0.0,0.0,4.0771,4.0913,4.1407,4.2716,4.3419,4.2925,4.4152,4.5065,4.5065,4.5663,4.6322,4.695,4.6187,4.5484,4.5334,4.6322,4.6969,4.6709,4.7362,4.8073,4.7696,4.6657,4.5492,4.5035,4.4149,4.3395,4.3122,4.3026,4.293,4.2593,4.1789,4.1219,4.1119,4.0415,3.98,3.9697,3.9697,3.9697,3.9697,3.9697,3.9697,5.6831,5.6863,5.7527,5.6793,5.5225,5.5225,5.4823,5.419,5.3836,5.311,5.2195,5.252,5.279,5.3038,5.2741,5.2733,5.307,5.3438,5.375,5.3981,5.3055,5.2272,5.159,5.0299,4.9314,4.8666,4.8666,4.8651,4.8589,4.7302,4.6217,4.5428,4.4134,4.2947,4.1871,4.1519,4.1893,4.2895,4.3494,4.4231,4.5244,4.5289,4.5334,4.5424,4.5439,4.5248,4.4964,4.4347,4.3863,4.3449,4.2821,4.1998,4.098,3.8975,3.7404,0.0,0.0,0.0,0.0,0.0,0.0,0.0,0.0,0.0,0.0,0.0,3.6731,3.7614,3.8661,3.9858,4.125,4.0995,4.1145,4.2147,4.2521,4.294,4.3624,4.4586,4.5024,4.468,4.5559,4.6187,4.6202,4.6516,4.689,4.7249,4.6651,4.6187,4.6247,4.6875,4.7309,4.7339,4.7923,4.8386,4.8401,4.751,4.6665,4.6298,4.5689,4.501,4.4442,4.4363,4.4163,4.3598,4.293,4.2461,4.2412,4.1419,4.0554,4.0453,4.007,3.9749,3.9697,3.9697,3.9697,5.8812,5.8812,5.8947,5.8667,5.8089,5.8027,5.7425,5.6381,5.573,5.5143,5.462,5.4147,5.4043,5.4116,5.3542,5.3623,5.4132,5.4067,5.4317,5.4793,5.3889,5.3118,5.2516,5.1668,5.0966,5.0413,5.0397,5.0397,5.0365,4.8973,4.7844,4.692,4.555,4.4048,4.2491,4.1866,4.1806,4.2276,4.3449,4.4347,4.49,4.484,4.4571,4.4092,4.4062,4.3798,4.3305,4.2701,4.2396,4.2381,4.1782,4.116,4.0651,3.9305,3.8302,0.0,3.6507,0.0,0.0,0.0,0.0,0.0,0.0,0.0,0.0,3.7689,3.8556,4.0367,4.0591,4.095,4.1683,4.2306,4.2865,4.3484,4.4182,4.4811,4.5379,4.6037,4.6441,4.6414,4.695,4.7309,4.7264,4.7309,4.7309,4.7309,4.7249,4.7174,4.7264,4.7279,4.7309,4.7309,4.7309,4.7459,4.7429,4.7326,4.7281,4.7266,4.7164,4.6916,4.5838,4.5644,4.5312,4.4349,4.3929,4.374,4.374,4.2689,4.1874,4.1838,4.0895,4.0032,3.9749,3.9697,3.9697,5.8812,5.8902,5.9843,6.0207,6.002,5.9745,5.7795,5.4814,5.4687,5.4777,5.5031,5.5519,5.6217,5.7042,5.6962,5.6962,5.7063,5.6439,5.6255,5.6302,5.4125,5.3044,5.2826,5.1311,5.0541,5.0413,5.0397,5.0397,5.0381,4.8973,4.7924,4.7187,4.5833,4.4327,4.2788,0.0,0.0,0.0,4.2381,4.283,4.2935,4.2387,4.2327,4.274,4.277,0.0,4.3245,4.2716,4.2396,4.2381,4.1767,0.0,0.0,0.0,0.0,0.0,0.0,0.0,0.0,0.0,0.0,0.0,3.8257,3.7808,3.8197,3.92,4.0217,4.1115,4.1722,4.2515,4.3643,4.3868,4.4197,4.4855,4.5544,4.595,4.6142,4.6711,4.7115,4.7115,4.7234,4.7309,4.7309,4.7309,4.7309,4.7309,4.7309,4.7309,4.7309,4.7309,4.7309,4.7309,4.7309,4.7309,4.7309,4.7309,4.7309,4.7309,4.7309,4.7207,4.6916,4.6887,4.6931,4.6447,4.5734,4.5024,4.5024,4.4008,4.3122,4.317,4.2133,4.0932,3.9929,3.9697,3.9697,6.0602,0.0,6.1218,6.128,0.0,6.0341,5.8617,5.6109,5.6142,5.6255,5.6521,5.6888,5.7389,5.7865,5.7509,5.7154,5.6782,5.6055,5.57,5.5614,5.3995,5.3432,5.3766,5.2517,5.1938,5.1918,5.1918,5.172,5.1292,5.0239,4.9126,4.799,4.6902,4.5761,4.4504,4.4488,4.3645,4.1916,4.2231,4.2545,4.2821,4.2521,4.2342,4.2396,0.0,0.0,0.0,0.0,0.0,0.0,0.0,0.0,0.0,0.0,0.0,4.0846,3.9933,3.9364,3.9379,3.9664,4.0347,4.1477,4.198,4.1597,4.0027,4.1539,4.2696,4.3046,4.3381,4.3975,4.488,4.4896,4.508,4.5738,4.6411,4.6773,4.6845,4.7085,4.7309,4.7309,4.7309,4.7309,4.7309,4.7309,4.7309,4.7309,4.7309,4.7309,4.7309,4.7309,4.7309,4.7309,4.7309,4.7309,4.7309,4.7309,4.7309,4.7309,4.7309,4.7309,4.7309,4.7309,4.7309,4.7266,4.6741,4.6358,4.6255,4.5298,4.4442,4.4303,4.3409,4.2048,4.0621,3.9982,3.9697,6.2398,6.2398,6.2398,6.1975,6.1247,6.0436,5.9252,5.7881,0.0,0.0,0.0,5.7831,5.7881,5.7884,5.7256,5.6596,5.5869,5.5141,5.4718,5.4549,5.3839,5.3822,5.4363,5.3788,5.3518,5.3518,5.3518,5.3078,5.23,5.1555,5.0439,4.8995,4.82,4.7357,4.6488,4.6295,4.5153,4.3198,4.2772,4.2906,4.3341,4.3124,4.2731,4.2231,4.2231,4.1976,4.1452,4.1422,4.1422,4.1422,4.1422,4.1543,4.1784,4.1821,4.1897,4.2002,4.2002,4.2017,4.2017,4.2515,4.3244,4.4185,4.5429,4.5108,4.2423,4.3976,4.5058,4.5058,4.5058,4.5354,4.6079,4.596,4.6152,4.694,4.7516,4.7892,4.7849,4.7864,4.7961,4.7849,4.7779,4.7566,4.7609,4.7424,4.7309,4.7309,4.7309,4.7309,4.7309,4.7309,4.7309,4.7309,4.7309,4.7309,4.7309,4.7309,4.7309,4.7309,4.7309,4.7309,4.7309,4.7309,4.7309,4.7309,4.7309,4.7266,4.7207,4.6403,4.5779,4.5734,4.4588,4.3261,4.1794,4.0509,3.9664,6.2398,6.2398,6.2398,6.1975,6.1247,6.0436,5.9268,5.7865,5.7239,5.6951,5.6985,5.7611,5.7881,5.7881,5.778,5.734,5.6613,5.5886,5.5209,0.0,5.3839,5.3551,5.3653,5.3551,5.3518,5.3518,5.3501,5.3095,5.23,5.1555,5.0732,4.9909,4.9184,4.8338,4.7406,4.6592,4.6035,4.5639,4.4278,4.3658,4.3698,4.2365,4.1609,4.1519,4.1625,4.1489,4.1437,4.1437,4.1422,4.1422,4.1422,4.201,4.3353,4.3472,4.375,4.4247,4.4308,4.4308,4.4293,4.4401,4.4865,4.5762,4.609,4.5971,4.5599,4.5814,4.6012,4.6012,4.6012,4.6554,4.7712,4.785,4.8247,4.9527,4.9867,4.9931,4.9868,4.9813,4.9829,4.9789,4.911,4.861,4.846,4.7834,4.7381,4.7309,4.7309,4.7309,4.7309,4.7309,4.7309,4.7309,4.7309,4.7309,4.7309,4.7309,4.7309,4.7309,4.7309,4.7309,4.7309,4.7309,4.7309,4.7309,4.7309,4.7309,4.7309,4.7207,4.6872,4.6725,4.5432,4.4122,4.3489,4.1569,3.954,6.2398,6.2398,6.2398,6.1958,6.1214,6.0013,5.8896,5.7898,5.7543,5.7391,5.7425,5.7746,5.7881,5.7865,5.7476,5.6681,5.5564,5.4854,5.411,5.3348,5.301,5.3078,5.3484,5.3518,5.3518,5.3484,5.3061,5.2452,5.1691,5.0963,5.0219,4.9526,4.9154,4.8781,4.837,4.7933,4.7737,4.7688,4.6009,4.5108,4.5092,4.4377,4.4003,4.4003,4.4003,4.4019,4.4019,4.4019,4.4019,4.4003,4.4003,4.4309,4.504,4.5108,4.5214,4.553,4.5561,4.5561,4.5561,4.6028,4.6504,4.6902,4.744,4.7721,4.7737,4.7239,4.6936,4.6952,4.6952,4.7537,4.8865,4.8615,4.8861,5.0253,5.0397,5.0397,5.0397,5.0397,5.0397,5.0358,4.997,4.9456,4.8866,4.8403,4.7834,4.7467,4.7309,4.7309,4.7309,4.7309,4.7309,4.7309,4.7309,4.7309,4.7309,4.7309,4.7309,4.7309,4.7309,4.7309,4.7309,4.7309,4.7309,4.7309,4.7309,4.7309,4.7294,4.6995,4.683,4.6653,4.5862,4.4731,4.3531,4.1499,3.9487,6.2398,6.2381,6.2212,6.162,6.0689,5.9336,5.8423,5.7898,5.7881,5.7881,5.7881,5.7881,5.7881,5.7831,5.7289,5.6241,5.4905,5.4262,5.3501,5.2638,5.257,5.2909,5.345,5.3518,5.3518,5.3416,5.2672,5.1944,5.12,5.0473,4.9712,4.9086,4.9018,4.9018,4.9018,4.9018,4.9018,4.8909,4.7556,4.673,4.6523,4.6314,4.6208,4.6208,4.6173,4.6208,4.6208,4.6208,4.6208,4.6208,4.6208,4.6314,4.6488,4.6539,4.6488,4.6523,4.6488,4.6523,4.6558,4.7389,4.7917,4.795,4.8576,4.9001,4.894,4.8338,4.7917,4.7917,4.8083,4.8696,4.9738,4.9649,4.9702,5.0918,5.1096,5.1225,5.1096,5.1112,5.1112,5.1112,5.0908,5.0397,4.9734,4.9296,4.8759,4.7919,4.7651,4.7566,4.7381,4.7309,4.7309,4.7309,4.7309,4.7309,4.7309,4.7309,4.7309,4.7309,4.7309,4.7309,4.7309,4.7309,4.7309,4.7309,4.7309,4.7204,4.7085,4.6711,4.6337,4.6085,4.5418,4.4484,4.2763,4.1454,3.9669,6.2381,6.2279,6.167,6.0554,5.9235,5.8372,5.7966,5.7898,5.7881,5.7881,5.7881,5.7881,5.7881,5.7881,5.778,5.6934,5.5615,5.553,5.4702,5.3467,5.3399,5.3433,5.3501,5.3518,5.3518,5.3416,5.2689,5.1928,5.12,5.0422,4.9695,4.9086,4.9018,4.9018,4.9018,4.9018,4.9018,4.9018,4.8829,4.8338,4.7489,4.6627,4.6208,4.6208,4.6208,4.6208,4.6314,4.6208,4.6208,4.6208,4.6244,4.6592,4.7356,4.7489,4.7473,4.7473,4.7489,4.7489,4.7523,4.8338,4.8829,4.8861,4.8956,4.9052,4.9052,4.8973,4.8877,4.8981,4.9502,5.0079,5.0986,5.1446,5.2,5.277,5.3007,5.323,5.3076,5.3195,5.323,5.3195,5.2293,5.1687,5.1377,5.0649,4.9773,4.8636,4.8486,4.8183,4.7452,4.7309,4.7309,4.7309,4.7309,4.7309,4.7309,4.7309,4.7309,4.7309,4.7309,4.7309,4.7309,4.7309,4.7309,4.7309,4.7234,4.704,4.6666,4.6279,4.6037,4.5454,4.4788,4.3857,4.2223,4.1603,4.0631,6.1755,6.167,6.0909,5.9996,5.8981,5.8203,5.7881,5.7881,5.7881,5.7881,5.7881,5.7881,5.7881,5.7848,5.7459,5.6681,5.5681,5.5243,5.4499,5.3551,5.3518,5.3518,5.3518,5.3518,5.3518,5.3433,5.2689,5.1944,5.1133,5.0033,4.9289,4.9035,4.9018,4.9018,4.9018,4.9018,4.9018,4.9018,4.9018,4.8781,4.845,4.8047,4.7836,4.7868,4.7836,4.7868,4.7868,4.7868,4.7868,4.7836,4.7885,4.8015,4.8401,4.8433,4.8433,4.8433,4.8433,4.8433,4.8433,4.8781,4.9018,4.9018,4.9407,4.9644,4.9678,5.005,5.0272,5.0272,5.0202,5.0388,5.115,5.1877,5.2621,5.3331,5.3518,5.3518,5.3518,5.3518,5.3518,5.3467,5.3144,5.2557,5.1921,5.1021,5.0009,4.9054,4.8784,4.8444,4.7495,4.7309,4.7309,4.7309,4.7309,4.7309,4.7309,4.7309,4.7309,4.7309,4.7309,4.7309,4.7309,4.7309,4.7309,4.7294,4.6995,4.6726,4.6426,4.5574,4.499,4.4616,4.4212,4.3413,4.2729,4.2603,4.185,6.0977,6.0842,6.0131,5.9387,5.866,5.8118,5.7881,5.7881,5.7881,5.7881,5.7881,5.7881,5.7881,5.778,5.7137,5.641,5.5647,5.4938,5.4194,5.3568,5.3518,5.3518,5.3518,5.3518,5.3518,5.3382,5.2689,5.1826,5.0879,4.9661,4.9018,4.9018,4.9018,4.9018,4.9018,4.9018,4.9018,4.9018,4.9018,4.9018,4.9001,4.9018,4.9018,4.9018,4.9018,4.9018,4.9018,4.9018,4.9018,4.9001,4.9018,4.9018,4.9018,4.9018,4.9018,4.9018,4.9018,4.9018,4.9018,4.9018,4.9103,4.9306,4.9813,5.0168,5.0439,5.0896,5.12,5.1117,5.0896,5.0997,5.1454,5.2198,5.2875,5.3433,5.3518,5.3518,5.3518,5.3518,5.3518,5.3518,5.3433,5.323,5.2383,5.1484,5.0512,4.9536,4.9256,4.8692,4.7722,4.748,4.7679,4.7381,4.7309,4.7309,4.7309,4.7309,4.7309,4.7309,4.7309,4.7309,4.7309,4.7309,4.7115,4.6935,4.6546,4.6052,4.5589,4.4751,4.4212,4.4003,4.3648,4.3319,4.317,4.325,4.2765,6.0165,6.003,5.937,5.8643,5.7932,5.7898,5.7881,5.7881,5.7881,5.7881,5.7881,5.7881,5.7881,5.7814,5.7087,5.6393,5.5666,5.4888,5.4177,5.3534,5.3518,5.3518,5.3518,5.3518,5.3518,5.345,5.279,5.1657,5.027,4.939,4.9018,4.9018,4.9018,4.9018,4.9018,4.9018,4.9018,4.9018,4.9018,4.9018,4.9018,4.9018,4.9018,4.9018,4.9018,4.9018,4.9018,4.9018,4.9018,4.9018,4.9018,4.9018,4.9018,4.9018,4.9018,4.9018,4.9018,4.9018,4.9018,4.9018,4.9289,4.9898,5.0101,5.0422,5.1099,5.1336,5.1422,5.1268,5.186,5.2181,5.23,5.2875,5.3365,5.3484,5.3518,5.3518,5.3518,5.3518,5.3518,5.3518,5.3518,5.3416,5.3314,5.2505,5.1467,5.0627,5.0336,4.9631,4.803,4.8141,4.8183,4.7566,4.7309,4.7309,4.7309,4.7309,4.7309,4.7309,4.7309,4.7264,4.7294,4.7249,4.6905,4.6546,4.6187,4.5603,4.4751,4.4227,4.3917,4.3693,4.3499,4.3305,4.3305,4.3305,4.2955,5.9116,5.866,5.8406,5.8135,5.7898,5.7881,5.7881,5.7881,5.7881,5.7881,5.7881,5.7881,5.7881,5.7831,5.663,5.597,5.558,5.4465,5.3754,5.3518,5.3518,5.3518,5.3518,5.3518,5.3518,5.3467,5.3213,5.2283,5.0811,4.961,4.9018,4.9018,4.9018,4.9018,4.9018,4.9018,4.9018,4.9018,4.9018,4.9018,4.9018,4.9018,4.9018,4.9018,4.9018,4.9018,4.9018,4.9018,4.9018,4.9018,4.9018,4.9018,4.9018,4.9018,4.9018,4.9018,4.9018,4.9018,4.9018,4.9018,4.9323,5.0016,5.0557,5.1099,5.1826,5.2367,5.2689,5.2723,5.2858,5.3061,5.3112,5.3348,5.3518,5.3518,5.3518,5.3518,5.3518,5.3518,5.3518,5.3518,5.3518,5.3518,5.3433,5.3144,5.2522,5.1578,5.1357,5.0381,4.8907,4.8651,4.8553,4.7651,4.7309,4.7309,4.7309,4.7309,4.7309,4.7309,4.7264,4.6995,4.6905,4.6726,4.6411,4.5798,4.5514,4.5068,4.4257,4.3858,4.3604,4.3499,4.3305,4.3305,4.3305,4.3305,4.313,5.8355,5.7915,5.7881,5.7881,5.7881,5.7881,5.7881,5.7881,5.7881,5.7881,5.7881,5.7881,5.7763,5.7374,5.6258,5.5564,5.5243,5.4059,5.3518,5.3518,5.3518,5.3518,5.3518,5.3518,5.3518,5.345,5.323,5.2536,5.1522,5.0067,4.939,4.9357,4.9154,4.9018,4.9018,4.9018,4.9018,4.9018,4.9018,4.9018,4.9018,4.9018,4.9018,4.9018,4.9018,4.9018,4.9018,4.9018,4.9018,4.9018,4.9018,4.9018,4.9018,4.9018,4.9018,4.9018,4.9018,4.9018,4.9018,4.9018,4.9424,5.0355,5.093,5.1606,5.257,5.3196,5.3467,5.3518,5.3518,5.3518,5.3518,5.3501,5.3518,5.3518,5.3518,5.3518,5.3518,5.3518,5.3518,5.3518,5.3518,5.3518,5.3433,5.3144,5.2627,5.1957,5.1902,5.1139,4.9758,4.9599,4.944,4.8517,4.8072,4.7919,4.7764,4.7651,4.7352,4.7309,4.7055,4.6713,4.6444,4.6247,4.5798,4.5155,4.4676,4.4317,4.3917,4.3559,4.3394,4.3319,4.3305,4.3305,4.3305,4.3305,4.317,5.7898,5.7881,5.7881,5.7881,5.7881,5.7881,5.7881,5.7881,5.7881,5.7881,5.7881,5.7881,5.7526,5.6816,5.6072,5.5344,5.4634,5.3856,5.3518,5.3518,5.3518,5.3518,5.3518,5.3518,5.3518,5.3467,5.2706,5.235,5.2131,5.0811,5.0084,4.9915,4.939,4.9103,4.9018,4.9018,4.9018,4.9018,4.9018,4.9018,4.9018,4.9018,4.9018,4.9018,4.9018,4.9018,4.9018,4.9018,4.9018,4.9018,4.9018,4.9018,4.9018,4.9018,4.9018,4.9018,4.9018,4.9018,4.9018,4.9018,4.9627,5.0811,5.12,5.1826,5.3078,5.345,5.3518,5.3518,5.3518,5.3518,5.3518,5.3518,5.3518,5.3518,5.3518,5.3518,5.3518,5.3518,5.3518,5.3518,5.3518,5.3518,5.3298,5.287,5.2329,5.2205,5.2082,5.1724,5.0703,5.0951,5.1192,5.0242,4.911,4.8403,4.8225,4.8003,4.7624,4.7249,4.689,4.6518,4.6292,4.6022,4.5379,4.4751,4.4302,4.3917,4.3678,4.3364,4.3349,4.3305,4.3305,4.3319,4.3305,4.3305,4.3305,5.7881,5.7881,5.7881,5.7881,5.7881,5.7881,5.7881,5.7881,5.7881,5.7881,5.7881,5.7881,5.7492,5.6765,5.6038,5.531,5.4566,5.3856,5.3518,5.3518,5.3518,5.3518,5.3518,5.3518,5.3518,5.3382,5.2689,5.2317,5.2147,5.1352,5.0625,5.0135,4.9898,4.9492,4.9069,4.9018,4.9018,4.9018,4.9018,4.9018,4.9018,4.9018,4.9018,4.9018,4.9018,4.9018,4.9018,4.9018,4.9018,4.9018,4.9018,4.9018,4.9018,4.9018,4.9018,4.9018,4.9018,4.9018,4.9018,4.9069,4.9661,5.083,5.1202,5.1961,5.323,5.3518,5.3518,5.3518,5.3518,5.3518,5.3518,5.3518,5.3518,5.3518,5.3518,5.3518,5.3518,5.3518,5.3518,5.3518,5.3518,5.3518,5.3467,5.3041,5.2921,5.2904,5.2904,5.2522,5.1813,5.174,5.1117,4.9655,4.9029,4.8677,4.8225,4.7849,4.7495,4.7219,4.6905,4.6531,4.6217,4.5753,4.5095,4.4631,4.4127,4.3813,4.3544,4.3454,4.3559,4.3424,4.3439,4.3409,4.3319,4.3305,4.3305,5.7881,5.7881,5.7881,5.7881,5.7881,5.7881,5.7881,5.7881,5.7881,5.7881,5.7881,5.7881,5.7323,5.6461,5.5919,5.5141,5.4194,5.3687,5.3518,5.3518,5.3518,5.3518,5.3518,5.3518,5.3518,5.3433,5.2976,5.2739,5.2706,5.1995,5.1369,5.098,5.0642,5.0135,4.9475,4.939,4.9306,4.9069,4.9018,4.9018,4.9018,4.9018,4.9018,4.9018,4.9018,4.9018,4.9018,4.9018,4.9018,4.9018,4.9018,4.9018,4.9018,4.9018,4.9018,4.9018,4.9035,4.9103,4.934,4.9475,5.005,5.1285,5.1623,5.2164,5.3213,5.3518,5.3518,5.3518,5.3518,5.3518,5.3518,5.3518,5.3518,5.3518,5.3518,5.3518,5.3518,5.3518,5.3518,5.3518,5.3518,5.3518,5.3518,5.3518,5.3518,5.3518,5.3467,5.3382,5.2662,5.2522,5.1357,5.0304,4.9836,4.9191,4.8157,4.7694,4.7396,4.7174,4.6965,4.6621,4.6292,4.5738,4.511,4.499,4.4631,4.4616,4.4392,4.4317,4.4317,4.4032,4.3823,4.3753,4.3753,4.3394,4.3319,5.7881,5.7881,5.7881,5.7881,5.7881,5.7881,5.7881,5.7881,5.7881,5.7881,5.7881,5.7881,5.7103,5.5987,5.5698,5.4972,5.3721,5.3551,5.3518,5.3518,5.3518,5.3518,5.3518,5.3518,5.3518,5.3501,5.345,5.3433,5.3331,5.2706,5.2334,5.208,5.1505,5.0913,5.0287,5.0135,4.983,4.9255,4.9137,4.912,4.9035,4.9018,4.9018,4.9018,4.9018,4.9018,4.9018,4.9018,4.9018,4.9018,4.9018,4.9018,4.9018,4.9018,4.9018,4.912,4.9086,4.9526,4.9965,5.0152,5.0727,5.1978,5.2215,5.2638,5.3348,5.3518,5.3518,5.3518,5.3518,5.3518,5.3518,5.3518,5.3518,5.3518,5.3518,5.3518,5.3518,5.3518,5.3518,5.3518,5.3518,5.3518,5.3518,5.3518,5.3518,5.3518,5.3518,5.3399,5.3314,5.299,5.2714,5.1704,5.0265,4.9191,4.8003,4.7566,4.7309,4.7249,4.71,4.686,4.6516,4.5963,4.5349,4.5229,4.5214,4.5229,4.514,4.4945,4.49,4.4811,4.4616,4.4451,4.4242,4.3947,4.3798,5.7881,5.7881,5.7881,5.7881,5.7881,5.7881,5.7881,5.7881,5.7881,5.7881,5.7881,5.7881,5.7087,5.5818,5.5681,5.4921,5.3839,5.3518,5.3518,5.3518,5.3518,5.3518,5.3518,5.3518,5.3518,5.3518,5.3518,5.3518,5.3484,5.3247,5.2858,5.2317,5.2147,5.1657,5.1031,5.093,5.0541,4.9915,4.9796,4.9492,4.9086,4.9018,4.9018,4.9018,4.9018,4.9018,4.9018,4.9018,4.9018,4.9018,4.9018,4.9018,4.9052,4.9086,4.9323,4.9712,4.983,5.0152,5.0744,5.0913,5.1386,5.2147,5.2401,5.2638,5.3416,5.3518,5.3518,5.3518,5.3518,5.3518,5.3518,5.3518,5.3518,5.3518,5.3518,5.3518,5.3518,5.3518,5.3518,5.3518,5.3518,5.3518,5.3518,5.3518,5.3518,5.3518,5.3518,5.3518,5.3433,5.2956,5.247,5.108,4.9773,4.8759,4.7946,4.7523,4.7294,4.7309,4.7249,4.7219,4.689,4.6516,4.5888,4.5424,4.5603,4.5663,4.5439,4.5214,4.5304,4.5589,4.5274,4.5065,4.5035,4.487,4.4781,5.7881,5.7881,5.7881,5.7881,5.7881,5.7881,5.7881,5.7881,5.7881,5.7881,5.7881,5.7881,5.7239,5.6207,5.5852,5.5091,5.4025,5.3636,5.3518,5.3518,5.3518,5.3518,5.3518,5.3518,5.3518,5.3518,5.3518,5.3518,5.3501,5.3518,5.323,5.2926,5.2807,5.2401,5.1725,5.164,5.1319,5.0659,5.0287,4.9847,4.9492,4.9154,4.9018,4.9018,4.9018,4.9103,4.939,4.9475,4.934,4.9171,4.9289,4.9458,4.9492,4.9779,5.0118,5.0557,5.0557,5.0896,5.1488,5.1674,5.2046,5.2638,5.2807,5.3044,5.3399,5.3518,5.3518,5.3518,5.3518,5.3518,5.3518,5.3518,5.3518,5.3518,5.3518,5.3518,5.3518,5.3518,5.3518,5.3518,5.3518,5.3518,5.3518,5.3518,5.3518,5.3518,5.3518,5.3518,5.3433,5.28,5.2117,5.1043,5.0381,4.9734,4.8963,4.846,4.7988,4.7876,4.7309,4.7309,4.7174,4.692,4.6636,4.6202,4.6157,4.6097,4.5978,4.5992,4.6262,4.6337,4.5963,4.5738,4.5723,4.5603,4.5544,5.7881,5.7881,5.7881,5.7881,5.7881,5.7881,5.7881,5.7881,5.7881,5.7881,5.7881,5.7881,5.7425,5.6782,5.6004,5.5294,5.4515,5.3805,5.3551,5.3518,5.3518,5.3518,5.3518,5.3518,5.3518,5.3518,5.3518,5.3518,5.3518,5.3518,5.3518,5.3382,5.3416,5.3112,5.2553,5.2418,5.2029,5.1369,5.0845,5.0473,5.0202,4.9779,4.956,4.9526,4.9509,4.9729,5.0084,5.0185,4.9949,4.9289,4.9864,5.0168,5.0304,5.0879,5.12,5.1302,5.1352,5.164,5.2266,5.2452,5.2689,5.3264,5.3416,5.3518,5.3518,5.3518,5.3518,5.3518,5.3518,5.3518,5.3518,5.3518,5.3518,5.3518,5.3518,5.3518,5.3518,5.3518,5.3518,5.3518,5.3518,5.3518,5.3518,5.3518,5.3518,5.3518,5.3518,5.3518,5.3348,5.2835,5.2348,5.176,5.134,5.1117,5.0304,4.9536,4.9029,4.861,4.7651,4.7294,4.7309,4.7189,4.7249,4.7115,4.6785,4.677,4.692,4.704,4.7115,4.701,4.6591,4.6471,4.6396,4.6202,4.6082,5.7881,5.7881,5.7881,5.7881,5.7881,5.7881,5.7881,5.7881,5.7881,5.7881,5.7881,5.7881,5.7476,5.6799,5.6105,5.5294,5.4668,5.3957,5.3518,5.3518,5.3518,5.3518,5.3518,5.3518,5.3518,5.3518,5.3518,5.3518,5.3518,5.3518,5.3518,5.3518,5.3501,5.3433,5.3247,5.3112,5.2841,5.2181,5.1843,5.1437,5.1014,5.0777,5.0608,5.0608,5.0642,5.076,5.0913,5.098,5.0896,5.0828,5.0896,5.1065,5.1048,5.12,5.1572,5.1978,5.2097,5.2418,5.3044,5.3196,5.3298,5.345,5.3518,5.3518,5.3518,5.3518,5.3518,5.3518,5.3518,5.3518,5.3518,5.3518,5.3518,5.3518,5.3518,5.3518,5.3518,5.3518,5.3518,5.3518,5.3518,5.3518,5.3518,5.3518,5.3518,5.3518,5.3518,5.3518,5.323,5.2904,5.2592,5.2277,5.1938,5.1667,5.132,5.0512,4.9876,4.9215,4.8267,4.7609,4.7609,4.7309,4.7309,4.7309,4.7249,4.7309,4.7309,4.7309,4.7219,4.7204,4.7174,4.7025,4.686,4.6711,4.6606,5.7881,5.7881,5.7881,5.7881,5.7881,5.7881,5.7881,5.7881,5.7881,5.7881,5.7881,5.7881,5.7662,5.7273,5.6562,5.5987,5.5446,5.4482,5.4025,5.394,5.3721,5.3518,5.3518,5.3518,5.3518,5.3518,5.3518,5.3518,5.3518,5.3518,5.3518,5.3518,5.3518,5.3501,5.3518,5.3518,5.3298,5.2858,5.2469,5.2097,5.1758,5.1386,5.1234,5.1234,5.1251,5.1336,5.1674,5.1725,5.1944,5.2181,5.2266,5.208,5.1877,5.208,5.2486,5.2773,5.2875,5.301,5.3416,5.3518,5.3484,5.3518,5.3518,5.3518,5.3518,5.3518,5.3518,5.3518,5.3518,5.3518,5.3518,5.3518,5.3518,5.3518,5.3518,5.3518,5.3518,5.3518,5.3518,5.3518,5.3518,5.3518,5.3518,5.3518,5.3518,5.3518,5.3518,5.3518,5.3518,5.3195,5.3059,5.2749,5.2381,5.2115,5.2043,5.1484,5.0703,4.9876,4.8907,4.8403,4.8225,4.7764,4.7309,4.7309,4.7309,4.7309,4.7309,4.7309,4.7309,4.7279,4.7264,4.7294,4.7249,4.704,4.6995,5.7881,5.7881,5.7881,5.7881,5.7881,5.7881,5.7881,5.7881,5.7881,5.7881,5.7881,5.7881,5.7848,5.7695,5.707,5.6731,5.6055,5.5243,5.4431,5.4126,5.3721,5.3534,5.3518,5.3518,5.3518,5.3518,5.3518,5.3518,5.3518,5.3518,5.3518,5.3518,5.3518,5.3518,5.3518,5.3518,5.3467,5.3315,5.2875,5.2587,5.2452,5.1995,5.1775,5.1775,5.1792,5.2012,5.2401,5.2536,5.2773,5.345,5.3518,5.3145,5.2875,5.3044,5.3518,5.3484,5.3416,5.3433,5.3467,5.3518,5.3518,5.3518,5.3518,5.3518,5.3518,5.3518,5.3518,5.3518,5.3518,5.3518,5.3518,5.3518,5.3518,5.3518,5.3518,5.3518,5.3534,5.3568,5.3704,5.3518,5.3518,5.3518,5.3518,5.3518,5.3518,5.3518,5.3518,5.3518,5.3518,5.3467,5.3314,5.323,5.2886,5.2731,5.2661,5.2059,5.1352,5.0859,4.9837,4.9399,4.9035,4.8377,4.7876,4.7381,4.7309,4.7309,4.7309,4.7309,4.7309,4.7309,4.7309,4.7309,4.7309,4.7309,4.7309,5.7881,5.7881,5.7881,5.7881,5.7881,5.7881,5.7881,5.7881,5.7881,5.7881,5.7881,5.7881,5.7881,5.7712,5.7137,5.6224,5.553,5.4938,5.4414,5.3991,5.3636,5.3518,5.3518,5.3518,5.3518,5.3518,5.3518,5.3518,5.3518,5.3518,5.3518,5.3518,5.3518,5.3518,5.3518,5.3518,5.3518,5.3518,5.3281,5.3179,5.3112,5.3027,5.2892,5.2892,5.2841,5.2993,5.3162,5.3281,5.3382,5.3501,5.3518,5.3416,5.3298,5.3416,5.3501,5.3518,5.3518,5.3518,5.3518,5.3518,5.3518,5.3518,5.3518,5.3518,5.3518,5.3518,5.3518,5.3518,5.3518,5.3518,5.3518,5.3518,5.3518,5.3518,5.3585,5.3636,5.3721,5.4025,5.4211,5.3923,5.3737,5.3619,5.3721,5.3788,5.3788,5.3771,5.3704,5.3602,5.3518,5.3518,5.3433,5.3433,5.3433,5.3365,5.3348,5.2572,5.1911,5.186,5.1156,5.0534,4.9995,4.9166,4.8569,4.824,4.7666,4.7309,4.7309,4.7309,4.7309,4.7309,4.7309,4.7309,4.7309,4.7309,4.7309,5.7881,5.7881,5.7881,5.7881,5.7881,5.7881,5.7881,5.7881,5.7881,5.7881,5.7881,5.7881,5.7881,5.778,5.7577,5.69,5.6292,5.5412,5.5006,5.4583,5.394,5.3518,5.3518,5.3518,5.3518,5.3518,5.3518,5.3518,5.3518,5.3518,5.3518,5.3518,5.3518,5.3518,5.3518,5.3518,5.3518,5.3518,5.3518,5.3518,5.3518,5.3518,5.3518,5.3518,5.3518,5.3518,5.3518,5.3518,5.3501,5.3518,5.3518,5.3518,5.3518,5.3518,5.3518,5.3518,5.3518,5.3518,5.3518,5.3518,5.3518,5.3518,5.3518,5.3518,5.3518,5.3518,5.3518,5.3518,5.3518,5.3518,5.3518,5.3534,5.3687,5.3991,5.4076,5.4245,5.4583,5.4955,5.4871,5.4651,5.482,5.4702,5.4228,5.4245,5.416,5.4042,5.394,5.3822,5.3704,5.3721,5.3822,5.3788,5.3856,5.3974,5.4008,5.3595,5.3019,5.289,5.267,5.2034,5.1361,5.0673,4.9939,4.9399,4.8656,4.8006,4.7352,4.7381,4.7352,4.7352,4.7309,4.7309,4.7309,4.7309,4.7309,5.7881,5.7881,5.7881,5.7881,5.7881,5.7881,5.7881,5.7881,5.7881,5.7881,5.7881,5.7881,5.7881,5.7865,5.7848,5.7746,5.7611,5.6308,5.5767,5.5091,5.4313,5.3721,5.3534,5.3518,5.3518,5.3518,5.3518,5.3518,5.3518,5.3518,5.3518,5.3518,5.3518,5.3518,5.3518,5.3518,5.3518,5.3518,5.3518,5.3518,5.3518,5.3518,5.3518,5.3518,5.3518,5.3518,5.3518,5.3518,5.3518,5.3518,5.3518,5.3518,5.3518,5.3518,5.3518,5.3518,5.3518,5.3518,5.3518,5.3518,5.3518,5.3518,5.3518,5.3518,5.3518,5.3518,5.3518,5.3518,5.3518,5.3653,5.3788,5.3754,5.4126,5.4617,5.4854,5.5006,5.5412,5.5716,5.5886,5.5852,5.6038,5.5716,5.5158,5.4921,5.4888,5.482,5.4702,5.4668,5.4549,5.4397,5.4397,5.4262,5.4313,5.4515,5.4651,5.482,5.4456,5.4351,5.4169,5.3772,5.312,5.2405,5.176,5.1147,5.0178,4.9484,4.8499,4.7709,4.7834,4.7834,4.7538,4.7352,4.7309,4.7309,4.7309,5.7881,5.7881,5.7881,5.7881,5.7881,5.7881,5.7881,5.7881,5.7881,5.7881,5.7881,5.7881,5.7881,5.7881,5.7881,5.7526,5.707,5.6697,5.6021,5.5209,5.4668,5.4143,5.3619,5.3518,5.3551,5.3534,5.3518,5.3518,5.3518,5.3518,5.3518,5.3518,5.3518,5.3518,5.3518,5.3518,5.3518,5.3518,5.3518,5.3518,5.3518,5.3518,5.3518,5.3518,5.3518,5.3518,5.3518,5.3518,5.3518,5.3518,5.3518,5.3518,5.3518,5.3518,5.3518,5.3518,5.3518,5.3518,5.3518,5.3518,5.3518,5.3518,5.3518,5.3518,5.3518,5.3518,5.3518,5.3518,5.3551,5.3822,5.4228,5.4431,5.4871,5.526,5.5598,5.5649,5.5919,5.6494,5.6647,5.6765,5.6867,5.6461,5.5953,5.5784,5.5597,5.5529,5.5497,5.5446,5.5294,5.5074,5.4989,5.4888,5.487,5.5091,5.5395,5.5547,5.5581,5.5581,5.5591,5.5377,5.4584,5.3934,5.3861,5.3161,5.2148,5.1391,5.0819,5.004,4.9087,4.8675,4.8729,4.8082,4.7324,4.7354,4.7578,5.7881,5.7881,5.7881,5.7881,5.7881,5.7881,5.7881,5.7881,5.7881,5.7881,5.7881,5.7881,5.7881,5.7881,5.7881,5.7729,5.7374,5.7002,5.6528,5.5801,5.5378,5.482,5.4296,5.4093,5.3991,5.3602,5.3518,5.3518,5.3518,5.3518,5.3518,5.3518,5.3518,5.3518,5.3518,5.3518,5.3518,5.3518,5.3518,5.3518,5.3518,5.3518,5.3518,5.3518,5.3518,5.3518,5.3518,5.3518,5.3518,5.3518,5.3518,5.3518,5.3518,5.3518,5.3518,5.3518,5.3518,5.3518,5.3518,5.3518,5.3534,5.3534,5.3534,5.3518,5.3518,5.3568,5.3568,5.3518,5.3907,5.4279,5.4668,5.4989,5.5598,5.6038,5.6325,5.6579,5.6748,5.7087,5.7425,5.756,5.7594,5.7137,5.6799,5.6782,5.6444,5.6004,5.6038,5.6089,5.5835,5.5497,5.548,5.553,5.5563,5.5698,5.6072,5.6325,5.6325,5.6427,5.6884,5.6571,5.5845,5.536,5.5288,5.5118,5.4402,5.3729,5.321,5.2139,5.1009,5.0489,5.0128,4.947,4.8824,4.8445,4.8625,5.7881,5.7881,5.7881,5.7881,5.7881,5.7881,5.7881,5.7881,5.7881,5.7881,5.7881,5.7881,5.7881,5.7881,5.7881,5.7848,5.7831,5.7306,5.6985,5.6664,5.6241,5.5581,5.4989,5.4702,5.4279,5.3771,5.3568,5.3534,5.3518,5.3518,5.3518,5.3518,5.3518,5.3518,5.3518,5.3518,5.3518,5.3534,5.3754,5.3737,5.3551,5.3518,5.3518,5.3518,5.3518,5.3518,5.3518,5.3518,5.3518,5.3518,5.3518,5.3518,5.3518,5.3518,5.3518,5.3518,5.3518,5.3653,5.3687,5.3704,5.3636,5.3771,5.4008,5.4279,5.4194,5.4042,5.4076,5.4245,5.4549,5.4905,5.5209,5.5733,5.6275,5.6765,5.7087,5.7442,5.7712,5.7695,5.7712,5.7729,5.7763,5.7797,5.7611,5.7729,5.7357,5.6613,5.6511,5.6697,5.6511,5.6173,5.6292,5.6444,5.6528,5.663,5.6816,5.7053,5.707,5.712,5.7594,5.7594,5.6814,5.6628,5.6634,5.6455,5.6173,5.601,5.5456,5.4153,5.2898,5.2324,5.1725,5.1153,5.0588,5.0085,4.9599,5.7881,5.7881,5.7881,5.7881,5.7881,5.7881,5.7881,5.7881,5.7881,5.7881,5.7881,5.7881,5.7881,5.7881,5.7881,5.7881,5.7865,5.7831,5.7425,5.7019,5.6681,5.6292,5.5716,5.5141,5.4685,5.4431,5.4143,5.3805,5.3619,5.3907,5.3704,5.3518,5.3602,5.3551,5.3518,5.3518,5.3518,5.3619,5.394,5.394,5.3653,5.3518,5.3518,5.3518,5.3518,5.3518,5.3518,5.3518,5.3518,5.3518,5.3518,5.3518,5.3518,5.3518,5.3518,5.367,5.3687,5.3957,5.4262,5.4042,5.3974,5.4482,5.4972,5.5243,5.5158,5.5412,5.5513,5.5344,5.5463,5.5869,5.6275,5.6765,5.707,5.7306,5.7526,5.7628,5.7814,5.7814,5.7831,5.7865,5.7881,5.7881,5.7881,5.7881,5.7881,5.7188,5.7137,5.7306,5.7408,5.7222,5.7374,5.7509,5.756,5.7628,5.7645,5.7679,5.7509,5.7476,5.7746,5.7848,5.7628,5.7628,5.7459,5.7442,5.7137,5.7442,5.7437,5.5888,5.4634,5.3962,5.3363,5.2844,5.2046,5.1314,5.0754,5.7881,5.7881,5.7881,5.7881,5.7881,5.7881,5.7881,5.7881,5.7881,5.7881,5.7881,5.7881,5.7881,5.7881,5.7881,5.7881,5.7881,5.7881,5.7662,5.7577,5.7374,5.7019,5.6461,5.6038,5.575,5.531,5.4955,5.4888,5.4921,5.4718,5.4837,5.4702,5.4025,5.3585,5.3518,5.3687,5.3619,5.3602,5.3788,5.3737,5.3636,5.3518,5.3518,5.3518,5.3518,5.3518,5.3518,5.3518,5.3518,5.3518,5.3534,5.3518,5.3551,5.3534,5.3754,5.4059,5.4126,5.4566,5.5006,5.4685,5.4549,5.5108,5.5547,5.5767,5.5886,5.5767,5.5733,5.5801,5.6173,5.6613,5.6697,5.7171,5.7611,5.7797,5.7881,5.7881,5.7881,5.7881,5.7881,5.7881,5.7881,5.7881,5.7881,5.7881,5.7881,5.7797,5.7848,5.7881,5.7881,5.7881,5.7881,5.7881,5.7881,5.7881,5.7881,5.7881,5.7881,5.7881,5.7881,5.7881,5.7881,5.7865,5.7746,5.7865,5.7881,5.7797,5.7538,5.6999,5.6369,5.5771,5.5199,5.4623,5.3697,5.2659,5.2169,5.7881,5.7881,5.7881,5.7881,5.7881,5.7881,5.7881,5.7881,5.7881,5.7881,5.7881,5.7881,5.7881,5.7881,5.7881,5.7881,5.7881,5.7881,5.7881,5.7831,5.7746,5.756,5.7205,5.6799,5.6376,5.6055,5.5767,5.5597,5.5529,5.5647,5.5581,5.526,5.4769,5.4363,5.4313,5.4363,5.4279,5.394,5.4076,5.3957,5.394,5.3873,5.411,5.4177,5.4313,5.4313,5.4228,5.4143,5.3923,5.3822,5.3687,5.3534,5.3585,5.3754,5.4093,5.4482,5.4888,5.5277,5.5649,5.57,5.5497,5.597,5.6376,5.6444,5.6359,5.6359,5.6579,5.6545,5.69,5.712,5.712,5.756,5.778,5.7881,5.7881,5.7881,5.7881,5.7881,5.7881,5.7881,5.7881,5.7881,5.7881,5.7881,5.7881,5.7881,5.7881,5.7881,5.7881,5.7881,5.7881,5.7881,5.7881,5.7881,5.7881,5.7881,5.7881,5.7881,5.7881,5.7881,5.7881,5.7881,5.7881,5.7881,5.7881,5.7881,5.7673,5.7361,5.7519,5.7673,5.6737,5.5588,5.5093,5.4099,5.3724,5.7881,5.7881,5.7881,5.7881,5.7881,5.7881,5.7881,5.7881,5.7881,5.7881,5.7881,5.7881,5.7881,5.7881,5.7881,5.7881,5.7881,5.7881,5.7881,5.7881,5.7881,5.7831,5.7594,5.7222,5.6951,5.6647,5.6376,5.6105,5.5919,5.6089,5.6004,5.597,5.5818,5.553,5.57,5.6308,5.5902,5.4871,5.526,5.5023,5.4718,5.4583,5.4888,5.5158,5.5242,5.5226,5.5124,5.4803,5.46,5.4515,5.411,5.394,5.3907,5.4346,5.4668,5.4854,5.5412,5.6021,5.6664,5.6714,5.6731,5.6799,5.712,5.7408,5.7645,5.7712,5.756,5.7323,5.7628,5.7746,5.7814,5.7865,5.7865,5.7881,5.7881,5.7881,5.7881,5.7881,5.7881,5.7881,5.7881,5.7881,5.7881,5.7881,5.7881,5.7881,5.7881,5.7881,5.7881,5.7881,5.7881,5.7881,5.7881,5.7881,5.7881,5.7881,5.7881,5.7881,5.7881,5.7881,5.7881,5.7881,5.7881,5.7881,5.7881,5.7881,5.7881,5.7848,5.7881,5.7828,5.7131,5.6249,5.5929,5.5651,5.5231,5.7881,5.7881,5.7881,5.7881,5.7881,5.7881,5.7881,5.7881,5.7881,5.7881,5.7881,5.7881,5.7881,5.7881,5.7881,5.7881,5.7881,5.7881,5.7881,5.7881,5.7881,5.7881,5.7746,5.7628,5.7476,5.7459,5.7188,5.7036,5.7222,5.7002,5.7087,5.7154,5.6884,5.6579,5.6004,5.6004,5.5666,5.5429,5.5564,5.5564,5.5361,5.5361,5.548,5.5784,5.5835,5.5852,5.5852,5.5513,5.5361,5.531,5.4888,5.482,5.4837,5.526,5.553,5.5869,5.6427,5.6765,5.7306,5.7526,5.7526,5.7594,5.7662,5.7881,5.7881,5.7881,5.7881,5.7881,5.7881,5.7881,5.7865,5.7865,5.7881,5.7881,5.7881,5.7881,5.7881,5.7881,5.7881,5.7881,5.7881,5.7881,5.7881,5.7881,5.7881,5.7966,5.8,5.7915,5.7898,5.7881,5.7881,5.7881,5.7881,5.7881,5.7881,5.7881,5.7881,5.7881,5.7881,5.7881,5.7881,5.8,5.7983,5.8051,5.7966,5.7881,5.7881,5.7881,5.7881,5.7665,5.7356,5.7176,5.6963,5.6832,5.6718,5.7881,5.7881,5.7881,5.7881,5.7881,5.7881,5.7881,5.7881,5.7881,5.7881,5.7881,5.7881,5.7881,5.7881,5.7881,5.7881,5.7881,5.7881,5.7881,5.7881,5.7881,5.7881,5.7881,5.7881,5.778,5.7881,5.7881,5.7831,5.7729,5.7831,5.778,5.7746,5.7865,5.734,5.6765,5.6613,5.6427,5.6258,5.619,5.6156,5.6089,5.6122,5.6241,5.6478,5.6562,5.6528,5.6427,5.6275,5.6105,5.6055,5.5902,5.5767,5.5784,5.6038,5.6292,5.6697,5.7137,5.7391,5.7729,5.7831,5.7797,5.7831,5.7881,5.7881,5.7881,5.7881,5.7881,5.7881,5.7881,5.7881,5.7881,5.7881,5.7881,5.7881,5.7881,5.7881,5.7881,5.7881,5.7881,5.7881,5.7949,5.7932,5.7949,5.7881,5.7881,5.8,5.8118,5.8068,5.8034,5.7983,5.8,5.7983,5.7966,5.7966,5.7932,5.7881,5.7881,5.7881,5.7983,5.8118,5.8304,5.849,5.8355,5.8271,5.8389,5.8355,5.7983,5.7898,5.8084,5.8254,5.8278,5.8089,5.7949,5.7819,5.7719,5.7881,5.7881,5.7881,5.7881,5.7881,5.7881,5.7881,5.7881,5.7881,5.7881,5.7881,5.7881,5.7881,5.7881,5.7881,5.7881,5.7881,5.7881,5.7881,5.7881,5.7881,5.7881,5.7881,5.7881,5.7881,5.7881,5.7881,5.7881,5.7881,5.7881,5.7881,5.7881,5.7881,5.7679,5.7577,5.7459,5.7239,5.6951,5.685,5.6833,5.6833,5.6833,5.7087,5.7323,5.7492,5.7492,5.7374,5.7137,5.6917,5.6664,5.6292,5.6021,5.6055,5.6461,5.6714,5.7036,5.7543,5.7746,5.7865,5.7881,5.7881,5.7881,5.7881,5.7881,5.7881,5.7881,5.7881,5.7881,5.7881,5.7881,5.7881,5.7881,5.7881,5.7881,5.7881,5.7881,5.7881,5.7881,5.7881,5.7932,5.8051,5.8101,5.8203,5.8152,5.8457,5.8626,5.8812,5.8761,5.8643,5.8254,5.8237,5.8203,5.8169,5.8101,5.8118,5.8406,5.8507,5.8727,5.8541,5.8609,5.8812,5.9032,5.9032,5.9032,5.9049,5.893,5.8744,5.8575,5.8507,5.8693,5.8998,5.8913,5.8727,5.8541,5.8464,5.7881,5.7881,5.7881,5.7881,5.7881,5.7881,5.7881,5.7881,5.7881,5.7881,5.7881,5.7881,5.7881,5.7881,5.7881,5.7881,5.7881,5.7881,5.7881,5.7881,5.7881,5.7881,5.7881,5.7881,5.7881,5.7881,5.7881,5.7881,5.7881,5.7881,5.7881,5.7881,5.7881,5.7881,5.7881,5.7881,5.7695,5.7577,5.7476,5.7476,5.7492,5.7459,5.7712,5.7814,5.7881,5.7881,5.7746,5.7662,5.7492,5.7408,5.734,5.7239,5.7289,5.7459,5.7577,5.7594,5.7797,5.7881,5.7881,5.7881,5.7881,5.7881,5.7881,5.7881,5.7881,5.7881,5.7881,5.7881,5.7881,5.7881,5.7881,5.7881,5.7881,5.7881,5.7881,5.7881,5.7881,5.7881,5.7898,5.8186,5.8287,5.8676,5.8727,5.9049,5.9353,5.9488,5.9539,5.9488,5.9285,5.8896,5.871,5.8693,5.871,5.8744,5.9167,5.9488,5.9522,5.9539,5.9302,5.9252,5.9624,5.981,5.9793,5.9742,5.9674,5.9674,5.9641,5.9455,5.9201,5.9488,5.9776,5.9658,5.9505,5.9319,5.9285,5.7881,5.7881,5.7881,5.7881,5.7881,5.7881,5.7881,5.7881,5.7881,5.7881,5.7881,5.7881,5.7881,5.7881,5.7881,5.7881,5.7881,5.7881,5.7881,5.7881,5.7881,5.7881,5.7881,5.7881,5.7881,5.7881,5.7881,5.7881,5.7881,5.7881,5.7881,5.7881,5.7881,5.7881,5.7881,5.7881,5.7881,5.7848,5.7848,5.7881,5.7881,5.7881,5.7881,5.7881,5.7881,5.7881,5.7881,5.7881,5.7881,5.7881,5.7881,5.7865,5.7848,5.7865,5.7865,5.7831,5.7848,5.7881,5.7881,5.7881,5.7881,5.7881,5.7881,5.7881,5.7881,5.7881,5.7881,5.7881,5.7881,5.7881,5.7881,5.7881,5.7881,5.7881,5.7881,5.7881,5.7881,5.7881,5.8118,5.844,5.8829,5.9285,5.9624,5.9962,6.0114,6.0047,6.0097,6.0199,5.9979,5.9607,5.9471,5.9438,5.9471,5.9522,5.9996,6.03,6.0165,6.0047,5.9844,5.9911,6.0368,6.0588,6.0588,6.0436,6.025,6.0233,6.0182,6.008,5.9945,6.03,6.0622,6.0672,6.0486,6.0131,6.0199,5.7881,5.7881,5.7881,5.7881,5.7881,5.7881,5.7881,5.7881,5.7881,5.7881,5.7881,5.7881,5.7881,5.7881,5.7881,5.7881,5.7881,5.7881,5.7881,5.7881,5.7881,5.7881,5.7881,5.7881,5.7881,5.7881,5.7881,5.7881,5.7881,5.7881,5.7881,5.7881,5.7881,5.7881,5.7881,5.7881,5.7881,5.7881,5.7881,5.7881,5.7881,5.7881,5.7881,5.7881,5.7881,5.7881,5.7881,5.7881,5.7881,5.7881,5.7881,5.7881,5.7881,5.7881,5.7881,5.7881,5.7881,5.7881,5.7881,5.7881,5.7881,5.7881,5.7881,5.7881,5.7881,5.7881,5.7881,5.7881,5.7881,5.7881,5.7881,5.7881,5.7881,5.7881,5.7881,5.7881,5.7881,5.8101,5.8575,5.9015,5.9708,6.0114,6.0317,6.0655,6.1011,6.0757,6.0774,6.0977,6.0825,6.0469,6.0283,6.025,6.0233,6.0334,6.0655,6.0858,6.0655,6.0486,6.0452,6.0689,6.1231,6.1366,6.1383,6.1247,6.1095,6.0757,6.0622,6.0706,6.0926,6.1163,6.1467,6.1704,6.1501,6.1028,6.1044,5.7881,5.7881,5.7881,5.7881,5.7881,5.7881,5.7881,5.7881,5.7881,5.7881,5.7881,5.7881,5.7881,5.7881,5.7881,5.7881,5.7881,5.7881,5.7881,5.7881,5.7881,5.7881,5.7881,5.7881,5.7881,5.7881,5.7881,5.7881,5.7881,5.7881,5.7881,5.7881,5.7881,5.7881,5.7881,5.7881,5.7881,5.7881,5.7881,5.7881,5.7881,5.7881,5.7881,5.7898,5.7915,5.7881,5.7881,5.7881,5.7881,5.7881,5.7881,5.7881,5.7881,5.7881,5.7881,5.7881,5.7881,5.7881,5.7881,5.7881,5.7881,5.7881,5.7881,5.7881,5.7881,5.7881,5.7881,5.7881,5.7881,5.7881,5.7881,5.7881,5.7881,5.7881,5.7898,5.7898,5.7932,5.8524,5.9082,5.9776,6.0537,6.0875,6.1078,6.1332,6.1721,6.189,6.1958,6.2026,6.1907,6.1637,6.1231,6.1146,6.1028,6.1146,6.1417,6.1501,6.1349,6.1467,6.1552,6.1823,6.2059,6.1975,6.189,6.2042,6.1975,6.1569,6.1467,6.1839,6.2042,6.2009,6.1992,6.2093,6.2161,6.1806,6.1924,5.7881,5.7881,5.7881,5.7881,5.7881,5.7881,5.7881,5.7881,5.7881,5.7881,5.7881,5.7881,5.7881,5.7881,5.7881,5.7881,5.7881,5.7881,5.7881,5.7881,5.7881,5.7881,5.7881,5.7881,5.7881,5.7881,5.7881,5.7881,5.7881,5.7881,5.7881,5.7881,5.7881,5.7881,5.7881,5.7881,5.7881,5.7881,5.7881,5.7898,5.7898,5.7898,5.8135,5.8186,5.8101,5.7983,5.7881,5.7881,5.7881,5.7881,5.7881,5.7881,5.7881,5.7881,5.7881,5.7881,5.7881,5.7881,5.7881,5.7881,5.7881,5.7881,5.7881,5.7881,5.7881,5.7881,5.7881,5.7881,5.7881,5.7881,5.7881,5.7881,5.7881,5.7881,5.7949,5.8,5.8676,5.9539,6.0047,6.0588,6.1231,6.1687,6.1823,6.1839,6.2161,6.2161,6.2364,6.2381,6.2398,6.2398,6.211,6.1907,6.1704,6.1755,6.1975,6.2093,6.211,6.2313,6.2398,6.233,6.2245,6.2313,6.2381,6.2347,6.233,6.2279,6.2313,6.2398,6.2398,6.2245,6.2279,6.2347,6.2398,6.2398,6.2347,5.7881,5.7881,5.7881,5.7881,5.7881,5.7881,5.7881,5.7881,5.7881,5.7881,5.7881,5.7881,5.7881,5.7881,5.7881,5.7881,5.7881,5.7881,5.7881,5.7881,5.7881,5.7881,5.7881,5.7881,5.7881,5.7881,5.7881,5.7881,5.7881,5.7881,5.7881,5.7881,5.7881,5.7881,5.7881,5.7881,5.7881,5.7881,5.7898,5.7983,5.7966,5.7915,5.8237,5.8355,5.8287,5.7915,5.7881,5.7881,5.7881,5.7881,5.7881,5.7881,5.7881,5.7881,5.7881,5.7881,5.7881,5.7881,5.7881,5.7881,5.7881,5.7881,5.7881,5.7881,5.7881,5.7881,5.7881,5.7881,5.7881,5.7881,5.7881,5.7881,5.7881,5.8,5.8101,5.8507,5.9522,6.0436,6.0875,6.1332,6.1789,6.2279,6.233,6.2364,6.2381,6.2398,6.2398,6.2398,6.2398,6.2398,6.2262,6.2195,6.2127,6.2245,6.2398,6.2398,6.2398,6.2398,6.2398,6.2398,6.2398,6.2398,6.2398,6.2398,6.2398,6.2398,6.2398,6.2398,6.2398,6.2398,6.2398,6.2398,6.2398,6.2398,6.2398,5.7881,5.7881,5.7881,5.7881,5.7881,5.7881,5.7881,5.7881,5.7881,5.7881,5.7881,5.7881,5.7881,5.7881,5.7881,5.7881,5.7881,5.7881,5.7881,5.7881,5.7881,5.7881,5.7881,5.7881,5.7881,5.7881,5.7881,5.7881,5.7881,5.7881,5.7881,5.7881,5.7881,5.7881,5.7881,5.7881,5.7881,5.7881,5.7949,5.8051,5.8389,5.8271,5.7966,5.8,5.7983,5.7881,5.7881,5.7881,5.7881,5.7881,5.7881,5.7881,5.7881,5.7881,5.7881,5.7881,5.7881,5.7881,5.7881,5.7881,5.7881,5.7881,5.7881,5.7881,5.7881,5.7881,5.7881,5.7881,5.7881,5.7881,5.7881,5.7881,5.7898,5.8254,5.8457,5.9505,6.0571,6.1044,6.1434,6.1806,6.2161,6.2381,6.2381,6.2398,6.2398,6.2398,6.2398,6.2398,6.2398,6.2398,6.2398,6.2398,6.2398,6.2398,6.2398,6.2398,6.2398,6.2398,6.2398,6.2398,6.2398,6.2398,6.2398,6.2398,6.2398,6.2398,6.2398,6.2398,6.2398,6.2398,6.2398,6.2398,6.2398,6.2398,6.2398]}]]